<?xml version="1.0" encoding="UTF-8" standalone="no" ?>
<gpx xmlns="http://www.topografix.com/GPX/1/1" xmlns:xsi="http://www.w3.org/2001/XMLSchema-instance" xsi:schemaLocation="http://www.topografix.com/GPX/1/1 http://www.topografix.com/GPX/1/1/gpx.xsd" version="1.1" creator="VisuGPX - https://www.visugpx.com">
  <metadata>
    <name>Partenay valognes découpé</name>
  </metadata>
  <trk>
    <name><![CDATA[Partenay valognes découpé_2]]></name>
    <trkseg>
      <trkpt lat="47.31553" lon="0.04893">
        <ele>103.575</ele>
        <time>2016-06-04T07:34:58Z</time>
      </trkpt>
      <trkpt lat="47.31553" lon="0.04893">
        <ele>103.569</ele>
        <time>2016-06-04T07:34:58Z</time>
      </trkpt>
      <trkpt lat="47.31774" lon="0.05303">
        <ele>95.808</ele>
        <time>2019-10-27T15:16:38Z</time>
      </trkpt>
      <trkpt lat="47.31791" lon="0.05348">
        <ele>96.211</ele>
        <time>2019-10-27T15:16:18Z</time>
      </trkpt>
      <trkpt lat="47.31825" lon="0.05385">
        <ele>94.592</ele>
        <time>2019-10-27T15:15:58Z</time>
      </trkpt>
      <trkpt lat="47.3189" lon="0.05411">
        <ele>92.532</ele>
        <time>2019-10-27T15:15:38Z</time>
      </trkpt>
      <trkpt lat="47.32065" lon="0.05563">
        <ele>89.975</ele>
        <time>2019-10-27T15:15:18Z</time>
      </trkpt>
      <trkpt lat="47.32293" lon="0.05728">
        <ele>89.976</ele>
        <time>2019-10-27T15:14:58Z</time>
      </trkpt>
      <trkpt lat="47.32387" lon="0.0589">
        <ele>98.16</ele>
        <time>2019-10-27T15:14:38Z</time>
      </trkpt>
      <trkpt lat="47.32566" lon="0.05847">
        <ele>103.278</ele>
        <time>2019-10-27T15:14:18Z</time>
      </trkpt>
      <trkpt lat="47.32617" lon="0.05775">
        <ele>108.522</ele>
        <time>2019-10-27T15:13:58Z</time>
      </trkpt>
      <trkpt lat="47.32579" lon="0.06058">
        <ele>109.399</ele>
        <time>2019-10-27T15:13:38Z</time>
      </trkpt>
      <trkpt lat="47.32469" lon="0.06156">
        <ele>109.714</ele>
        <time>2019-10-27T15:13:18Z</time>
      </trkpt>
      <trkpt lat="47.32377" lon="0.06249">
        <ele>111.128</ele>
        <time>2019-10-27T15:12:58Z</time>
      </trkpt>
      <trkpt lat="47.3263" lon="0.062">
        <ele>113.008</ele>
        <time>2019-10-27T15:12:38Z</time>
      </trkpt>
      <trkpt lat="47.32682" lon="0.06207">
        <ele>113.314</ele>
        <time>2019-10-27T15:12:18Z</time>
      </trkpt>
      <trkpt lat="47.33178" lon="0.06361">
        <ele>109.468</ele>
        <time>2019-10-27T15:11:58Z</time>
      </trkpt>
      <trkpt lat="47.3342" lon="0.06511">
        <ele>102.327</ele>
        <time>2019-10-27T15:11:38Z</time>
      </trkpt>
      <trkpt lat="47.33561" lon="0.06651">
        <ele>99.869</ele>
        <time>2019-10-27T15:11:18Z</time>
      </trkpt>
      <trkpt lat="47.33678" lon="0.0673">
        <ele>102.05</ele>
        <time>2019-10-27T15:10:58Z</time>
      </trkpt>
      <trkpt lat="47.33727" lon="0.06737">
        <ele>102.694</ele>
        <time>2019-10-27T15:10:38Z</time>
      </trkpt>
      <trkpt lat="47.33895" lon="0.06881">
        <ele>110.612</ele>
        <time>2019-10-27T15:10:18Z</time>
      </trkpt>
      <trkpt lat="47.33973" lon="0.06919">
        <ele>110.066</ele>
        <time>2019-10-27T15:09:58Z</time>
      </trkpt>
      <trkpt lat="47.33993" lon="0.07053">
        <ele>108.683</ele>
        <time>2019-10-27T15:09:38Z</time>
      </trkpt>
      <trkpt lat="47.34014" lon="0.07115">
        <ele>110.558</ele>
        <time>2019-10-27T15:09:18Z</time>
      </trkpt>
      <trkpt lat="47.34057" lon="0.07323">
        <ele>102.682</ele>
        <time>2019-10-27T15:08:58Z</time>
      </trkpt>
      <trkpt lat="47.34094" lon="0.07467">
        <ele>100.908</ele>
        <time>2019-10-27T15:08:38Z</time>
      </trkpt>
      <trkpt lat="47.34115" lon="0.07594">
        <ele>103.424</ele>
        <time>2019-10-27T15:08:18Z</time>
      </trkpt>
      <trkpt lat="47.34053" lon="0.07681">
        <ele>107.004</ele>
        <time>2019-10-27T15:07:58Z</time>
      </trkpt>
      <trkpt lat="47.34078" lon="0.07783">
        <ele>108.869</ele>
        <time>2019-10-27T15:07:38Z</time>
      </trkpt>
      <trkpt lat="47.34117" lon="0.07873">
        <ele>108.088</ele>
        <time>2019-10-27T15:07:18Z</time>
      </trkpt>
      <trkpt lat="47.34225" lon="0.08061">
        <ele>110.649</ele>
        <time>2019-10-27T15:06:58Z</time>
      </trkpt>
      <trkpt lat="47.34284" lon="0.08256">
        <ele>109.493</ele>
        <time>2019-10-27T15:06:38Z</time>
      </trkpt>
      <trkpt lat="47.34377" lon="0.08325">
        <ele>108.961</ele>
        <time>2019-10-27T15:06:18Z</time>
      </trkpt>
      <trkpt lat="47.34426" lon="0.08336">
        <ele>110.775</ele>
        <time>2019-10-27T15:05:58Z</time>
      </trkpt>
      <trkpt lat="47.34463" lon="0.08332">
        <ele>112.722</ele>
        <time>2019-10-27T15:05:38Z</time>
      </trkpt>
      <trkpt lat="47.34494" lon="0.08337">
        <ele>112.947</ele>
        <time>2019-10-27T15:05:18Z</time>
      </trkpt>
      <trkpt lat="47.34542" lon="0.08359">
        <ele>110.111</ele>
        <time>2019-10-27T15:04:58Z</time>
      </trkpt>
      <trkpt lat="47.3512" lon="0.08902">
        <ele>114.508</ele>
        <time>2019-10-27T15:04:38Z</time>
      </trkpt>
      <trkpt lat="47.35211" lon="0.09018">
        <ele>120.223</ele>
        <time>2019-10-27T15:04:18Z</time>
      </trkpt>
      <trkpt lat="47.35357" lon="0.09154">
        <ele>113.503</ele>
        <time>2016-06-02T21:48:13Z</time>
      </trkpt>
      <trkpt lat="47.35429" lon="0.09233">
        <ele>113.059</ele>
        <time>2016-06-02T21:47:53Z</time>
      </trkpt>
      <trkpt lat="47.35521" lon="0.09297">
        <ele>117.52</ele>
        <time>2016-06-02T21:47:33Z</time>
      </trkpt>
      <trkpt lat="47.35607" lon="0.09402">
        <ele>113.521</ele>
        <time>2016-06-02T21:47:13Z</time>
      </trkpt>
      <trkpt lat="47.35699" lon="0.09496">
        <ele>115.165</ele>
        <time>2016-06-02T21:46:53Z</time>
      </trkpt>
      <trkpt lat="47.35708" lon="0.09356">
        <ele>117.193</ele>
        <time>2016-06-02T21:46:33Z</time>
      </trkpt>
      <trkpt lat="47.35701" lon="0.09162">
        <ele>112.837</ele>
        <time>2016-06-02T21:46:13Z</time>
      </trkpt>
      <trkpt lat="47.35715" lon="0.08987">
        <ele>114.044</ele>
        <time>2016-06-02T21:45:53Z</time>
      </trkpt>
      <trkpt lat="47.35811" lon="0.08805">
        <ele>107.839</ele>
        <time>2016-06-02T21:45:33Z</time>
      </trkpt>
      <trkpt lat="47.35801" lon="0.08714">
        <ele>108.723</ele>
        <time>2016-06-02T21:45:13Z</time>
      </trkpt>
      <trkpt lat="47.35962" lon="0.08557">
        <ele>100.308</ele>
        <time>2016-06-02T21:44:53Z</time>
      </trkpt>
      <trkpt lat="47.35986" lon="0.08594">
        <ele>99.313</ele>
        <time>2016-06-02T21:44:33Z</time>
      </trkpt>
      <trkpt lat="47.36042" lon="0.08611">
        <ele>100.585</ele>
        <time>2016-06-02T21:44:13Z</time>
      </trkpt>
      <trkpt lat="47.3611" lon="0.08555">
        <ele>100.073</ele>
        <time>2016-06-02T21:43:53Z</time>
      </trkpt>
      <trkpt lat="47.36109" lon="0.08624">
        <ele>103.33</ele>
        <time>2016-06-02T21:43:33Z</time>
      </trkpt>
      <trkpt lat="47.36154" lon="0.08749">
        <ele>106.681</ele>
        <time>2016-06-02T21:43:13Z</time>
      </trkpt>
      <trkpt lat="47.3617" lon="0.08848">
        <ele>109.855</ele>
        <time>2016-06-02T21:42:53Z</time>
      </trkpt>
      <trkpt lat="47.36391" lon="0.09357">
        <ele>111.193</ele>
        <time>2016-06-02T21:42:33Z</time>
      </trkpt>
      <trkpt lat="47.36391" lon="0.09357">
        <ele>111.197</ele>
        <time>2016-06-02T21:41:53Z</time>
      </trkpt>
      <trkpt lat="47.36567" lon="0.09517">
        <ele>120.484</ele>
        <time>2016-06-02T21:41:33Z</time>
      </trkpt>
      <trkpt lat="47.36646" lon="0.09598">
        <ele>122.989</ele>
        <time>2016-06-02T21:41:13Z</time>
      </trkpt>
      <trkpt lat="47.36681" lon="0.09636">
        <ele>120.433</ele>
        <time>2016-06-02T21:40:53Z</time>
      </trkpt>
      <trkpt lat="47.36733" lon="0.0971">
        <ele>121.208</ele>
        <time>2016-06-02T21:40:33Z</time>
      </trkpt>
      <trkpt lat="47.36756" lon="0.09734">
        <ele>122.427</ele>
        <time>2016-06-02T21:40:13Z</time>
      </trkpt>
      <trkpt lat="47.36852" lon="0.09787">
        <ele>116.061</ele>
        <time>2016-06-02T21:39:53Z</time>
      </trkpt>
      <trkpt lat="47.3708" lon="0.09995">
        <ele>118.777</ele>
        <time>2016-06-02T21:39:33Z</time>
      </trkpt>
      <trkpt lat="47.37222" lon="0.10184">
        <ele>116.058</ele>
        <time>2016-06-02T21:39:13Z</time>
      </trkpt>
      <trkpt lat="47.37257" lon="0.10227">
        <ele>117.079</ele>
        <time>2016-06-02T21:38:13Z</time>
      </trkpt>
      <trkpt lat="47.37293" lon="0.10261">
        <ele>115.343</ele>
        <time>2016-06-02T21:37:33Z</time>
      </trkpt>
      <trkpt lat="47.37326" lon="0.10314">
        <ele>115.831</ele>
        <time>2016-06-02T21:37:13Z</time>
      </trkpt>
      <trkpt lat="47.37352" lon="0.10339">
        <ele>117.635</ele>
        <time>2016-06-02T21:36:53Z</time>
      </trkpt>
      <trkpt lat="47.3743" lon="0.1051">
        <ele>111.072</ele>
        <time>2016-06-02T21:36:33Z</time>
      </trkpt>
      <trkpt lat="47.37478" lon="0.10581">
        <ele>105.767</ele>
        <time>2016-06-02T21:36:13Z</time>
      </trkpt>
      <trkpt lat="47.37497" lon="0.10628">
        <ele>107.651</ele>
        <time>2016-06-02T21:35:53Z</time>
      </trkpt>
      <trkpt lat="47.37608" lon="0.10819">
        <ele>104.508</ele>
        <time>2016-06-02T21:35:33Z</time>
      </trkpt>
      <trkpt lat="47.3764" lon="0.10861">
        <ele>104.111</ele>
        <time>2016-06-02T21:35:13Z</time>
      </trkpt>
      <trkpt lat="47.37691" lon="0.109">
        <ele>104.256</ele>
        <time>2016-06-02T21:34:53Z</time>
      </trkpt>
      <trkpt lat="47.37776" lon="0.11025">
        <ele>95.154</ele>
        <time>2016-06-02T21:34:33Z</time>
      </trkpt>
      <trkpt lat="47.37794" lon="0.11081">
        <ele>94.718</ele>
        <time>2016-06-02T21:33:13Z</time>
      </trkpt>
      <trkpt lat="47.37839" lon="0.1115">
        <ele>89.149</ele>
        <time>2016-06-02T21:32:53Z</time>
      </trkpt>
      <trkpt lat="47.37929" lon="0.11205">
        <ele>86.023</ele>
        <time>2016-06-02T21:32:33Z</time>
      </trkpt>
      <trkpt lat="47.38033" lon="0.1127">
        <ele>87.561</ele>
        <time>2016-06-02T21:32:13Z</time>
      </trkpt>
      <trkpt lat="47.38161" lon="0.11341">
        <ele>82.955</ele>
        <time>2016-06-02T21:30:53Z</time>
      </trkpt>
      <trkpt lat="47.38269" lon="0.11341">
        <ele>82.742</ele>
        <time>2016-06-02T21:30:33Z</time>
      </trkpt>
      <trkpt lat="47.38269" lon="0.11413">
        <ele>81.117</ele>
        <time>2016-06-02T21:30:13Z</time>
      </trkpt>
      <trkpt lat="47.38269" lon="0.11413">
        <ele>81.151</ele>
        <time>2016-06-02T21:29:53Z</time>
      </trkpt>
      <trkpt lat="47.38238" lon="0.11801">
        <ele>79.008</ele>
        <time>2016-06-02T21:29:33Z</time>
      </trkpt>
      <trkpt lat="47.3825" lon="0.11824">
        <ele>78.317</ele>
        <time>2016-06-02T21:29:13Z</time>
      </trkpt>
      <trkpt lat="47.38455" lon="0.11968">
        <ele>79.207</ele>
        <time>2016-06-02T21:28:53Z</time>
      </trkpt>
      <trkpt lat="47.3853" lon="0.11995">
        <ele>77.255</ele>
        <time>2016-06-02T21:28:33Z</time>
      </trkpt>
      <trkpt lat="47.3857" lon="0.12001">
        <ele>76.544</ele>
        <time>2016-06-02T21:28:13Z</time>
      </trkpt>
      <trkpt lat="47.38688" lon="0.11965">
        <ele>74.535</ele>
        <time>2016-06-02T21:27:53Z</time>
      </trkpt>
      <trkpt lat="47.38715" lon="0.11938">
        <ele>75.219</ele>
        <time>2016-06-02T21:27:33Z</time>
      </trkpt>
      <trkpt lat="47.38733" lon="0.11894">
        <ele>73.497</ele>
        <time>2016-06-02T21:27:13Z</time>
      </trkpt>
      <trkpt lat="47.38873" lon="0.11855">
        <ele>73.221</ele>
        <time>2016-06-02T21:26:53Z</time>
      </trkpt>
      <trkpt lat="47.38906" lon="0.1187">
        <ele>73.268</ele>
        <time>2016-06-02T21:26:33Z</time>
      </trkpt>
      <trkpt lat="47.38935" lon="0.11877">
        <ele>74.793</ele>
        <time>2016-06-02T21:26:13Z</time>
      </trkpt>
      <trkpt lat="47.39014" lon="0.11863">
        <ele>80.117</ele>
        <time>2016-06-02T21:25:53Z</time>
      </trkpt>
      <trkpt lat="47.39101" lon="0.11818">
        <ele>78.908</ele>
        <time>2016-06-02T21:25:33Z</time>
      </trkpt>
      <trkpt lat="47.39162" lon="0.11842">
        <ele>81.505</ele>
        <time>2016-06-02T21:25:13Z</time>
      </trkpt>
      <trkpt lat="47.39212" lon="0.1183">
        <ele>78.832</ele>
        <time>2016-06-02T21:24:53Z</time>
      </trkpt>
      <trkpt lat="47.39262" lon="0.118">
        <ele>75.312</ele>
        <time>2016-06-02T21:24:33Z</time>
      </trkpt>
      <trkpt lat="47.39315" lon="0.11719">
        <ele>72.596</ele>
        <time>2016-06-02T21:24:13Z</time>
      </trkpt>
      <trkpt lat="47.39359" lon="0.11781">
        <ele>70.337</ele>
        <time>2016-06-02T21:23:53Z</time>
      </trkpt>
      <trkpt lat="47.39389" lon="0.11865">
        <ele>73.041</ele>
        <time>2016-06-02T21:23:33Z</time>
      </trkpt>
      <trkpt lat="47.39502" lon="0.12306">
        <ele>70.919</ele>
        <time>2016-06-02T21:23:13Z</time>
      </trkpt>
      <trkpt lat="47.39597" lon="0.12528">
        <ele>68.513</ele>
        <time>2016-06-02T21:22:53Z</time>
      </trkpt>
      <trkpt lat="47.39635" lon="0.12639">
        <ele>68.11</ele>
        <time>2016-06-02T21:22:33Z</time>
      </trkpt>
      <trkpt lat="47.39733" lon="0.12854">
        <ele>66.095</ele>
        <time>2016-06-02T21:22:13Z</time>
      </trkpt>
      <trkpt lat="47.39775" lon="0.12922">
        <ele>66.119</ele>
        <time>2016-06-02T21:21:53Z</time>
      </trkpt>
      <trkpt lat="47.39863" lon="0.131">
        <ele>68.108</ele>
        <time>2016-06-02T21:21:33Z</time>
      </trkpt>
      <trkpt lat="47.39991" lon="0.13341">
        <ele>69.007</ele>
        <time>2016-06-02T21:21:13Z</time>
      </trkpt>
      <trkpt lat="47.40014" lon="0.13333">
        <ele>68.561</ele>
        <time>2016-06-02T21:20:53Z</time>
      </trkpt>
      <trkpt lat="47.40088" lon="0.13466">
        <ele>67.831</ele>
        <time>2016-06-02T21:20:33Z</time>
      </trkpt>
      <trkpt lat="47.4014" lon="0.13594">
        <ele>67.052</ele>
        <time>2016-06-02T21:20:13Z</time>
      </trkpt>
      <trkpt lat="47.40164" lon="0.13688">
        <ele>68.823</ele>
        <time>2016-06-02T21:19:53Z</time>
      </trkpt>
      <trkpt lat="47.40209" lon="0.13799">
        <ele>67.617</ele>
        <time>2016-06-02T21:19:33Z</time>
      </trkpt>
      <trkpt lat="47.40382" lon="0.1449">
        <ele>67.875</ele>
        <time>2016-06-02T21:19:13Z</time>
      </trkpt>
      <trkpt lat="47.40474" lon="0.14714">
        <ele>66.119</ele>
        <time>2016-06-02T21:18:53Z</time>
      </trkpt>
      <trkpt lat="47.40502" lon="0.14757">
        <ele>68.336</ele>
        <time>2016-06-02T21:18:33Z</time>
      </trkpt>
      <trkpt lat="47.40513" lon="0.14817">
        <ele>68.681</ele>
        <time>2016-06-02T21:18:13Z</time>
      </trkpt>
      <trkpt lat="47.40519" lon="0.14884">
        <ele>67.935</ele>
        <time>2016-06-02T21:17:53Z</time>
      </trkpt>
      <trkpt lat="47.40571" lon="0.15002">
        <ele>67.608</ele>
        <time>2016-06-02T21:17:33Z</time>
      </trkpt>
      <trkpt lat="47.40374" lon="0.15243">
        <ele>70.327</ele>
        <time>2016-06-02T21:17:13Z</time>
      </trkpt>
      <trkpt lat="47.40421" lon="0.15319">
        <ele>70.907</ele>
        <time>2016-06-02T21:16:53Z</time>
      </trkpt>
      <trkpt lat="47.40421" lon="0.15393">
        <ele>72.099</ele>
        <time>2016-06-02T21:16:33Z</time>
      </trkpt>
      <trkpt lat="47.4043" lon="0.15524">
        <ele>73.529</ele>
        <time>2016-06-02T21:16:13Z</time>
      </trkpt>
      <trkpt lat="47.40444" lon="0.15637">
        <ele>73.09</ele>
        <time>2016-06-02T21:15:53Z</time>
      </trkpt>
      <trkpt lat="47.4044" lon="0.16072">
        <ele>73.014</ele>
        <time>2016-06-02T21:15:33Z</time>
      </trkpt>
      <trkpt lat="47.40447" lon="0.1621">
        <ele>71.572</ele>
        <time>2016-06-02T21:15:13Z</time>
      </trkpt>
      <trkpt lat="47.40422" lon="0.16201">
        <ele>71.636</ele>
        <time>2016-06-02T21:14:53Z</time>
      </trkpt>
      <trkpt lat="47.40364" lon="0.16374">
        <ele>72.983</ele>
        <time>2016-06-02T21:14:33Z</time>
      </trkpt>
      <trkpt lat="47.40354" lon="0.16421">
        <ele>73.038</ele>
        <time>2016-06-02T21:14:13Z</time>
      </trkpt>
      <trkpt lat="47.40321" lon="0.16476">
        <ele>72.912</ele>
        <time>2016-06-02T21:13:53Z</time>
      </trkpt>
      <trkpt lat="47.40294" lon="0.16467">
        <ele>73.008</ele>
        <time>2016-06-02T21:13:33Z</time>
      </trkpt>
      <trkpt lat="47.40281" lon="0.16521">
        <ele>72.013</ele>
        <time>2016-06-02T21:13:13Z</time>
      </trkpt>
      <trkpt lat="47.40609" lon="0.16801">
        <ele>72.821</ele>
        <time>2016-06-02T21:12:53Z</time>
      </trkpt>
      <trkpt lat="47.40915" lon="0.1705">
        <ele>74.061</ele>
        <time>2016-06-02T21:12:33Z</time>
      </trkpt>
      <trkpt lat="47.41094" lon="0.17154">
        <ele>78.214</ele>
        <time>2016-06-02T21:12:13Z</time>
      </trkpt>
      <trkpt lat="47.41758" lon="0.17651">
        <ele>77.085</ele>
        <time>2016-06-02T21:11:53Z</time>
      </trkpt>
      <trkpt lat="47.41813" lon="0.17683">
        <ele>78.969</ele>
        <time>2016-06-02T21:11:33Z</time>
      </trkpt>
      <trkpt lat="47.41832" lon="0.17685">
        <ele>78.787</ele>
        <time>2016-06-02T21:11:13Z</time>
      </trkpt>
      <trkpt lat="47.41925" lon="0.17721">
        <ele>80.021</ele>
        <time>2016-06-02T21:10:53Z</time>
      </trkpt>
      <trkpt lat="47.42001" lon="0.17732">
        <ele>78.078</ele>
        <time>2016-06-02T21:10:33Z</time>
      </trkpt>
      <trkpt lat="47.4204" lon="0.17725">
        <ele>77.053</ele>
        <time>2016-06-02T21:10:13Z</time>
      </trkpt>
      <trkpt lat="47.42087" lon="0.17769">
        <ele>78.077</ele>
        <time>2016-06-02T21:09:53Z</time>
      </trkpt>
      <trkpt lat="47.42123" lon="0.17788">
        <ele>78.808</ele>
        <time>2016-06-02T21:09:33Z</time>
      </trkpt>
      <trkpt lat="47.42247" lon="0.17836">
        <ele>84.911</ele>
        <time>2016-06-02T21:09:13Z</time>
      </trkpt>
      <trkpt lat="47.42287" lon="0.17845">
        <ele>86.365</ele>
        <time>2016-06-02T21:08:53Z</time>
      </trkpt>
      <trkpt lat="47.42308" lon="0.17866">
        <ele>86.815</ele>
        <time>2016-06-02T21:08:33Z</time>
      </trkpt>
      <trkpt lat="47.42371" lon="0.17968">
        <ele>86.166</ele>
        <time>2016-06-02T21:08:13Z</time>
      </trkpt>
      <trkpt lat="47.42394" lon="0.18028">
        <ele>87.447</ele>
        <time>2016-06-02T21:07:53Z</time>
      </trkpt>
      <trkpt lat="47.42569" lon="0.18013">
        <ele>99.071</ele>
        <time>2016-06-02T21:07:33Z</time>
      </trkpt>
      <trkpt lat="47.42655" lon="0.18054">
        <ele>99.429</ele>
        <time>2016-06-02T21:07:13Z</time>
      </trkpt>
      <trkpt lat="47.42714" lon="0.18104">
        <ele>99.853</ele>
        <time>2016-06-02T21:06:53Z</time>
      </trkpt>
      <trkpt lat="47.42796" lon="0.18195">
        <ele>103.88</ele>
        <time>2016-06-02T21:06:33Z</time>
      </trkpt>
      <trkpt lat="47.42878" lon="0.18299">
        <ele>105.295</ele>
        <time>2016-06-02T21:06:13Z</time>
      </trkpt>
      <trkpt lat="47.42945" lon="0.18456">
        <ele>108.099</ele>
        <time>2016-06-02T21:05:53Z</time>
      </trkpt>
      <trkpt lat="47.43057" lon="0.18408">
        <ele>109.908</ele>
        <time>2016-06-02T21:05:33Z</time>
      </trkpt>
      <trkpt lat="47.43268" lon="0.18342">
        <ele>115.314</ele>
        <time>2016-06-02T21:05:13Z</time>
      </trkpt>
      <trkpt lat="47.43348" lon="0.18314">
        <ele>115.886</ele>
        <time>2016-06-02T21:04:53Z</time>
      </trkpt>
      <trkpt lat="47.43583" lon="0.18314">
        <ele>118.435</ele>
        <time>2016-06-02T21:04:13Z</time>
      </trkpt>
      <trkpt lat="47.43655" lon="0.18306">
        <ele>117.469</ele>
        <time>2016-06-02T21:03:53Z</time>
      </trkpt>
      <trkpt lat="47.43803" lon="0.18278">
        <ele>115.11</ele>
        <time>2016-06-02T21:03:33Z</time>
      </trkpt>
      <trkpt lat="47.44039" lon="0.18255">
        <ele>112.654</ele>
        <time>2016-06-02T21:03:13Z</time>
      </trkpt>
      <trkpt lat="47.44336" lon="0.18262">
        <ele>119.552</ele>
        <time>2016-06-02T21:02:53Z</time>
      </trkpt>
      <trkpt lat="47.44388" lon="0.18258">
        <ele>118.496</ele>
        <time>2016-06-02T21:02:33Z</time>
      </trkpt>
      <trkpt lat="47.44513" lon="0.18233">
        <ele>120.153</ele>
        <time>2016-06-02T21:02:13Z</time>
      </trkpt>
      <trkpt lat="47.44793" lon="0.18189">
        <ele>121.268</ele>
        <time>2016-06-02T21:01:53Z</time>
      </trkpt>
      <trkpt lat="47.4507" lon="0.18184">
        <ele>127.162</ele>
        <time>2016-06-02T21:01:33Z</time>
      </trkpt>
      <trkpt lat="47.45249" lon="0.18134">
        <ele>125.908</ele>
        <time>2016-06-02T21:01:13Z</time>
      </trkpt>
      <trkpt lat="47.45336" lon="0.18117">
        <ele>121.221</ele>
        <time>2016-06-02T21:00:53Z</time>
      </trkpt>
      <trkpt lat="47.45404" lon="0.18187">
        <ele>120.629</ele>
        <time>2016-06-02T21:00:33Z</time>
      </trkpt>
      <trkpt lat="47.45509" lon="0.1832">
        <ele>113.566</ele>
        <time>2016-06-02T21:00:13Z</time>
      </trkpt>
      <trkpt lat="47.45683" lon="0.18578">
        <ele>106.989</ele>
        <time>2016-06-02T20:59:53Z</time>
      </trkpt>
      <trkpt lat="47.458" lon="0.1872">
        <ele>110.29</ele>
        <time>2016-06-02T20:59:33Z</time>
      </trkpt>
      <trkpt lat="47.45867" lon="0.18798">
        <ele>105.774</ele>
        <time>2016-06-02T20:59:13Z</time>
      </trkpt>
      <trkpt lat="47.45963" lon="0.18877">
        <ele>101.432</ele>
        <time>2016-06-02T20:58:53Z</time>
      </trkpt>
      <trkpt lat="47.45977" lon="0.18876">
        <ele>100.116</ele>
        <time>2016-06-02T20:58:33Z</time>
      </trkpt>
      <trkpt lat="47.46117" lon="0.19034">
        <ele>91.283</ele>
        <time>2016-06-02T20:58:13Z</time>
      </trkpt>
      <trkpt lat="47.46257" lon="0.19207">
        <ele>87.818</ele>
        <time>2016-06-02T20:57:53Z</time>
      </trkpt>
      <trkpt lat="47.46333" lon="0.19279">
        <ele>84.052</ele>
        <time>2016-06-02T20:57:33Z</time>
      </trkpt>
      <trkpt lat="47.46484" lon="0.19498">
        <ele>80.108</ele>
        <time>2016-06-02T20:57:13Z</time>
      </trkpt>
      <trkpt lat="47.46487" lon="0.19442">
        <ele>81.521</ele>
        <time>2016-06-02T20:56:53Z</time>
      </trkpt>
      <trkpt lat="47.4648" lon="0.1936">
        <ele>82.429</ele>
        <time>2016-06-02T20:56:33Z</time>
      </trkpt>
      <trkpt lat="47.46472" lon="0.18828">
        <ele>91.266</ele>
        <time>2016-06-02T20:56:13Z</time>
      </trkpt>
      <trkpt lat="47.46428" lon="0.18291">
        <ele>89.366</ele>
        <time>2016-06-02T20:55:53Z</time>
      </trkpt>
      <trkpt lat="47.46426" lon="0.1816">
        <ele>86.787</ele>
        <time>2016-06-02T20:55:33Z</time>
      </trkpt>
      <trkpt lat="47.4643" lon="0.18032">
        <ele>87.711</ele>
        <time>2016-06-02T20:55:13Z</time>
      </trkpt>
      <trkpt lat="47.46442" lon="0.17821">
        <ele>86.929</ele>
        <time>2016-06-02T20:54:53Z</time>
      </trkpt>
      <trkpt lat="47.46452" lon="0.17758">
        <ele>84.193</ele>
        <time>2016-06-02T20:54:33Z</time>
      </trkpt>
      <trkpt lat="47.46447" lon="0.1748">
        <ele>79.99</ele>
        <time>2016-06-02T20:54:13Z</time>
      </trkpt>
      <trkpt lat="47.46414" lon="0.17418">
        <ele>79.245</ele>
        <time>2016-06-02T20:53:53Z</time>
      </trkpt>
      <trkpt lat="47.46368" lon="0.17309">
        <ele>83.719</ele>
        <time>2016-06-02T20:53:33Z</time>
      </trkpt>
      <trkpt lat="47.46388" lon="0.17068">
        <ele>75.508</ele>
        <time>2016-06-02T20:53:13Z</time>
      </trkpt>
      <trkpt lat="47.464" lon="0.16884">
        <ele>76.718</ele>
        <time>2016-06-02T20:52:53Z</time>
      </trkpt>
      <trkpt lat="47.46394" lon="0.1681">
        <ele>73.217</ele>
        <time>2016-06-02T20:52:33Z</time>
      </trkpt>
      <trkpt lat="47.4578" lon="0.16257">
        <ele>85.636</ele>
        <time>2016-06-02T20:52:13Z</time>
      </trkpt>
      <trkpt lat="47.45729" lon="0.16186">
        <ele>85.31</ele>
        <time>2016-06-02T20:51:53Z</time>
      </trkpt>
      <trkpt lat="47.45714" lon="0.16134">
        <ele>87.841</ele>
        <time>2016-06-02T20:51:33Z</time>
      </trkpt>
      <trkpt lat="47.45647" lon="0.16005">
        <ele>92.165</ele>
        <time>2016-06-02T20:51:13Z</time>
      </trkpt>
      <trkpt lat="47.4554" lon="0.15758">
        <ele>91.683</ele>
        <time>2016-06-02T20:50:53Z</time>
      </trkpt>
      <trkpt lat="47.45472" lon="0.15586">
        <ele>88.067</ele>
        <time>2016-06-02T20:50:33Z</time>
      </trkpt>
      <trkpt lat="47.45188" lon="0.1501">
        <ele>74.984</ele>
        <time>2016-06-02T20:50:13Z</time>
      </trkpt>
      <trkpt lat="47.45172" lon="0.14912">
        <ele>71.619</ele>
        <time>2016-06-02T20:49:53Z</time>
      </trkpt>
      <trkpt lat="47.45101" lon="0.14636">
        <ele>74.143</ele>
        <time>2016-06-02T20:49:33Z</time>
      </trkpt>
      <trkpt lat="47.4501" lon="0.1442">
        <ele>68.408</ele>
        <time>2016-06-02T20:49:13Z</time>
      </trkpt>
      <trkpt lat="47.44947" lon="0.14331">
        <ele>73.026</ele>
        <time>2016-06-02T20:48:53Z</time>
      </trkpt>
      <trkpt lat="47.44995" lon="0.14259">
        <ele>72.833</ele>
        <time>2016-06-02T20:48:33Z</time>
      </trkpt>
      <trkpt lat="47.45086" lon="0.14105">
        <ele>72.978</ele>
        <time>2016-06-02T20:48:13Z</time>
      </trkpt>
      <trkpt lat="47.45108" lon="0.14059">
        <ele>73.14</ele>
        <time>2016-06-02T20:47:53Z</time>
      </trkpt>
      <trkpt lat="47.45132" lon="0.14054">
        <ele>72.261</ele>
        <time>2016-06-02T20:47:33Z</time>
      </trkpt>
      <trkpt lat="47.45307" lon="0.13962">
        <ele>70.085</ele>
        <time>2016-06-02T20:47:13Z</time>
      </trkpt>
      <trkpt lat="47.4557" lon="0.13791">
        <ele>72.353</ele>
        <time>2016-06-02T20:46:53Z</time>
      </trkpt>
      <trkpt lat="47.45584" lon="0.13711">
        <ele>72.057</ele>
        <time>2016-06-02T20:46:33Z</time>
      </trkpt>
      <trkpt lat="47.45615" lon="0.13693">
        <ele>71.224</ele>
        <time>2016-06-02T20:46:13Z</time>
      </trkpt>
      <trkpt lat="47.45667" lon="0.13569">
        <ele>69.519</ele>
        <time>2016-06-02T20:45:53Z</time>
      </trkpt>
      <trkpt lat="47.45678" lon="0.135">
        <ele>72.443</ele>
        <time>2016-06-02T20:45:33Z</time>
      </trkpt>
      <trkpt lat="47.45647" lon="0.13194">
        <ele>67.308</ele>
        <time>2016-06-02T20:45:13Z</time>
      </trkpt>
      <trkpt lat="47.45819" lon="0.13028">
        <ele>73.014</ele>
        <time>2016-06-02T20:44:53Z</time>
      </trkpt>
      <trkpt lat="47.45873" lon="0.12987">
        <ele>78.413</ele>
        <time>2016-06-02T20:44:33Z</time>
      </trkpt>
      <trkpt lat="47.45962" lon="0.12941">
        <ele>81.372</ele>
        <time>2016-06-02T20:44:13Z</time>
      </trkpt>
      <trkpt lat="47.46003" lon="0.12896">
        <ele>83.161</ele>
        <time>2016-06-02T20:42:53Z</time>
      </trkpt>
      <trkpt lat="47.46064" lon="0.12792">
        <ele>87.072</ele>
        <time>2016-06-02T20:42:33Z</time>
      </trkpt>
      <trkpt lat="47.46123" lon="0.12749">
        <ele>88.496</ele>
        <time>2016-06-02T20:42:13Z</time>
      </trkpt>
      <trkpt lat="47.46136" lon="0.12337">
        <ele>94.014</ele>
        <time>2016-06-02T20:41:53Z</time>
      </trkpt>
      <trkpt lat="47.46178" lon="0.12259">
        <ele>93.468</ele>
        <time>2016-06-02T20:41:33Z</time>
      </trkpt>
      <trkpt lat="47.46183" lon="0.12102">
        <ele>91.565</ele>
        <time>2016-06-02T20:41:13Z</time>
      </trkpt>
      <trkpt lat="47.46188" lon="0.11957">
        <ele>86.98</ele>
        <time>2016-06-02T20:40:53Z</time>
      </trkpt>
      <trkpt lat="47.46213" lon="0.11879">
        <ele>83.724</ele>
        <time>2016-06-02T20:40:33Z</time>
      </trkpt>
      <trkpt lat="47.46261" lon="0.11518">
        <ele>76.208</ele>
        <time>2016-06-02T20:40:13Z</time>
      </trkpt>
      <trkpt lat="47.46239" lon="0.11378">
        <ele>79.817</ele>
        <time>2016-06-02T20:39:53Z</time>
      </trkpt>
      <trkpt lat="47.46204" lon="0.11241">
        <ele>80.407</ele>
        <time>2016-06-02T20:39:33Z</time>
      </trkpt>
      <trkpt lat="47.46156" lon="0.11186">
        <ele>82.584</ele>
        <time>2016-06-02T20:39:13Z</time>
      </trkpt>
      <trkpt lat="47.46181" lon="0.11156">
        <ele>83.235</ele>
        <time>2016-06-02T20:38:53Z</time>
      </trkpt>
      <trkpt lat="47.46215" lon="0.11085">
        <ele>87.856</ele>
        <time>2016-06-02T20:38:33Z</time>
      </trkpt>
      <trkpt lat="47.46323" lon="0.1075">
        <ele>68.71</ele>
        <time>2016-06-02T20:38:13Z</time>
      </trkpt>
      <trkpt lat="47.46356" lon="0.10683">
        <ele>71.188</ele>
        <time>2016-06-02T20:37:53Z</time>
      </trkpt>
      <trkpt lat="47.4637" lon="0.10622">
        <ele>70.822</ele>
        <time>2016-06-02T20:37:33Z</time>
      </trkpt>
      <trkpt lat="47.46398" lon="0.10572">
        <ele>70.359</ele>
        <time>2016-06-02T20:37:13Z</time>
      </trkpt>
      <trkpt lat="47.46414" lon="0.10277">
        <ele>67.324</ele>
        <time>2016-06-02T20:36:53Z</time>
      </trkpt>
      <trkpt lat="47.46411" lon="0.10099">
        <ele>67.228</ele>
        <time>2016-06-02T20:36:33Z</time>
      </trkpt>
      <trkpt lat="47.46425" lon="0.10017">
        <ele>64.608</ele>
        <time>2016-06-02T20:36:13Z</time>
      </trkpt>
      <trkpt lat="47.46432" lon="0.0988">
        <ele>59.708</ele>
        <time>2016-06-02T20:35:53Z</time>
      </trkpt>
      <trkpt lat="47.46409" lon="0.09808">
        <ele>61.362</ele>
        <time>2016-06-02T20:35:33Z</time>
      </trkpt>
      <trkpt lat="47.46502" lon="0.09815">
        <ele>55.222</ele>
        <time>2016-06-02T20:35:13Z</time>
      </trkpt>
      <trkpt lat="47.46536" lon="0.09845">
        <ele>58.57</ele>
        <time>2016-06-02T20:34:53Z</time>
      </trkpt>
      <trkpt lat="47.46566" lon="0.09764">
        <ele>60.961</ele>
        <time>2016-06-02T20:34:33Z</time>
      </trkpt>
      <trkpt lat="47.46684" lon="0.09656">
        <ele>64.035</ele>
        <time>2016-06-02T20:34:13Z</time>
      </trkpt>
      <trkpt lat="47.46799" lon="0.09512">
        <ele>61.023</ele>
        <time>2016-06-02T20:33:53Z</time>
      </trkpt>
      <trkpt lat="47.46915" lon="0.09393">
        <ele>61.097</ele>
        <time>2016-06-02T20:33:33Z</time>
      </trkpt>
      <trkpt lat="47.46895" lon="0.09605">
        <ele>66.024</ele>
        <time>2016-06-02T20:33:13Z</time>
      </trkpt>
      <trkpt lat="47.47092" lon="0.09622">
        <ele>62.029</ele>
        <time>2016-06-02T20:32:53Z</time>
      </trkpt>
      <trkpt lat="47.47227" lon="0.09597">
        <ele>66.723</ele>
        <time>2016-06-02T20:32:33Z</time>
      </trkpt>
      <trkpt lat="47.47294" lon="0.0959">
        <ele>69.508</ele>
        <time>2016-06-02T20:32:13Z</time>
      </trkpt>
      <trkpt lat="47.47358" lon="0.09571">
        <ele>74.821</ele>
        <time>2016-06-02T20:31:53Z</time>
      </trkpt>
      <trkpt lat="47.47458" lon="0.0956">
        <ele>81.556</ele>
        <time>2016-06-02T20:31:33Z</time>
      </trkpt>
      <trkpt lat="47.47606" lon="0.09652">
        <ele>85.274</ele>
        <time>2016-06-02T20:31:13Z</time>
      </trkpt>
      <trkpt lat="47.47715" lon="0.09695">
        <ele>83.065</ele>
        <time>2016-06-02T20:30:53Z</time>
      </trkpt>
      <trkpt lat="47.47761" lon="0.09585">
        <ele>84.966</ele>
        <time>2016-06-02T20:30:33Z</time>
      </trkpt>
      <trkpt lat="47.4786" lon="0.09445">
        <ele>85.92</ele>
        <time>2016-06-02T20:30:13Z</time>
      </trkpt>
      <trkpt lat="47.47885" lon="0.09402">
        <ele>85.538</ele>
        <time>2016-06-02T20:29:53Z</time>
      </trkpt>
      <trkpt lat="47.47934" lon="0.09238">
        <ele>82.332</ele>
        <time>2016-06-02T20:29:33Z</time>
      </trkpt>
      <trkpt lat="47.48073" lon="0.0919">
        <ele>81.939</ele>
        <time>2016-06-02T20:29:13Z</time>
      </trkpt>
      <trkpt lat="47.48097" lon="0.09235">
        <ele>81.634</ele>
        <time>2020-12-24T15:45:15Z</time>
      </trkpt>
      <trkpt lat="47.48117" lon="0.09207">
        <ele>81.158</ele>
        <time>2020-12-24T15:44:55Z</time>
      </trkpt>
      <trkpt lat="47.48282" lon="0.09489">
        <ele>81.108</ele>
        <time>2020-12-24T15:44:35Z</time>
      </trkpt>
      <trkpt lat="47.484" lon="0.09607">
        <ele>81.611</ele>
        <time>2020-12-24T15:44:15Z</time>
      </trkpt>
      <trkpt lat="47.48462" lon="0.09777">
        <ele>81.483</ele>
        <time>2020-12-24T15:43:55Z</time>
      </trkpt>
      <trkpt lat="47.48687" lon="0.10102">
        <ele>81.723</ele>
        <time>2020-12-24T15:43:35Z</time>
      </trkpt>
      <trkpt lat="47.4893" lon="0.10346">
        <ele>82.787</ele>
        <time>2020-12-24T15:43:15Z</time>
      </trkpt>
      <trkpt lat="47.49567" lon="0.10997">
        <ele>86.668</ele>
        <time>2020-12-24T15:42:55Z</time>
      </trkpt>
      <trkpt lat="47.49581" lon="0.10997">
        <ele>86.972</ele>
        <time>2020-12-24T15:42:35Z</time>
      </trkpt>
      <trkpt lat="47.49734" lon="0.11139">
        <ele>85.71</ele>
        <time>2020-12-24T15:42:15Z</time>
      </trkpt>
      <trkpt lat="47.49808" lon="0.11157">
        <ele>85.394</ele>
        <time>2020-12-24T15:41:55Z</time>
      </trkpt>
      <trkpt lat="47.49904" lon="0.11161">
        <ele>86.741</ele>
        <time>2020-12-24T15:41:35Z</time>
      </trkpt>
      <trkpt lat="47.49969" lon="0.11187">
        <ele>85.476</ele>
        <time>2020-12-24T15:41:15Z</time>
      </trkpt>
      <trkpt lat="47.50044" lon="0.11203">
        <ele>83.57</ele>
        <time>2020-12-24T15:40:55Z</time>
      </trkpt>
      <trkpt lat="47.50194" lon="0.11185">
        <ele>80.708</ele>
        <time>2020-12-24T15:40:35Z</time>
      </trkpt>
      <trkpt lat="47.50347" lon="0.11233">
        <ele>80.921</ele>
        <time>2020-12-24T15:40:15Z</time>
      </trkpt>
      <trkpt lat="47.50505" lon="0.11341">
        <ele>81.029</ele>
        <time>2020-12-24T15:39:55Z</time>
      </trkpt>
      <trkpt lat="47.50549" lon="0.11207">
        <ele>81.147</ele>
        <time>2020-12-24T15:39:35Z</time>
      </trkpt>
      <trkpt lat="47.50601" lon="0.11085">
        <ele>83.096</ele>
        <time>2020-12-24T15:39:15Z</time>
      </trkpt>
      <trkpt lat="47.50704" lon="0.11225">
        <ele>82.757</ele>
        <time>2020-12-24T15:38:55Z</time>
      </trkpt>
      <trkpt lat="47.5089" lon="0.11147">
        <ele>82.861</ele>
        <time>2020-12-24T15:38:35Z</time>
      </trkpt>
      <trkpt lat="47.50954" lon="0.11485">
        <ele>83.939</ele>
        <time>2020-12-24T15:38:15Z</time>
      </trkpt>
      <trkpt lat="47.51066" lon="0.11365">
        <ele>84.623</ele>
        <time>2020-12-24T15:37:55Z</time>
      </trkpt>
      <trkpt lat="47.51185" lon="0.11499">
        <ele>84.82</ele>
        <time>2020-12-24T15:37:35Z</time>
      </trkpt>
      <trkpt lat="47.51259" lon="0.11407">
        <ele>85.095</ele>
        <time>2020-12-24T15:37:15Z</time>
      </trkpt>
      <trkpt lat="47.51373" lon="0.11425">
        <ele>83.559</ele>
        <time>2020-12-24T15:36:55Z</time>
      </trkpt>
      <trkpt lat="47.51393" lon="0.11353">
        <ele>82.408</ele>
        <time>2020-12-24T15:36:35Z</time>
      </trkpt>
      <trkpt lat="47.51506" lon="0.11099">
        <ele>82.811</ele>
        <time>2020-12-24T15:36:15Z</time>
      </trkpt>
      <trkpt lat="47.51724" lon="0.10427">
        <ele>84.692</ele>
        <time>2016-06-02T20:11:13Z</time>
      </trkpt>
      <trkpt lat="47.51795" lon="0.10441">
        <ele>84.632</ele>
        <time>2016-06-02T20:10:53Z</time>
      </trkpt>
      <trkpt lat="47.51876" lon="0.10494">
        <ele>84.517</ele>
        <time>2016-06-02T20:10:33Z</time>
      </trkpt>
      <trkpt lat="47.51971" lon="0.10593">
        <ele>82.388</ele>
        <time>2016-06-02T20:10:13Z</time>
      </trkpt>
      <trkpt lat="47.5209" lon="0.1069">
        <ele>85.032</ele>
        <time>2016-06-02T20:09:53Z</time>
      </trkpt>
      <trkpt lat="47.5219" lon="0.10748">
        <ele>84.82</ele>
        <time>2016-06-02T20:09:33Z</time>
      </trkpt>
      <trkpt lat="47.52245" lon="0.10734">
        <ele>85.444</ele>
        <time>2016-06-02T20:09:13Z</time>
      </trkpt>
      <trkpt lat="47.52329" lon="0.10772">
        <ele>83.261</ele>
        <time>2016-06-02T20:08:53Z</time>
      </trkpt>
      <trkpt lat="47.52417" lon="0.10855">
        <ele>81.246</ele>
        <time>2016-06-02T20:08:33Z</time>
      </trkpt>
      <trkpt lat="47.52443" lon="0.10903">
        <ele>81.04</ele>
        <time>2016-06-02T20:08:13Z</time>
      </trkpt>
      <trkpt lat="47.5249" lon="0.11036">
        <ele>82.708</ele>
        <time>2016-06-02T20:07:53Z</time>
      </trkpt>
      <trkpt lat="47.5253" lon="0.11102">
        <ele>80.816</ele>
        <time>2016-06-02T20:07:33Z</time>
      </trkpt>
      <trkpt lat="47.5257" lon="0.11215">
        <ele>79.488</ele>
        <time>2016-06-02T20:07:13Z</time>
      </trkpt>
      <trkpt lat="47.52628" lon="0.11268">
        <ele>78.446</ele>
        <time>2016-06-02T20:06:53Z</time>
      </trkpt>
      <trkpt lat="47.52775" lon="0.11492">
        <ele>76.025</ele>
        <time>2016-06-02T20:06:33Z</time>
      </trkpt>
      <trkpt lat="47.52817" lon="0.11615">
        <ele>75.516</ele>
        <time>2016-06-02T20:06:13Z</time>
      </trkpt>
      <trkpt lat="47.52829" lon="0.11787">
        <ele>74.57</ele>
        <time>2016-06-02T20:05:53Z</time>
      </trkpt>
      <trkpt lat="47.5291" lon="0.11808">
        <ele>76.898</ele>
        <time>2016-06-02T20:05:33Z</time>
      </trkpt>
      <trkpt lat="47.5289" lon="0.11664">
        <ele>76.912</ele>
        <time>2016-06-02T20:05:13Z</time>
      </trkpt>
      <trkpt lat="47.52885" lon="0.1156">
        <ele>75.769</ele>
        <time>2016-06-02T20:04:53Z</time>
      </trkpt>
      <trkpt lat="47.52922" lon="0.11335">
        <ele>76.664</ele>
        <time>2016-06-02T20:04:33Z</time>
      </trkpt>
      <trkpt lat="47.52949" lon="0.11239">
        <ele>77.068</ele>
        <time>2016-06-02T20:04:13Z</time>
      </trkpt>
      <trkpt lat="47.53028" lon="0.11238">
        <ele>76.008</ele>
        <time>2016-06-02T20:03:53Z</time>
      </trkpt>
      <trkpt lat="47.53201" lon="0.11174">
        <ele>74.314</ele>
        <time>2016-06-02T20:03:33Z</time>
      </trkpt>
      <trkpt lat="47.53213" lon="0.11146">
        <ele>74.068</ele>
        <time>2016-06-02T20:03:13Z</time>
      </trkpt>
      <trkpt lat="47.53276" lon="0.11125">
        <ele>73.627</ele>
        <time>2016-06-02T20:02:53Z</time>
      </trkpt>
      <trkpt lat="47.53346" lon="0.11094">
        <ele>72.422</ele>
        <time>2016-06-02T20:02:33Z</time>
      </trkpt>
      <trkpt lat="47.53395" lon="0.11055">
        <ele>74.073</ele>
        <time>2016-06-02T20:02:13Z</time>
      </trkpt>
      <trkpt lat="47.53459" lon="0.11059">
        <ele>75.087</ele>
        <time>2016-06-02T20:01:53Z</time>
      </trkpt>
      <trkpt lat="47.53457" lon="0.11261">
        <ele>77.855</ele>
        <time>2016-06-02T20:01:33Z</time>
      </trkpt>
      <trkpt lat="47.53616" lon="0.1131">
        <ele>78.049</ele>
        <time>2016-06-02T20:01:13Z</time>
      </trkpt>
      <trkpt lat="47.53681" lon="0.11324">
        <ele>78.516</ele>
        <time>2016-06-02T20:00:53Z</time>
      </trkpt>
      <trkpt lat="47.53785" lon="0.11367">
        <ele>79.481</ele>
        <time>2020-12-24T15:25:15Z</time>
      </trkpt>
      <trkpt lat="47.53847" lon="0.11366">
        <ele>78.345</ele>
        <time>2020-12-24T15:24:55Z</time>
      </trkpt>
      <trkpt lat="47.5386" lon="0.11315">
        <ele>78.608</ele>
        <time>2020-12-24T15:24:35Z</time>
      </trkpt>
      <trkpt lat="47.53956" lon="0.11261">
        <ele>79.321</ele>
        <time>2020-12-24T15:24:15Z</time>
      </trkpt>
      <trkpt lat="47.53975" lon="0.112">
        <ele>80.165</ele>
        <time>2020-12-24T15:23:55Z</time>
      </trkpt>
      <trkpt lat="47.54043" lon="0.11195">
        <ele>78.893</ele>
        <time>2020-12-24T15:23:35Z</time>
      </trkpt>
      <trkpt lat="47.54035" lon="0.10964">
        <ele>79.762</ele>
        <time>2020-12-24T15:23:15Z</time>
      </trkpt>
      <trkpt lat="47.54008" lon="0.10865">
        <ele>79.993</ele>
        <time>2020-12-24T15:22:55Z</time>
      </trkpt>
      <trkpt lat="47.54067" lon="0.10856">
        <ele>80.027</ele>
        <time>2016-06-02T19:58:33Z</time>
      </trkpt>
      <trkpt lat="47.54104" lon="0.10794">
        <ele>78.325</ele>
        <time>2016-06-02T19:58:13Z</time>
      </trkpt>
      <trkpt lat="47.54208" lon="0.1076">
        <ele>76.129</ele>
        <time>2016-06-02T19:57:53Z</time>
      </trkpt>
      <trkpt lat="47.5421" lon="0.10622">
        <ele>78.546</ele>
        <time>2016-06-02T19:57:33Z</time>
      </trkpt>
      <trkpt lat="47.54261" lon="0.10572">
        <ele>76.661</ele>
        <time>2016-06-02T19:57:13Z</time>
      </trkpt>
      <trkpt lat="47.54241" lon="0.10483">
        <ele>76.065</ele>
        <time>2016-06-02T19:56:53Z</time>
      </trkpt>
      <trkpt lat="47.54287" lon="0.10467">
        <ele>74.108</ele>
        <time>2016-06-02T19:56:33Z</time>
      </trkpt>
      <trkpt lat="47.54366" lon="0.10462">
        <ele>75.519</ele>
        <time>2016-06-02T19:56:13Z</time>
      </trkpt>
      <trkpt lat="47.54404" lon="0.10479">
        <ele>75.681</ele>
        <time>2016-06-02T19:55:53Z</time>
      </trkpt>
      <trkpt lat="47.54564" lon="0.10436">
        <ele>73.091</ele>
        <time>2016-06-02T19:55:33Z</time>
      </trkpt>
      <trkpt lat="47.54579" lon="0.10498">
        <ele>72.949</ele>
        <time>2016-06-02T19:55:13Z</time>
      </trkpt>
      <trkpt lat="47.546" lon="0.10543">
        <ele>73.99</ele>
        <time>2016-06-02T19:54:53Z</time>
      </trkpt>
      <trkpt lat="47.54616" lon="0.10556">
        <ele>74.014</ele>
        <time>2016-06-02T19:54:33Z</time>
      </trkpt>
      <trkpt lat="47.54753" lon="0.10545">
        <ele>71.942</ele>
        <time>2016-06-02T19:53:33Z</time>
      </trkpt>
      <trkpt lat="47.54777" lon="0.10559">
        <ele>71.156</ele>
        <time>2016-06-02T19:53:13Z</time>
      </trkpt>
      <trkpt lat="47.54836" lon="0.10565">
        <ele>71.073</ele>
        <time>2016-06-02T19:52:33Z</time>
      </trkpt>
      <trkpt lat="47.54911" lon="0.10632">
        <ele>71.668</ele>
        <time>2016-06-02T19:51:53Z</time>
      </trkpt>
      <trkpt lat="47.55064" lon="0.10741">
        <ele>72.272</ele>
        <time>2016-06-02T19:51:33Z</time>
      </trkpt>
      <trkpt lat="47.55316" lon="0.10791">
        <ele>68.808</ele>
        <time>2016-06-02T19:51:13Z</time>
      </trkpt>
      <trkpt lat="47.55472" lon="0.10935">
        <ele>73.016</ele>
        <time>2016-06-02T19:50:53Z</time>
      </trkpt>
      <trkpt lat="47.55505" lon="0.11147">
        <ele>71.806</ele>
        <time>2016-06-02T19:50:33Z</time>
      </trkpt>
      <trkpt lat="47.55506" lon="0.11346">
        <ele>73.664</ele>
        <time>2016-06-02T19:50:13Z</time>
      </trkpt>
      <trkpt lat="47.555" lon="0.1158">
        <ele>73.977</ele>
        <time>2016-06-02T19:49:53Z</time>
      </trkpt>
      <trkpt lat="47.55481" lon="0.11943">
        <ele>74.728</ele>
        <time>2016-06-02T19:48:53Z</time>
      </trkpt>
      <trkpt lat="47.55435" lon="0.11998">
        <ele>74.412</ele>
        <time>2016-06-02T19:48:33Z</time>
      </trkpt>
      <trkpt lat="47.55426" lon="0.12027">
        <ele>74.32</ele>
        <time>2016-06-02T19:48:13Z</time>
      </trkpt>
      <trkpt lat="47.55422" lon="0.12109">
        <ele>76.614</ele>
        <time>2016-06-02T19:47:53Z</time>
      </trkpt>
      <trkpt lat="47.55428" lon="0.12192">
        <ele>75.681</ele>
        <time>2016-06-02T19:47:33Z</time>
      </trkpt>
      <trkpt lat="47.55423" lon="0.12272">
        <ele>75.246</ele>
        <time>2016-06-02T19:47:13Z</time>
      </trkpt>
      <trkpt lat="47.55347" lon="0.12284">
        <ele>73.69</ele>
        <time>2016-06-02T19:46:53Z</time>
      </trkpt>
      <trkpt lat="47.55333" lon="0.12308">
        <ele>75.108</ele>
        <time>2016-06-02T19:46:33Z</time>
      </trkpt>
      <trkpt lat="47.55317" lon="0.12401">
        <ele>74.216</ele>
        <time>2016-06-02T19:46:13Z</time>
      </trkpt>
      <trkpt lat="47.55088" lon="0.12344">
        <ele>70.588</ele>
        <time>2016-06-02T19:45:53Z</time>
      </trkpt>
      <trkpt lat="47.55239" lon="0.12783">
        <ele>70.046</ele>
        <time>2016-06-02T19:45:33Z</time>
      </trkpt>
      <trkpt lat="47.55209" lon="0.12808">
        <ele>70.456</ele>
        <time>2016-06-02T19:45:13Z</time>
      </trkpt>
      <trkpt lat="47.55157" lon="0.13059">
        <ele>62.217</ele>
        <time>2016-06-02T19:44:53Z</time>
      </trkpt>
      <trkpt lat="47.55103" lon="0.13304">
        <ele>76.441</ele>
        <time>2016-06-02T19:44:33Z</time>
      </trkpt>
      <trkpt lat="47.55102" lon="0.13336">
        <ele>76.769</ele>
        <time>2016-06-02T19:44:13Z</time>
      </trkpt>
      <trkpt lat="47.5511" lon="0.13362">
        <ele>77.863</ele>
        <time>2016-06-02T19:43:53Z</time>
      </trkpt>
      <trkpt lat="47.55174" lon="0.13467">
        <ele>77.42</ele>
        <time>2016-06-02T19:43:33Z</time>
      </trkpt>
      <trkpt lat="47.55174" lon="0.13485">
        <ele>77.095</ele>
        <time>2016-06-02T19:43:13Z</time>
      </trkpt>
      <trkpt lat="47.55221" lon="0.135">
        <ele>81.969</ele>
        <time>2016-06-02T19:42:53Z</time>
      </trkpt>
      <trkpt lat="47.55403" lon="0.13745">
        <ele>79.708</ele>
        <time>2016-06-02T19:42:33Z</time>
      </trkpt>
      <trkpt lat="47.5617" lon="0.153">
        <ele>68.215</ele>
        <time>2016-06-02T19:42:13Z</time>
      </trkpt>
      <trkpt lat="47.56232" lon="0.15377">
        <ele>65.023</ele>
        <time>2016-06-02T19:41:33Z</time>
      </trkpt>
      <trkpt lat="47.56269" lon="0.1545">
        <ele>64.933</ele>
        <time>2016-06-02T19:41:13Z</time>
      </trkpt>
      <trkpt lat="47.56375" lon="0.15353">
        <ele>65.719</ele>
        <time>2016-06-02T19:40:53Z</time>
      </trkpt>
      <trkpt lat="47.56489" lon="0.15241">
        <ele>65.74</ele>
        <time>2016-06-02T19:40:33Z</time>
      </trkpt>
      <trkpt lat="47.56543" lon="0.154">
        <ele>64.554</ele>
        <time>2016-06-02T19:40:13Z</time>
      </trkpt>
      <trkpt lat="47.56558" lon="0.15527">
        <ele>63.942</ele>
        <time>2016-06-02T19:39:53Z</time>
      </trkpt>
      <trkpt lat="47.56562" lon="0.1578">
        <ele>61.856</ele>
        <time>2016-06-02T19:39:33Z</time>
      </trkpt>
      <trkpt lat="47.5663" lon="0.15881">
        <ele>60.553</ele>
        <time>2016-06-02T19:39:13Z</time>
      </trkpt>
      <trkpt lat="47.56763" lon="0.15923">
        <ele>61.238</ele>
        <time>2016-06-02T19:38:53Z</time>
      </trkpt>
      <trkpt lat="47.56758" lon="0.16124">
        <ele>66.312</ele>
        <time>2016-06-02T19:38:33Z</time>
      </trkpt>
      <trkpt lat="47.5681" lon="0.16194">
        <ele>70.208</ele>
        <time>2016-06-02T19:38:13Z</time>
      </trkpt>
      <trkpt lat="47.56858" lon="0.16306">
        <ele>74.013</ele>
        <time>2016-06-02T19:37:53Z</time>
      </trkpt>
      <trkpt lat="47.5693" lon="0.16348">
        <ele>71.521</ele>
        <time>2016-06-02T19:36:33Z</time>
      </trkpt>
      <trkpt lat="47.56988" lon="0.16603">
        <ele>72.261</ele>
        <time>2016-06-02T19:36:13Z</time>
      </trkpt>
      <trkpt lat="47.57202" lon="0.17071">
        <ele>78.397</ele>
        <time>2016-06-02T19:35:53Z</time>
      </trkpt>
      <trkpt lat="47.57574" lon="0.16947">
        <ele>71.118</ele>
        <time>2020-12-24T15:02:55Z</time>
      </trkpt>
      <trkpt lat="47.57694" lon="0.16902">
        <ele>73.232</ele>
        <time>2020-12-24T15:02:35Z</time>
      </trkpt>
      <trkpt lat="47.57956" lon="0.16693">
        <ele>73.99</ele>
        <time>2020-12-24T15:02:15Z</time>
      </trkpt>
      <trkpt lat="47.57953" lon="0.16973">
        <ele>73.454</ele>
        <time>2020-12-24T15:01:55Z</time>
      </trkpt>
      <trkpt lat="47.57927" lon="0.17357">
        <ele>76.481</ele>
        <time>2020-12-24T15:01:35Z</time>
      </trkpt>
      <trkpt lat="47.57988" lon="0.17542">
        <ele>80.756</ele>
        <time>2020-12-24T15:01:15Z</time>
      </trkpt>
      <trkpt lat="47.57975" lon="0.17832">
        <ele>80.31</ele>
        <time>2020-12-24T15:00:55Z</time>
      </trkpt>
      <trkpt lat="47.5794" lon="0.17965">
        <ele>78.608</ele>
        <time>2020-12-24T15:00:35Z</time>
      </trkpt>
      <trkpt lat="47.5794" lon="0.18079">
        <ele>78.414</ele>
        <time>2020-12-24T15:00:15Z</time>
      </trkpt>
      <trkpt lat="47.57978" lon="0.18151">
        <ele>78.322</ele>
        <time>2020-12-24T14:59:55Z</time>
      </trkpt>
      <trkpt lat="47.58076" lon="0.18538">
        <ele>84.942</ele>
        <time>2020-12-24T14:59:35Z</time>
      </trkpt>
      <trkpt lat="47.58144" lon="0.19588">
        <ele>98.081</ele>
        <time>2020-12-24T14:59:15Z</time>
      </trkpt>
      <trkpt lat="47.58479" lon="0.1944">
        <ele>102.092</ele>
        <time>2016-06-02T19:23:33Z</time>
      </trkpt>
      <trkpt lat="47.5873" lon="0.19491">
        <ele>108.256</ele>
        <time>2016-06-02T19:23:13Z</time>
      </trkpt>
      <trkpt lat="47.5879" lon="0.19494">
        <ele>110.494</ele>
        <time>2016-06-02T19:22:53Z</time>
      </trkpt>
      <trkpt lat="47.59234" lon="0.18951">
        <ele>112.118</ele>
        <time>2016-06-02T19:22:33Z</time>
      </trkpt>
      <trkpt lat="47.59636" lon="0.1831">
        <ele>104.975</ele>
        <time>2016-06-02T19:22:13Z</time>
      </trkpt>
      <trkpt lat="47.59672" lon="0.18224">
        <ele>108.32</ele>
        <time>2016-06-02T19:21:53Z</time>
      </trkpt>
      <trkpt lat="47.59804" lon="0.18086">
        <ele>114.034</ele>
        <time>2016-06-02T19:21:33Z</time>
      </trkpt>
      <trkpt lat="47.59905" lon="0.18009">
        <ele>115.008</ele>
        <time>2016-06-02T19:21:13Z</time>
      </trkpt>
      <trkpt lat="47.60281" lon="0.17799">
        <ele>97.017</ele>
        <time>2016-06-02T19:20:53Z</time>
      </trkpt>
      <trkpt lat="47.6034" lon="0.17741">
        <ele>88.461</ele>
        <time>2016-06-02T19:20:33Z</time>
      </trkpt>
      <trkpt lat="47.60391" lon="0.17646">
        <ele>81.481</ele>
        <time>2016-06-02T19:20:13Z</time>
      </trkpt>
      <trkpt lat="47.60485" lon="0.17533">
        <ele>75.062</ele>
        <time>2016-06-02T19:19:53Z</time>
      </trkpt>
      <trkpt lat="47.60629" lon="0.17331">
        <ele>70.743</ele>
        <time>2016-06-02T19:19:33Z</time>
      </trkpt>
      <trkpt lat="47.60671" lon="0.17258">
        <ele>70.117</ele>
        <time>2016-06-02T19:19:13Z</time>
      </trkpt>
      <trkpt lat="47.6077" lon="0.17175">
        <ele>69.375</ele>
        <time>2016-06-02T19:18:53Z</time>
      </trkpt>
      <trkpt lat="47.60821" lon="0.17156">
        <ele>70.019</ele>
        <time>2016-06-02T19:18:33Z</time>
      </trkpt>
      <trkpt lat="47.60934" lon="0.17087">
        <ele>72.626</ele>
        <time>2016-06-02T19:18:13Z</time>
      </trkpt>
      <trkpt lat="47.61071" lon="0.17225">
        <ele>74.051</ele>
        <time>2016-06-02T19:17:53Z</time>
      </trkpt>
      <trkpt lat="47.61259" lon="0.17229">
        <ele>75.065</ele>
        <time>2016-06-02T19:17:33Z</time>
      </trkpt>
      <trkpt lat="47.61341" lon="0.1721">
        <ele>75.008</ele>
        <time>2016-06-02T19:17:13Z</time>
      </trkpt>
      <trkpt lat="47.61367" lon="0.17214">
        <ele>74.825</ele>
        <time>2016-06-02T19:16:53Z</time>
      </trkpt>
      <trkpt lat="47.61379" lon="0.17164">
        <ele>74.423</ele>
        <time>2016-06-02T19:16:33Z</time>
      </trkpt>
      <trkpt lat="47.61423" lon="0.17044">
        <ele>74.897</ele>
        <time>2016-06-02T19:16:13Z</time>
      </trkpt>
      <trkpt lat="47.61518" lon="0.16884">
        <ele>66.061</ele>
        <time>2016-06-02T19:15:53Z</time>
      </trkpt>
      <trkpt lat="47.61578" lon="0.16922">
        <ele>64.092</ele>
        <time>2016-06-02T19:15:33Z</time>
      </trkpt>
      <trkpt lat="47.61654" lon="0.16909">
        <ele>54.176</ele>
        <time>2016-06-02T19:15:13Z</time>
      </trkpt>
      <trkpt lat="47.61707" lon="0.16853">
        <ele>46.044</ele>
        <time>2016-06-02T19:14:53Z</time>
      </trkpt>
      <trkpt lat="47.61781" lon="0.16896">
        <ele>44.648</ele>
        <time>2016-06-02T19:14:33Z</time>
      </trkpt>
      <trkpt lat="47.61854" lon="0.16764">
        <ele>41.115</ele>
        <time>2016-06-02T19:14:13Z</time>
      </trkpt>
      <trkpt lat="47.61876" lon="0.16658">
        <ele>45.29</ele>
        <time>2016-06-02T19:13:53Z</time>
      </trkpt>
      <trkpt lat="47.61864" lon="0.16646">
        <ele>45.684</ele>
        <time>2016-06-02T19:13:33Z</time>
      </trkpt>
      <trkpt lat="47.61919" lon="0.16509">
        <ele>55.808</ele>
        <time>2016-06-02T19:13:13Z</time>
      </trkpt>
      <trkpt lat="47.61967" lon="0.16409">
        <ele>63.617</ele>
        <time>2016-06-02T19:12:53Z</time>
      </trkpt>
      <trkpt lat="47.62005" lon="0.16323">
        <ele>66.161</ele>
        <time>2016-06-02T19:12:33Z</time>
      </trkpt>
      <trkpt lat="47.62059" lon="0.1627">
        <ele>63.081</ele>
        <time>2016-06-02T19:12:13Z</time>
      </trkpt>
      <trkpt lat="47.62073" lon="0.16237">
        <ele>63.251</ele>
        <time>2016-06-02T19:11:53Z</time>
      </trkpt>
      <trkpt lat="47.62101" lon="0.16093">
        <ele>60.352</ele>
        <time>2016-06-02T19:11:33Z</time>
      </trkpt>
      <trkpt lat="47.62122" lon="0.15923">
        <ele>61.816</ele>
        <time>2016-06-02T19:11:13Z</time>
      </trkpt>
      <trkpt lat="47.62169" lon="0.15931">
        <ele>60.644</ele>
        <time>2016-06-02T19:10:53Z</time>
      </trkpt>
      <trkpt lat="47.62282" lon="0.15975">
        <ele>66.368</ele>
        <time>2016-06-02T19:10:33Z</time>
      </trkpt>
      <trkpt lat="47.62349" lon="0.15978">
        <ele>69.455</ele>
        <time>2016-06-02T19:10:13Z</time>
      </trkpt>
      <trkpt lat="47.62392" lon="0.15965">
        <ele>71.05</ele>
        <time>2016-06-02T19:09:53Z</time>
      </trkpt>
      <trkpt lat="47.62707" lon="0.15841">
        <ele>69.734</ele>
        <time>2016-06-02T19:09:33Z</time>
      </trkpt>
      <trkpt lat="47.6283" lon="0.15787">
        <ele>65.008</ele>
        <time>2016-06-02T19:09:13Z</time>
      </trkpt>
      <trkpt lat="47.62912" lon="0.15747">
        <ele>62.117</ele>
        <time>2016-06-02T19:08:53Z</time>
      </trkpt>
      <trkpt lat="47.62997" lon="0.15742">
        <ele>62.261</ele>
        <time>2016-06-02T19:08:33Z</time>
      </trkpt>
      <trkpt lat="47.63126" lon="0.15721">
        <ele>58.581</ele>
        <time>2016-06-02T19:08:13Z</time>
      </trkpt>
      <trkpt lat="47.6321" lon="0.15692">
        <ele>55.999</ele>
        <time>2016-06-02T19:07:53Z</time>
      </trkpt>
      <trkpt lat="47.63617" lon="0.15604">
        <ele>50.49</ele>
        <time>2016-06-02T19:07:33Z</time>
      </trkpt>
      <trkpt lat="47.63791" lon="0.15653">
        <ele>54.364</ele>
        <time>2016-06-02T19:07:13Z</time>
      </trkpt>
      <trkpt lat="47.63954" lon="0.15714">
        <ele>50.042</ele>
        <time>2020-12-24T14:42:15Z</time>
      </trkpt>
      <trkpt lat="47.63973" lon="0.15735">
        <ele>51.036</ele>
        <time>2016-06-02T19:06:33Z</time>
      </trkpt>
      <trkpt lat="47.64036" lon="0.15716">
        <ele>47.953</ele>
        <time>2016-06-02T19:06:13Z</time>
      </trkpt>
      <trkpt lat="47.64103" lon="0.15782">
        <ele>46.938</ele>
        <time>2020-12-24T14:41:15Z</time>
      </trkpt>
      <trkpt lat="47.64204" lon="0.15528">
        <ele>48.352</ele>
        <time>2020-12-24T14:40:55Z</time>
      </trkpt>
      <trkpt lat="47.64303" lon="0.15613">
        <ele>47.008</ele>
        <time>2020-12-24T14:40:35Z</time>
      </trkpt>
      <trkpt lat="47.6444" lon="0.15763">
        <ele>44.211</ele>
        <time>2016-06-02T19:04:13Z</time>
      </trkpt>
      <trkpt lat="47.64513" lon="0.15704">
        <ele>44.383</ele>
        <time>2016-06-02T19:03:53Z</time>
      </trkpt>
      <trkpt lat="47.64581" lon="0.15747">
        <ele>49.762</ele>
        <time>2016-06-02T19:03:33Z</time>
      </trkpt>
      <trkpt lat="47.64581" lon="0.15747">
        <ele>49.762</ele>
        <time>2016-06-02T19:03:33Z</time>
      </trkpt>
      <trkpt lat="47.64726" lon="0.15783">
        <ele>51.09</ele>
        <time>2016-06-02T19:03:13Z</time>
      </trkpt>
      <trkpt lat="47.6481" lon="0.15879">
        <ele>44.971</ele>
        <time>2016-06-02T19:02:53Z</time>
      </trkpt>
      <trkpt lat="47.64811" lon="0.1597">
        <ele>43.475</ele>
        <time>2016-06-02T19:02:33Z</time>
      </trkpt>
      <trkpt lat="47.64934" lon="0.16453">
        <ele>37.123</ele>
        <time>2016-06-02T19:02:13Z</time>
      </trkpt>
      <trkpt lat="47.65028" lon="0.16597">
        <ele>36.057</ele>
        <time>2016-06-02T19:01:53Z</time>
      </trkpt>
      <trkpt lat="47.65101" lon="0.16823">
        <ele>37.594</ele>
        <time>2016-06-02T19:01:33Z</time>
      </trkpt>
      <trkpt lat="47.65226" lon="0.17121">
        <ele>37.049</ele>
        <time>2016-06-02T19:01:13Z</time>
      </trkpt>
      <trkpt lat="47.65264" lon="0.17362">
        <ele>35.033</ele>
        <time>2016-06-02T19:00:53Z</time>
      </trkpt>
      <trkpt lat="47.65294" lon="0.1748">
        <ele>35.708</ele>
        <time>2016-06-02T19:00:33Z</time>
      </trkpt>
      <trkpt lat="47.65472" lon="0.17863">
        <ele>37.126</ele>
        <time>2016-06-02T19:00:13Z</time>
      </trkpt>
      <trkpt lat="47.65541" lon="0.1803">
        <ele>38.633</ele>
        <time>2016-06-02T18:59:53Z</time>
      </trkpt>
      <trkpt lat="47.65641" lon="0.1822">
        <ele>37.078</ele>
        <time>2016-06-02T18:59:33Z</time>
      </trkpt>
      <trkpt lat="47.65668" lon="0.18303">
        <ele>35.11</ele>
        <time>2016-06-02T18:59:13Z</time>
      </trkpt>
      <trkpt lat="47.65694" lon="0.18485">
        <ele>38.031</ele>
        <time>2016-06-02T18:58:53Z</time>
      </trkpt>
      <trkpt lat="47.65698" lon="0.18575">
        <ele>36.435</ele>
        <time>2016-06-02T18:58:33Z</time>
      </trkpt>
      <trkpt lat="47.65726" lon="0.18718">
        <ele>37.023</ele>
        <time>2016-06-02T18:58:13Z</time>
      </trkpt>
      <trkpt lat="47.6574" lon="0.18848">
        <ele>37.687</ele>
        <time>2016-06-02T18:57:53Z</time>
      </trkpt>
      <trkpt lat="47.65847" lon="0.19089">
        <ele>42.214</ele>
        <time>2016-06-02T18:57:33Z</time>
      </trkpt>
      <trkpt lat="47.65872" lon="0.19137">
        <ele>45.339</ele>
        <time>2016-06-02T18:57:13Z</time>
      </trkpt>
      <trkpt lat="47.65928" lon="0.19246">
        <ele>58.173</ele>
        <time>2016-06-02T18:56:53Z</time>
      </trkpt>
      <trkpt lat="47.65907" lon="0.19291">
        <ele>58.708</ele>
        <time>2016-06-02T18:56:33Z</time>
      </trkpt>
      <trkpt lat="47.65902" lon="0.19376">
        <ele>65.827</ele>
        <time>2016-06-02T18:56:13Z</time>
      </trkpt>
      <trkpt lat="47.65887" lon="0.19472">
        <ele>72.961</ele>
        <time>2016-06-02T18:55:53Z</time>
      </trkpt>
      <trkpt lat="47.65923" lon="0.19588">
        <ele>74.077</ele>
        <time>2016-06-02T18:55:33Z</time>
      </trkpt>
      <trkpt lat="47.65959" lon="0.19652">
        <ele>76.04</ele>
        <time>2016-06-02T18:55:13Z</time>
      </trkpt>
      <trkpt lat="47.65999" lon="0.19735">
        <ele>80.441</ele>
        <time>2016-06-02T18:54:53Z</time>
      </trkpt>
      <trkpt lat="47.66031" lon="0.19853">
        <ele>85.545</ele>
        <time>2016-06-02T18:54:33Z</time>
      </trkpt>
      <trkpt lat="47.66064" lon="0.19931">
        <ele>83.893</ele>
        <time>2016-06-02T18:54:13Z</time>
      </trkpt>
      <trkpt lat="47.66115" lon="0.20073">
        <ele>80.547</ele>
        <time>2016-06-02T18:53:53Z</time>
      </trkpt>
      <trkpt lat="47.66146" lon="0.20228">
        <ele>85.764</ele>
        <time>2016-06-02T18:53:33Z</time>
      </trkpt>
      <trkpt lat="47.66229" lon="0.20308">
        <ele>86.139</ele>
        <time>2016-06-02T18:53:13Z</time>
      </trkpt>
      <trkpt lat="47.66306" lon="0.20447">
        <ele>90.773</ele>
        <time>2016-06-02T18:52:53Z</time>
      </trkpt>
      <trkpt lat="47.66327" lon="0.20498">
        <ele>85.408</ele>
        <time>2016-06-02T18:52:33Z</time>
      </trkpt>
      <trkpt lat="47.6641" lon="0.20537">
        <ele>79.026</ele>
        <time>2016-06-02T18:52:13Z</time>
      </trkpt>
      <trkpt lat="47.66477" lon="0.20555">
        <ele>75.733</ele>
        <time>2016-06-02T18:51:53Z</time>
      </trkpt>
      <trkpt lat="47.66574" lon="0.20621">
        <ele>70.578</ele>
        <time>2016-06-02T18:51:33Z</time>
      </trkpt>
      <trkpt lat="47.66613" lon="0.20649">
        <ele>68.511</ele>
        <time>2016-06-02T18:51:13Z</time>
      </trkpt>
      <trkpt lat="47.66665" lon="0.20707">
        <ele>67.592</ele>
        <time>2016-06-02T18:50:53Z</time>
      </trkpt>
      <trkpt lat="47.66775" lon="0.20752">
        <ele>67.216</ele>
        <time>2016-06-02T18:50:33Z</time>
      </trkpt>
      <trkpt lat="47.66844" lon="0.20772">
        <ele>75.734</ele>
        <time>2016-06-02T18:50:13Z</time>
      </trkpt>
      <trkpt lat="47.66887" lon="0.20741">
        <ele>79.578</ele>
        <time>2016-06-02T18:49:53Z</time>
      </trkpt>
      <trkpt lat="47.6693" lon="0.2073">
        <ele>81.345</ele>
        <time>2016-06-02T18:49:33Z</time>
      </trkpt>
      <trkpt lat="47.66967" lon="0.20699">
        <ele>78.55</ele>
        <time>2016-06-02T18:49:13Z</time>
      </trkpt>
      <trkpt lat="47.67072" lon="0.20898">
        <ele>87.424</ele>
        <time>2016-06-02T18:48:53Z</time>
      </trkpt>
      <trkpt lat="47.67092" lon="0.20962">
        <ele>94.408</ele>
        <time>2016-06-02T18:48:33Z</time>
      </trkpt>
      <trkpt lat="47.67172" lon="0.2071">
        <ele>88.417</ele>
        <time>2016-06-02T18:48:13Z</time>
      </trkpt>
      <trkpt lat="47.67215" lon="0.20665">
        <ele>86.089</ele>
        <time>2016-06-02T18:47:53Z</time>
      </trkpt>
      <trkpt lat="47.6756" lon="0.20184">
        <ele>80.885</ele>
        <time>2016-06-02T18:47:33Z</time>
      </trkpt>
      <trkpt lat="47.67641" lon="0.19997">
        <ele>80.885</ele>
        <time>2016-06-02T18:47:13Z</time>
      </trkpt>
      <trkpt lat="47.6767" lon="0.1997">
        <ele>79.656</ele>
        <time>2016-06-02T18:46:53Z</time>
      </trkpt>
      <trkpt lat="47.6773" lon="0.19933">
        <ele>76.46</ele>
        <time>2016-06-02T18:46:33Z</time>
      </trkpt>
      <trkpt lat="47.6777" lon="0.19869">
        <ele>78.058</ele>
        <time>2016-06-02T18:46:13Z</time>
      </trkpt>
      <trkpt lat="47.67777" lon="0.19702">
        <ele>84.782</ele>
        <time>2016-06-02T18:45:53Z</time>
      </trkpt>
      <trkpt lat="47.67782" lon="0.19604">
        <ele>80.169</ele>
        <time>2016-06-02T18:45:33Z</time>
      </trkpt>
      <trkpt lat="47.6778" lon="0.1955">
        <ele>77.854</ele>
        <time>2016-06-02T18:45:13Z</time>
      </trkpt>
      <trkpt lat="47.67797" lon="0.19544">
        <ele>77.628</ele>
        <time>2016-06-02T18:44:53Z</time>
      </trkpt>
      <trkpt lat="47.67899" lon="0.1973">
        <ele>79.708</ele>
        <time>2016-06-02T18:44:33Z</time>
      </trkpt>
      <trkpt lat="47.68027" lon="0.19923">
        <ele>79.805</ele>
        <time>2016-06-02T18:44:13Z</time>
      </trkpt>
      <trkpt lat="47.68069" lon="0.1997">
        <ele>82.141</ele>
        <time>2016-06-02T18:43:53Z</time>
      </trkpt>
      <trkpt lat="47.68069" lon="0.1997">
        <ele>82.121</ele>
        <time>2016-06-02T18:43:33Z</time>
      </trkpt>
      <trkpt lat="47.68069" lon="0.1997">
        <ele>82.184</ele>
        <time>2016-06-02T18:43:13Z</time>
      </trkpt>
      <trkpt lat="47.681" lon="0.19992">
        <ele>83.245</ele>
        <time>2016-06-02T18:42:53Z</time>
      </trkpt>
      <trkpt lat="47.68191" lon="0.20032">
        <ele>80.839</ele>
        <time>2016-06-02T18:42:33Z</time>
      </trkpt>
      <trkpt lat="47.68191" lon="0.20032">
        <ele>80.897</ele>
        <time>2016-06-02T18:42:13Z</time>
      </trkpt>
      <trkpt lat="47.68282" lon="0.20186">
        <ele>78.321</ele>
        <time>2016-06-02T18:41:53Z</time>
      </trkpt>
      <trkpt lat="47.68305" lon="0.20127">
        <ele>77.618</ele>
        <time>2016-06-02T18:41:33Z</time>
      </trkpt>
      <trkpt lat="47.68414" lon="0.20056">
        <ele>79.813</ele>
        <time>2016-06-02T18:41:13Z</time>
      </trkpt>
      <trkpt lat="47.68531" lon="0.19999">
        <ele>81.997</ele>
        <time>2016-06-02T18:40:53Z</time>
      </trkpt>
      <trkpt lat="47.68531" lon="0.20039">
        <ele>79.708</ele>
        <time>2016-06-02T18:40:33Z</time>
      </trkpt>
      <trkpt lat="47.68572" lon="0.20103">
        <ele>73.611</ele>
        <time>2016-06-02T18:40:13Z</time>
      </trkpt>
      <trkpt lat="47.68586" lon="0.20169">
        <ele>68.865</ele>
        <time>2016-06-02T18:39:53Z</time>
      </trkpt>
      <trkpt lat="47.68611" lon="0.20191">
        <ele>67.115</ele>
        <time>2016-06-02T18:39:33Z</time>
      </trkpt>
      <trkpt lat="47.68753" lon="0.20377">
        <ele>54.98</ele>
        <time>2016-06-02T18:39:13Z</time>
      </trkpt>
      <trkpt lat="47.68948" lon="0.20119">
        <ele>54.991</ele>
        <time>2016-06-02T18:38:53Z</time>
      </trkpt>
      <trkpt lat="47.69016" lon="0.20252">
        <ele>55.495</ele>
        <time>2016-06-02T18:38:33Z</time>
      </trkpt>
      <trkpt lat="47.69063" lon="0.20295">
        <ele>53.383</ele>
        <time>2016-06-02T18:38:13Z</time>
      </trkpt>
      <trkpt lat="47.69183" lon="0.20356">
        <ele>53.467</ele>
        <time>2016-06-02T18:37:53Z</time>
      </trkpt>
      <trkpt lat="47.69164" lon="0.20478">
        <ele>55.944</ele>
        <time>2016-06-02T18:37:33Z</time>
      </trkpt>
      <trkpt lat="47.69106" lon="0.20532">
        <ele>53.229</ele>
        <time>2016-06-02T18:37:13Z</time>
      </trkpt>
      <trkpt lat="47.69155" lon="0.20661">
        <ele>55.143</ele>
        <time>2016-06-02T18:36:53Z</time>
      </trkpt>
      <trkpt lat="47.69119" lon="0.20809">
        <ele>51.008</ele>
        <time>2016-06-02T18:36:33Z</time>
      </trkpt>
      <trkpt lat="47.69091" lon="0.20854">
        <ele>51.215</ele>
        <time>2016-06-02T18:36:13Z</time>
      </trkpt>
      <trkpt lat="47.69071" lon="0.20935">
        <ele>50.541</ele>
        <time>2016-06-02T18:35:53Z</time>
      </trkpt>
      <trkpt lat="47.69041" lon="0.21011">
        <ele>51.271</ele>
        <time>2016-06-02T18:35:33Z</time>
      </trkpt>
      <trkpt lat="47.69023" lon="0.21147">
        <ele>52.226</ele>
        <time>2016-06-02T18:35:13Z</time>
      </trkpt>
      <trkpt lat="47.69028" lon="0.21227">
        <ele>53.017</ele>
        <time>2016-06-02T18:34:53Z</time>
      </trkpt>
      <trkpt lat="47.69047" lon="0.21298">
        <ele>53.761</ele>
        <time>2016-06-02T18:34:33Z</time>
      </trkpt>
      <trkpt lat="47.69039" lon="0.21354">
        <ele>54.469</ele>
        <time>2016-06-02T18:34:13Z</time>
      </trkpt>
      <trkpt lat="47.69084" lon="0.21389">
        <ele>54.083</ele>
        <time>2016-06-02T18:33:53Z</time>
      </trkpt>
      <trkpt lat="47.69118" lon="0.21429">
        <ele>57.17</ele>
        <time>2016-06-02T18:33:33Z</time>
      </trkpt>
      <trkpt lat="47.69146" lon="0.2148">
        <ele>59.715</ele>
        <time>2016-06-02T18:33:13Z</time>
      </trkpt>
      <trkpt lat="47.6918" lon="0.21494">
        <ele>58.529</ele>
        <time>2016-06-02T18:32:53Z</time>
      </trkpt>
      <trkpt lat="47.69278" lon="0.21596">
        <ele>56.008</ele>
        <time>2016-06-02T18:32:33Z</time>
      </trkpt>
      <trkpt lat="47.69305" lon="0.21647">
        <ele>57.015</ele>
        <time>2016-06-02T18:32:13Z</time>
      </trkpt>
      <trkpt lat="47.69339" lon="0.21698">
        <ele>59.123</ele>
        <time>2016-06-02T18:31:53Z</time>
      </trkpt>
      <trkpt lat="47.69397" lon="0.21702">
        <ele>59.533</ele>
        <time>2016-06-02T18:31:33Z</time>
      </trkpt>
      <trkpt lat="47.69467" lon="0.2175">
        <ele>59.066</ele>
        <time>2016-06-02T18:31:13Z</time>
      </trkpt>
      <trkpt lat="47.69529" lon="0.21791">
        <ele>58.137</ele>
        <time>2016-06-02T18:30:53Z</time>
      </trkpt>
      <trkpt lat="47.69607" lon="0.21821">
        <ele>58.791</ele>
        <time>2016-06-02T18:30:33Z</time>
      </trkpt>
      <trkpt lat="47.69702" lon="0.21875">
        <ele>58.989</ele>
        <time>2016-06-02T18:30:13Z</time>
      </trkpt>
      <trkpt lat="47.69796" lon="0.21946">
        <ele>60.173</ele>
        <time>2016-06-02T18:29:53Z</time>
      </trkpt>
      <trkpt lat="47.69868" lon="0.21978">
        <ele>60.88</ele>
        <time>2016-06-02T18:29:33Z</time>
      </trkpt>
      <trkpt lat="47.69941" lon="0.21998">
        <ele>60.075</ele>
        <time>2016-06-02T18:29:13Z</time>
      </trkpt>
      <trkpt lat="47.70003" lon="0.21986">
        <ele>59.529</ele>
        <time>2016-06-02T18:28:53Z</time>
      </trkpt>
      <trkpt lat="47.70097" lon="0.21915">
        <ele>60.408</ele>
        <time>2016-06-02T18:28:33Z</time>
      </trkpt>
      <trkpt lat="47.70173" lon="0.21888">
        <ele>61.407</ele>
        <time>2016-06-02T18:28:13Z</time>
      </trkpt>
      <trkpt lat="47.702" lon="0.22078">
        <ele>61.661</ele>
        <time>2016-06-02T18:27:53Z</time>
      </trkpt>
      <trkpt lat="47.702" lon="0.22181">
        <ele>58.531</ele>
        <time>2016-06-02T18:27:33Z</time>
      </trkpt>
      <trkpt lat="47.70248" lon="0.22385">
        <ele>59.161</ele>
        <time>2016-06-02T18:27:13Z</time>
      </trkpt>
      <trkpt lat="47.70345" lon="0.22445">
        <ele>58.632</ele>
        <time>2016-06-02T18:26:53Z</time>
      </trkpt>
      <trkpt lat="47.70422" lon="0.22473">
        <ele>59.026</ele>
        <time>2016-06-02T18:26:33Z</time>
      </trkpt>
      <trkpt lat="47.70465" lon="0.22425">
        <ele>60.794</ele>
        <time>2016-06-02T18:26:13Z</time>
      </trkpt>
      <trkpt lat="47.70501" lon="0.22307">
        <ele>62.028</ele>
        <time>2016-06-02T18:25:53Z</time>
      </trkpt>
      <trkpt lat="47.70575" lon="0.22326">
        <ele>63.755</ele>
        <time>2016-06-02T18:25:33Z</time>
      </trkpt>
      <trkpt lat="47.70688" lon="0.22332">
        <ele>72.33</ele>
        <time>2016-06-02T18:25:13Z</time>
      </trkpt>
      <trkpt lat="47.70719" lon="0.22436">
        <ele>76.594</ele>
        <time>2016-06-02T18:24:53Z</time>
      </trkpt>
      <trkpt lat="47.70828" lon="0.22408">
        <ele>79.008</ele>
        <time>2016-06-02T18:24:33Z</time>
      </trkpt>
      <trkpt lat="47.70932" lon="0.22447">
        <ele>79.017</ele>
        <time>2016-06-02T18:24:13Z</time>
      </trkpt>
      <trkpt lat="47.71082" lon="0.22456">
        <ele>80.007</ele>
        <time>2016-06-02T18:23:53Z</time>
      </trkpt>
      <trkpt lat="47.71084" lon="0.22645">
        <ele>77.884</ele>
        <time>2016-06-02T18:23:33Z</time>
      </trkpt>
      <trkpt lat="47.71076" lon="0.22799">
        <ele>78.086</ele>
        <time>2016-06-02T18:23:13Z</time>
      </trkpt>
      <trkpt lat="47.71064" lon="0.22889">
        <ele>76.067</ele>
        <time>2016-06-02T18:22:53Z</time>
      </trkpt>
      <trkpt lat="47.71066" lon="0.22926">
        <ele>75.391</ele>
        <time>2016-06-02T18:22:33Z</time>
      </trkpt>
      <trkpt lat="47.70999" lon="0.22981">
        <ele>74.799</ele>
        <time>2016-06-02T18:22:13Z</time>
      </trkpt>
      <trkpt lat="47.70969" lon="0.23056">
        <ele>72.093</ele>
        <time>2016-06-02T18:21:53Z</time>
      </trkpt>
      <trkpt lat="47.70934" lon="0.23114">
        <ele>69.56</ele>
        <time>2016-06-02T18:21:33Z</time>
      </trkpt>
      <trkpt lat="47.70944" lon="0.2313">
        <ele>69.365</ele>
        <time>2016-06-02T18:20:53Z</time>
      </trkpt>
      <trkpt lat="47.70942" lon="0.2319">
        <ele>68.999</ele>
        <time>2016-06-02T18:20:33Z</time>
      </trkpt>
      <trkpt lat="47.70952" lon="0.23259">
        <ele>68.508</ele>
        <time>2016-06-02T18:20:13Z</time>
      </trkpt>
      <trkpt lat="47.70943" lon="0.23322">
        <ele>70.221</ele>
        <time>2016-06-02T18:19:53Z</time>
      </trkpt>
      <trkpt lat="47.70939" lon="0.23479">
        <ele>76.101</ele>
        <time>2016-06-02T18:19:33Z</time>
      </trkpt>
      <trkpt lat="47.70985" lon="0.23497">
        <ele>76.439</ele>
        <time>2016-06-02T18:19:13Z</time>
      </trkpt>
      <trkpt lat="47.71065" lon="0.2356">
        <ele>79.812</ele>
        <time>2016-06-02T18:18:53Z</time>
      </trkpt>
      <trkpt lat="47.71104" lon="0.2361">
        <ele>86.623</ele>
        <time>2016-06-02T18:18:33Z</time>
      </trkpt>
      <trkpt lat="47.7115" lon="0.23683">
        <ele>90.667</ele>
        <time>2016-06-02T18:18:13Z</time>
      </trkpt>
      <trkpt lat="47.71217" lon="0.23737">
        <ele>89.985</ele>
        <time>2016-06-02T18:17:53Z</time>
      </trkpt>
      <trkpt lat="47.71386" lon="0.23923">
        <ele>87.819</ele>
        <time>2016-06-02T18:17:33Z</time>
      </trkpt>
      <trkpt lat="47.7132" lon="0.24079">
        <ele>85.626</ele>
        <time>2016-06-02T18:17:13Z</time>
      </trkpt>
      <trkpt lat="47.71347" lon="0.24129">
        <ele>85.391</ele>
        <time>2016-06-02T18:16:53Z</time>
      </trkpt>
      <trkpt lat="47.71398" lon="0.24284">
        <ele>83.885</ele>
        <time>2016-06-02T18:16:33Z</time>
      </trkpt>
      <trkpt lat="47.71416" lon="0.24393">
        <ele>80.908</ele>
        <time>2016-06-02T18:16:13Z</time>
      </trkpt>
      <trkpt lat="47.7149" lon="0.24555">
        <ele>75.019</ele>
        <time>2016-06-02T18:15:53Z</time>
      </trkpt>
      <trkpt lat="47.715" lon="0.2466">
        <ele>69.281</ele>
        <time>2016-06-02T18:15:33Z</time>
      </trkpt>
      <trkpt lat="47.71466" lon="0.24774">
        <ele>65.991</ele>
        <time>2016-06-02T18:15:13Z</time>
      </trkpt>
      <trkpt lat="47.71463" lon="0.24832">
        <ele>65.748</ele>
        <time>2016-06-02T18:14:33Z</time>
      </trkpt>
      <trkpt lat="47.71458" lon="0.2495">
        <ele>65.459</ele>
        <time>2016-06-02T18:14:13Z</time>
      </trkpt>
      <trkpt lat="47.71509" lon="0.24937">
        <ele>65.063</ele>
        <time>2016-06-02T18:13:53Z</time>
      </trkpt>
      <trkpt lat="47.7155" lon="0.24965">
        <ele>67.311</ele>
        <time>2016-06-02T18:13:33Z</time>
      </trkpt>
      <trkpt lat="47.71579" lon="0.25014">
        <ele>72.395</ele>
        <time>2016-06-02T18:13:13Z</time>
      </trkpt>
      <trkpt lat="47.71638" lon="0.25052">
        <ele>76.832</ele>
        <time>2016-06-02T18:12:53Z</time>
      </trkpt>
      <trkpt lat="47.71707" lon="0.25131">
        <ele>80.857</ele>
        <time>2016-06-02T18:12:33Z</time>
      </trkpt>
      <trkpt lat="47.71735" lon="0.25245">
        <ele>83.041</ele>
        <time>2016-06-02T18:12:13Z</time>
      </trkpt>
      <trkpt lat="47.71704" lon="0.25318">
        <ele>87.508</ele>
        <time>2016-06-02T18:11:53Z</time>
      </trkpt>
      <trkpt lat="47.71726" lon="0.25404">
        <ele>83.217</ele>
        <time>2016-06-02T18:11:33Z</time>
      </trkpt>
      <trkpt lat="47.7172" lon="0.25485">
        <ele>79.752</ele>
        <time>2016-06-02T18:11:13Z</time>
      </trkpt>
      <trkpt lat="47.71892" lon="0.25827">
        <ele>66.058</ele>
        <time>2016-06-02T18:10:53Z</time>
      </trkpt>
      <trkpt lat="47.71924" lon="0.25908">
        <ele>65.381</ele>
        <time>2016-06-02T18:10:33Z</time>
      </trkpt>
      <trkpt lat="47.71996" lon="0.2592">
        <ele>64.142</ele>
        <time>2016-06-02T18:10:13Z</time>
      </trkpt>
      <trkpt lat="47.7198" lon="0.26015">
        <ele>66.966</ele>
        <time>2016-06-02T18:09:53Z</time>
      </trkpt>
      <trkpt lat="47.71988" lon="0.26145">
        <ele>63.984</ele>
        <time>2016-06-02T18:09:33Z</time>
      </trkpt>
      <trkpt lat="47.71999" lon="0.26431">
        <ele>67.078</ele>
        <time>2016-06-02T18:09:13Z</time>
      </trkpt>
      <trkpt lat="47.71966" lon="0.26546">
        <ele>65.185</ele>
        <time>2016-06-02T18:08:53Z</time>
      </trkpt>
      <trkpt lat="47.72066" lon="0.26639">
        <ele>65.85</ele>
        <time>2016-06-02T18:08:13Z</time>
      </trkpt>
      <trkpt lat="47.7208" lon="0.2668">
        <ele>66.954</ele>
        <time>2016-06-02T18:07:53Z</time>
      </trkpt>
      <trkpt lat="47.72146" lon="0.26719">
        <ele>70.408</ele>
        <time>2016-06-02T18:07:33Z</time>
      </trkpt>
      <trkpt lat="47.72169" lon="0.26792">
        <ele>69.026</ele>
        <time>2016-06-02T18:07:13Z</time>
      </trkpt>
      <trkpt lat="47.7225" lon="0.27017">
        <ele>69.024</ele>
        <time>2016-06-02T18:06:53Z</time>
      </trkpt>
      <trkpt lat="47.72281" lon="0.27203">
        <ele>78.188</ele>
        <time>2016-06-02T18:06:33Z</time>
      </trkpt>
      <trkpt lat="47.72298" lon="0.27409">
        <ele>75.468</ele>
        <time>2016-06-02T18:06:13Z</time>
      </trkpt>
      <trkpt lat="47.72331" lon="0.27554">
        <ele>77.139</ele>
        <time>2016-06-02T18:05:53Z</time>
      </trkpt>
      <trkpt lat="47.7241" lon="0.27739">
        <ele>71.183</ele>
        <time>2016-06-02T18:05:33Z</time>
      </trkpt>
      <trkpt lat="47.72468" lon="0.27844">
        <ele>75.091</ele>
        <time>2016-06-02T18:05:13Z</time>
      </trkpt>
      <trkpt lat="47.72501" lon="0.27925">
        <ele>79.145</ele>
        <time>2016-06-02T18:04:53Z</time>
      </trkpt>
      <trkpt lat="47.72563" lon="0.28108">
        <ele>82.652</ele>
        <time>2016-06-02T18:04:33Z</time>
      </trkpt>
      <trkpt lat="47.72668" lon="0.28326">
        <ele>79.047</ele>
        <time>2016-06-02T18:04:13Z</time>
      </trkpt>
      <trkpt lat="47.72702" lon="0.28383">
        <ele>77.751</ele>
        <time>2016-06-02T18:03:53Z</time>
      </trkpt>
      <trkpt lat="47.72726" lon="0.28433">
        <ele>78.608</ele>
        <time>2016-06-02T18:03:33Z</time>
      </trkpt>
      <trkpt lat="47.72712" lon="0.28493">
        <ele>81.814</ele>
        <time>2016-06-02T18:03:13Z</time>
      </trkpt>
      <trkpt lat="47.72766" lon="0.28588">
        <ele>80.604</ele>
        <time>2016-06-02T18:02:53Z</time>
      </trkpt>
      <trkpt lat="47.72914" lon="0.28389">
        <ele>84.053</ele>
        <time>2016-06-02T18:02:33Z</time>
      </trkpt>
      <trkpt lat="47.72986" lon="0.28335">
        <ele>81.016</ele>
        <time>2016-06-02T18:02:13Z</time>
      </trkpt>
      <trkpt lat="47.73045" lon="0.28341">
        <ele>85.947</ele>
        <time>2016-06-02T18:01:53Z</time>
      </trkpt>
      <trkpt lat="47.73031" lon="0.28294">
        <ele>84.351</ele>
        <time>2016-06-02T18:01:33Z</time>
      </trkpt>
      <trkpt lat="47.73067" lon="0.28263">
        <ele>86.589</ele>
        <time>2016-06-02T18:01:13Z</time>
      </trkpt>
      <trkpt lat="47.73089" lon="0.28314">
        <ele>89.583</ele>
        <time>2016-06-02T18:00:53Z</time>
      </trkpt>
      <trkpt lat="47.7314" lon="0.28299">
        <ele>94.92</ele>
        <time>2016-06-02T18:00:33Z</time>
      </trkpt>
      <trkpt lat="47.73196" lon="0.28251">
        <ele>96.035</ele>
        <time>2016-06-02T18:00:13Z</time>
      </trkpt>
      <trkpt lat="47.73222" lon="0.28256">
        <ele>95.289</ele>
        <time>2016-06-02T17:59:53Z</time>
      </trkpt>
      <trkpt lat="47.73385" lon="0.28036">
        <ele>85.508</ele>
        <time>2016-06-02T17:59:33Z</time>
      </trkpt>
      <trkpt lat="47.73599" lon="0.27839">
        <ele>77.014</ele>
        <time>2016-06-02T17:59:13Z</time>
      </trkpt>
      <trkpt lat="47.73599" lon="0.27839">
        <ele>77.086</ele>
        <time>2016-06-02T17:58:53Z</time>
      </trkpt>
      <trkpt lat="47.7382" lon="0.2776">
        <ele>82.035</ele>
        <time>2016-06-02T17:58:33Z</time>
      </trkpt>
      <trkpt lat="47.7391" lon="0.27712">
        <ele>91.325</ele>
        <time>2016-06-02T17:58:13Z</time>
      </trkpt>
      <trkpt lat="47.74006" lon="0.27727">
        <ele>99.396</ele>
        <time>2016-06-02T17:57:53Z</time>
      </trkpt>
      <trkpt lat="47.74053" lon="0.27715">
        <ele>101.91</ele>
        <time>2016-06-02T17:57:33Z</time>
      </trkpt>
      <trkpt lat="47.74114" lon="0.27669">
        <ele>103.018</ele>
        <time>2016-06-02T17:56:33Z</time>
      </trkpt>
      <trkpt lat="47.74247" lon="0.27527">
        <ele>102.282</ele>
        <time>2016-06-02T17:56:13Z</time>
      </trkpt>
      <trkpt lat="47.74278" lon="0.27517">
        <ele>98.089</ele>
        <time>2016-06-02T17:55:53Z</time>
      </trkpt>
      <trkpt lat="47.74313" lon="0.27588">
        <ele>96.564</ele>
        <time>2016-06-02T17:55:33Z</time>
      </trkpt>
      <trkpt lat="47.7435" lon="0.27689">
        <ele>94.478</ele>
        <time>2016-06-02T17:55:13Z</time>
      </trkpt>
      <trkpt lat="47.74431" lon="0.27677">
        <ele>90.508</ele>
        <time>2016-06-02T17:54:53Z</time>
      </trkpt>
      <trkpt lat="47.7444" lon="0.27658">
        <ele>89.805</ele>
        <time>2016-06-02T17:54:33Z</time>
      </trkpt>
      <trkpt lat="47.74471" lon="0.27642">
        <ele>88.241</ele>
        <time>2016-06-02T17:54:13Z</time>
      </trkpt>
      <trkpt lat="47.74623" lon="0.27593">
        <ele>82.021</ele>
        <time>2016-06-02T17:53:53Z</time>
      </trkpt>
      <trkpt lat="47.74801" lon="0.27518">
        <ele>82.499</ele>
        <time>2016-06-02T17:53:33Z</time>
      </trkpt>
      <trkpt lat="47.74896" lon="0.275">
        <ele>85.73</ele>
        <time>2016-06-02T17:53:13Z</time>
      </trkpt>
      <trkpt lat="47.7494" lon="0.27477">
        <ele>82.454</ele>
        <time>2016-06-02T17:52:53Z</time>
      </trkpt>
      <trkpt lat="47.75062" lon="0.27461">
        <ele>83.392</ele>
        <time>2016-06-02T17:52:33Z</time>
      </trkpt>
      <trkpt lat="47.75102" lon="0.27447">
        <ele>83.166</ele>
        <time>2016-06-02T17:52:13Z</time>
      </trkpt>
      <trkpt lat="47.75201" lon="0.27342">
        <ele>83.393</ele>
        <time>2016-06-02T17:51:53Z</time>
      </trkpt>
      <trkpt lat="47.75269" lon="0.27314">
        <ele>82.748</ele>
        <time>2016-06-02T17:51:33Z</time>
      </trkpt>
      <trkpt lat="47.75344" lon="0.27333">
        <ele>84.652</ele>
        <time>2016-06-02T17:51:13Z</time>
      </trkpt>
      <trkpt lat="47.75404" lon="0.27284">
        <ele>82.108</ele>
        <time>2016-06-02T17:50:53Z</time>
      </trkpt>
      <trkpt lat="47.75516" lon="0.27244">
        <ele>77.021</ele>
        <time>2016-06-02T17:50:33Z</time>
      </trkpt>
      <trkpt lat="47.75624" lon="0.27237">
        <ele>75.029</ele>
        <time>2020-12-24T13:27:55Z</time>
      </trkpt>
      <trkpt lat="47.75757" lon="0.27211">
        <ele>73.566</ele>
        <time>2020-12-24T13:27:35Z</time>
      </trkpt>
      <trkpt lat="47.75806" lon="0.27304">
        <ele>74.886</ele>
        <time>2020-12-24T13:27:15Z</time>
      </trkpt>
      <trkpt lat="47.7584" lon="0.27333">
        <ele>76.167</ele>
        <time>2020-12-24T13:26:55Z</time>
      </trkpt>
      <trkpt lat="47.75823" lon="0.27412">
        <ele>75.981</ele>
        <time>2020-12-24T13:26:35Z</time>
      </trkpt>
      <trkpt lat="47.75936" lon="0.27432">
        <ele>79.289</ele>
        <time>2020-12-24T13:26:15Z</time>
      </trkpt>
      <trkpt lat="47.7594" lon="0.27478">
        <ele>79.923</ele>
        <time>2020-12-24T13:25:55Z</time>
      </trkpt>
      <trkpt lat="47.75955" lon="0.27535">
        <ele>80.92</ele>
        <time>2020-12-24T13:25:35Z</time>
      </trkpt>
      <trkpt lat="47.75975" lon="0.27655">
        <ele>80.695</ele>
        <time>2020-12-24T13:25:15Z</time>
      </trkpt>
      <trkpt lat="47.75984" lon="0.27753">
        <ele>81.819</ele>
        <time>2020-12-24T13:24:55Z</time>
      </trkpt>
      <trkpt lat="47.76" lon="0.2795">
        <ele>83.608</ele>
        <time>2020-12-24T13:24:35Z</time>
      </trkpt>
      <trkpt lat="47.76008" lon="0.28123">
        <ele>84.021</ele>
        <time>2020-12-24T13:24:15Z</time>
      </trkpt>
      <trkpt lat="47.761" lon="0.28114">
        <ele>84.201</ele>
        <time>2020-12-24T13:23:55Z</time>
      </trkpt>
      <trkpt lat="47.76117" lon="0.2808">
        <ele>84.039</ele>
        <time>2020-12-24T13:23:35Z</time>
      </trkpt>
      <trkpt lat="47.76172" lon="0.28073">
        <ele>84.347</ele>
        <time>2020-12-24T13:23:15Z</time>
      </trkpt>
      <trkpt lat="47.76172" lon="0.28039">
        <ele>84.758</ele>
        <time>2020-12-24T13:22:55Z</time>
      </trkpt>
      <trkpt lat="47.76207" lon="0.28029">
        <ele>85.572</ele>
        <time>2020-12-24T13:22:35Z</time>
      </trkpt>
      <trkpt lat="47.76246" lon="0.2819">
        <ele>84.43</ele>
        <time>2020-12-24T13:22:15Z</time>
      </trkpt>
      <trkpt lat="47.76258" lon="0.28292">
        <ele>82.614</ele>
        <time>2020-12-24T13:21:55Z</time>
      </trkpt>
      <trkpt lat="47.76259" lon="0.28352">
        <ele>82.631</ele>
        <time>2020-12-24T13:21:35Z</time>
      </trkpt>
      <trkpt lat="47.76239" lon="0.28436">
        <ele>84.586</ele>
        <time>2020-12-24T13:21:15Z</time>
      </trkpt>
      <trkpt lat="47.76251" lon="0.2848">
        <ele>86.31</ele>
        <time>2020-12-24T13:20:55Z</time>
      </trkpt>
      <trkpt lat="47.76251" lon="0.28545">
        <ele>89.208</ele>
        <time>2020-12-24T13:20:35Z</time>
      </trkpt>
      <trkpt lat="47.76244" lon="0.28571">
        <ele>90.321</ele>
        <time>2020-12-24T13:20:15Z</time>
      </trkpt>
      <trkpt lat="47.76261" lon="0.28627">
        <ele>92.529</ele>
        <time>2020-12-24T13:19:55Z</time>
      </trkpt>
      <trkpt lat="47.76272" lon="0.28695">
        <ele>95.747</ele>
        <time>2020-12-24T13:19:35Z</time>
      </trkpt>
      <trkpt lat="47.76225" lon="0.28711">
        <ele>94.689</ele>
        <time>2020-12-24T13:19:15Z</time>
      </trkpt>
      <trkpt lat="47.76231" lon="0.2875">
        <ele>96.69</ele>
        <time>2020-12-24T13:18:55Z</time>
      </trkpt>
      <trkpt lat="47.7614" lon="0.28745">
        <ele>90.664</ele>
        <time>2020-12-24T13:18:35Z</time>
      </trkpt>
      <trkpt lat="47.76134" lon="0.2872">
        <ele>89.842</ele>
        <time>2016-06-02T17:47:13Z</time>
      </trkpt>
      <trkpt lat="47.76114" lon="0.28739">
        <ele>89.176</ele>
        <time>2016-06-02T17:46:53Z</time>
      </trkpt>
      <trkpt lat="47.76112" lon="0.28783">
        <ele>89.223</ele>
        <time>2016-06-02T17:46:33Z</time>
      </trkpt>
      <trkpt lat="47.76118" lon="0.28893">
        <ele>90.328</ele>
        <time>2016-06-02T17:46:13Z</time>
      </trkpt>
      <trkpt lat="47.76078" lon="0.28901">
        <ele>88.092</ele>
        <time>2016-06-02T17:45:53Z</time>
      </trkpt>
      <trkpt lat="47.75965" lon="0.28961">
        <ele>87.708</ele>
        <time>2016-06-02T17:45:33Z</time>
      </trkpt>
      <trkpt lat="47.75792" lon="0.29043">
        <ele>90.611</ele>
        <time>2016-06-02T17:42:53Z</time>
      </trkpt>
      <trkpt lat="47.75794" lon="0.29146">
        <ele>95.783</ele>
        <time>2016-06-02T17:42:33Z</time>
      </trkpt>
      <trkpt lat="47.75886" lon="0.29462">
        <ele>102.362</ele>
        <time>2016-06-02T17:42:13Z</time>
      </trkpt>
      <trkpt lat="47.75859" lon="0.29505">
        <ele>105.595</ele>
        <time>2016-06-02T17:41:53Z</time>
      </trkpt>
      <trkpt lat="47.75808" lon="0.29569">
        <ele>111.346</ele>
        <time>2016-06-02T17:41:33Z</time>
      </trkpt>
      <trkpt lat="47.75728" lon="0.29588">
        <ele>116.03</ele>
        <time>2016-06-02T17:41:13Z</time>
      </trkpt>
      <trkpt lat="47.75728" lon="0.29623">
        <ele>116.418</ele>
        <time>2016-06-02T17:40:53Z</time>
      </trkpt>
      <trkpt lat="47.75656" lon="0.29944">
        <ele>119.692</ele>
        <time>2016-06-02T17:40:33Z</time>
      </trkpt>
      <trkpt lat="47.75595" lon="0.30208">
        <ele>121.699</ele>
        <time>2016-06-02T17:40:13Z</time>
      </trkpt>
      <trkpt lat="47.75546" lon="0.30377">
        <ele>123.844</ele>
        <time>2016-06-02T17:39:53Z</time>
      </trkpt>
      <trkpt lat="47.75507" lon="0.30565">
        <ele>129.168</ele>
        <time>2016-06-02T17:39:33Z</time>
      </trkpt>
      <trkpt lat="47.75493" lon="0.3073">
        <ele>131.008</ele>
        <time>2016-06-02T17:39:13Z</time>
      </trkpt>
      <trkpt lat="47.75503" lon="0.30819">
        <ele>131.92</ele>
        <time>2016-06-02T17:38:53Z</time>
      </trkpt>
      <trkpt lat="47.75525" lon="0.30893">
        <ele>131.3</ele>
        <time>2016-06-02T17:38:33Z</time>
      </trkpt>
      <trkpt lat="47.75568" lon="0.31198">
        <ele>137.229</ele>
        <time>2016-06-02T17:38:13Z</time>
      </trkpt>
      <trkpt lat="47.75574" lon="0.31281">
        <ele>138.155</ele>
        <time>2016-06-02T17:37:53Z</time>
      </trkpt>
      <trkpt lat="47.75604" lon="0.31514">
        <ele>134.696</ele>
        <time>2016-06-02T17:37:33Z</time>
      </trkpt>
      <trkpt lat="47.75605" lon="0.31676">
        <ele>134.92</ele>
        <time>2016-06-02T17:37:13Z</time>
      </trkpt>
      <trkpt lat="47.75574" lon="0.3176">
        <ele>134.258</ele>
        <time>2016-06-02T17:36:53Z</time>
      </trkpt>
      <trkpt lat="47.75639" lon="0.31846">
        <ele>137.512</ele>
        <time>2016-06-02T17:36:33Z</time>
      </trkpt>
      <trkpt lat="47.7572" lon="0.31894">
        <ele>135.319</ele>
        <time>2016-06-02T17:36:13Z</time>
      </trkpt>
      <trkpt lat="47.75756" lon="0.31866">
        <ele>133.444</ele>
        <time>2016-06-02T17:35:53Z</time>
      </trkpt>
      <trkpt lat="47.75774" lon="0.31897">
        <ele>134.098</ele>
        <time>2016-06-02T17:35:33Z</time>
      </trkpt>
      <trkpt lat="47.75784" lon="0.31982">
        <ele>136.808</ele>
        <time>2016-06-02T17:35:13Z</time>
      </trkpt>
      <trkpt lat="47.75818" lon="0.32169">
        <ele>142.511</ele>
        <time>2016-06-02T17:34:53Z</time>
      </trkpt>
      <trkpt lat="47.75812" lon="0.3226">
        <ele>145.147</ele>
        <time>2016-06-02T17:34:33Z</time>
      </trkpt>
      <trkpt lat="47.75818" lon="0.32359">
        <ele>147.826</ele>
        <time>2016-06-02T17:34:13Z</time>
      </trkpt>
      <trkpt lat="47.75746" lon="0.32521">
        <ele>149.727</ele>
        <time>2016-06-02T17:33:53Z</time>
      </trkpt>
      <trkpt lat="47.75726" lon="0.32594">
        <ele>152.688</ele>
        <time>2016-06-02T17:33:33Z</time>
      </trkpt>
      <trkpt lat="47.75725" lon="0.32711">
        <ele>160.192</ele>
        <time>2016-06-02T17:33:13Z</time>
      </trkpt>
      <trkpt lat="47.76011" lon="0.33228">
        <ele>160.79</ele>
        <time>2016-06-02T17:32:53Z</time>
      </trkpt>
      <trkpt lat="47.75896" lon="0.33935">
        <ele>159.524</ele>
        <time>2016-06-02T17:32:33Z</time>
      </trkpt>
      <trkpt lat="47.75815" lon="0.33901">
        <ele>159.351</ele>
        <time>2016-06-02T17:32:13Z</time>
      </trkpt>
      <trkpt lat="47.75699" lon="0.34568">
        <ele>152.466</ele>
        <time>2016-06-02T17:31:53Z</time>
      </trkpt>
      <trkpt lat="47.75477" lon="0.34632">
        <ele>146.43</ele>
        <time>2016-06-02T17:31:33Z</time>
      </trkpt>
      <trkpt lat="47.75364" lon="0.34718">
        <ele>143.108</ele>
        <time>2016-06-02T17:31:13Z</time>
      </trkpt>
      <trkpt lat="47.75361" lon="0.34784">
        <ele>143.211</ele>
        <time>2016-06-02T17:30:53Z</time>
      </trkpt>
      <trkpt lat="47.7537" lon="0.34839">
        <ele>146.047</ele>
        <time>2016-06-02T17:30:33Z</time>
      </trkpt>
      <trkpt lat="47.75448" lon="0.34969">
        <ele>155.545</ele>
        <time>2016-06-02T17:30:13Z</time>
      </trkpt>
      <trkpt lat="47.7548" lon="0.35054">
        <ele>153.637</ele>
        <time>2016-06-02T17:29:53Z</time>
      </trkpt>
      <trkpt lat="47.75489" lon="0.35179">
        <ele>155.168</ele>
        <time>2016-06-02T17:29:33Z</time>
      </trkpt>
      <trkpt lat="47.75546" lon="0.35367">
        <ele>156.282</ele>
        <time>2016-06-02T17:29:13Z</time>
      </trkpt>
      <trkpt lat="47.75587" lon="0.35559">
        <ele>153.83</ele>
        <time>2016-06-02T17:28:53Z</time>
      </trkpt>
      <trkpt lat="47.75594" lon="0.35722">
        <ele>154.584</ele>
        <time>2016-06-02T17:28:33Z</time>
      </trkpt>
      <trkpt lat="47.75634" lon="0.35855">
        <ele>154.121</ele>
        <time>2016-06-02T17:28:13Z</time>
      </trkpt>
      <trkpt lat="47.7566" lon="0.35894">
        <ele>152.546</ele>
        <time>2016-06-02T17:27:53Z</time>
      </trkpt>
      <trkpt lat="47.75716" lon="0.36021">
        <ele>146.19</ele>
        <time>2016-06-02T17:27:33Z</time>
      </trkpt>
      <trkpt lat="47.75973" lon="0.35765">
        <ele>155.908</ele>
        <time>2016-06-02T17:27:13Z</time>
      </trkpt>
      <trkpt lat="47.7699" lon="0.35981">
        <ele>152.321</ele>
        <time>2016-06-02T17:26:53Z</time>
      </trkpt>
      <trkpt lat="47.77028" lon="0.35854">
        <ele>148.229</ele>
        <time>2016-06-02T17:26:33Z</time>
      </trkpt>
      <trkpt lat="47.77058" lon="0.35856">
        <ele>147.547</ele>
        <time>2016-06-02T17:26:13Z</time>
      </trkpt>
      <trkpt lat="47.7709" lon="0.36008">
        <ele>144.824</ele>
        <time>2016-06-02T17:25:53Z</time>
      </trkpt>
      <trkpt lat="47.77375" lon="0.36072">
        <ele>145.215</ele>
        <time>2016-06-02T17:25:33Z</time>
      </trkpt>
      <trkpt lat="47.77419" lon="0.35993">
        <ele>149.489</ele>
        <time>2016-06-02T17:25:13Z</time>
      </trkpt>
      <trkpt lat="47.77463" lon="0.36095">
        <ele>148.257</ele>
        <time>2016-06-02T17:24:53Z</time>
      </trkpt>
      <trkpt lat="47.77798" lon="0.36164">
        <ele>159.491</ele>
        <time>2016-06-02T17:24:33Z</time>
      </trkpt>
      <trkpt lat="47.77853" lon="0.36098">
        <ele>162.588</ele>
        <time>2016-06-02T17:24:13Z</time>
      </trkpt>
      <trkpt lat="47.77886" lon="0.36109">
        <ele>160.243</ele>
        <time>2016-06-02T17:23:53Z</time>
      </trkpt>
      <trkpt lat="47.77897" lon="0.36185">
        <ele>156.467</ele>
        <time>2016-06-02T17:23:33Z</time>
      </trkpt>
      <trkpt lat="47.77928" lon="0.36196">
        <ele>153.808</ele>
        <time>2016-06-02T17:23:13Z</time>
      </trkpt>
      <trkpt lat="47.78617" lon="0.36349">
        <ele>160.013</ele>
        <time>2016-06-02T17:22:53Z</time>
      </trkpt>
      <trkpt lat="47.78645" lon="0.36357">
        <ele>161.576</ele>
        <time>2020-12-24T12:55:55Z</time>
      </trkpt>
      <trkpt lat="47.7873" lon="0.3659">
        <ele>165.216</ele>
        <time>2020-12-24T12:55:35Z</time>
      </trkpt>
      <trkpt lat="47.78728" lon="0.36659">
        <ele>164.541</ele>
        <time>2020-12-24T12:55:15Z</time>
      </trkpt>
      <trkpt lat="47.78746" lon="0.36722">
        <ele>163.542</ele>
        <time>2020-12-24T12:54:55Z</time>
      </trkpt>
      <trkpt lat="47.78836" lon="0.3676">
        <ele>166.056</ele>
        <time>2020-12-24T12:54:35Z</time>
      </trkpt>
      <trkpt lat="47.78929" lon="0.36835">
        <ele>164.834</ele>
        <time>2020-12-24T12:54:15Z</time>
      </trkpt>
      <trkpt lat="47.78963" lon="0.3684">
        <ele>161.888</ele>
        <time>2020-12-24T12:53:55Z</time>
      </trkpt>
      <trkpt lat="47.79042" lon="0.36871">
        <ele>159.285</ele>
        <time>2020-12-24T12:53:35Z</time>
      </trkpt>
      <trkpt lat="47.79057" lon="0.37008">
        <ele>155.99</ele>
        <time>2020-12-24T12:53:15Z</time>
      </trkpt>
      <trkpt lat="47.79099" lon="0.37194">
        <ele>143.254</ele>
        <time>2020-12-24T12:52:55Z</time>
      </trkpt>
      <trkpt lat="47.79145" lon="0.37208">
        <ele>143.608</ele>
        <time>2020-12-24T12:52:35Z</time>
      </trkpt>
      <trkpt lat="47.7929" lon="0.37154">
        <ele>148.126</ele>
        <time>2020-12-24T12:52:15Z</time>
      </trkpt>
      <trkpt lat="47.7943" lon="0.37155">
        <ele>148.542</ele>
        <time>2020-12-24T12:51:55Z</time>
      </trkpt>
      <trkpt lat="47.79422" lon="0.37218">
        <ele>142.687</ele>
        <time>2020-12-24T12:51:35Z</time>
      </trkpt>
      <trkpt lat="47.79437" lon="0.37263">
        <ele>142.525</ele>
        <time>2020-12-24T12:51:15Z</time>
      </trkpt>
      <trkpt lat="47.79491" lon="0.37266">
        <ele>145.916</ele>
        <time>2020-12-24T12:50:55Z</time>
      </trkpt>
      <trkpt lat="47.79557" lon="0.37258">
        <ele>146.82</ele>
        <time>2016-06-02T17:13:33Z</time>
      </trkpt>
      <trkpt lat="47.79624" lon="0.37269">
        <ele>143.048</ele>
        <time>2016-06-02T17:13:13Z</time>
      </trkpt>
      <trkpt lat="47.79657" lon="0.37241">
        <ele>143.112</ele>
        <time>2016-06-02T17:12:53Z</time>
      </trkpt>
      <trkpt lat="47.79714" lon="0.37247">
        <ele>144.559</ele>
        <time>2016-06-02T17:12:33Z</time>
      </trkpt>
      <trkpt lat="47.79784" lon="0.37239">
        <ele>156.674</ele>
        <time>2016-06-02T17:12:13Z</time>
      </trkpt>
      <trkpt lat="47.7981" lon="0.37202">
        <ele>157.848</ele>
        <time>2016-06-02T17:11:53Z</time>
      </trkpt>
      <trkpt lat="47.79889" lon="0.37233">
        <ele>149.608</ele>
        <time>2016-06-02T17:11:33Z</time>
      </trkpt>
      <trkpt lat="47.79951" lon="0.37294">
        <ele>149.605</ele>
        <time>2016-06-02T17:11:13Z</time>
      </trkpt>
      <trkpt lat="47.80363" lon="0.37109">
        <ele>165.141</ele>
        <time>2016-06-02T17:10:53Z</time>
      </trkpt>
      <trkpt lat="47.80363" lon="0.37109">
        <ele>165.121</ele>
        <time>2016-06-02T17:10:33Z</time>
      </trkpt>
      <trkpt lat="47.80293" lon="0.36725">
        <ele>168.598</ele>
        <time>2016-06-02T17:10:13Z</time>
      </trkpt>
      <trkpt lat="47.80452" lon="0.36504">
        <ele>170.449</ele>
        <time>2016-06-02T17:09:53Z</time>
      </trkpt>
      <trkpt lat="47.80782" lon="0.36084">
        <ele>169.593</ele>
        <time>2016-06-02T17:09:33Z</time>
      </trkpt>
      <trkpt lat="47.80847" lon="0.35993">
        <ele>160.511</ele>
        <time>2016-06-02T17:09:13Z</time>
      </trkpt>
      <trkpt lat="47.80968" lon="0.35699">
        <ele>150.985</ele>
        <time>2016-06-02T17:08:53Z</time>
      </trkpt>
      <trkpt lat="47.80947" lon="0.35677">
        <ele>150.062</ele>
        <time>2016-06-02T17:08:33Z</time>
      </trkpt>
      <trkpt lat="47.80912" lon="0.35453">
        <ele>141.487</ele>
        <time>2016-06-02T17:08:13Z</time>
      </trkpt>
      <trkpt lat="47.80905" lon="0.35369">
        <ele>143.041</ele>
        <time>2016-06-02T17:07:53Z</time>
      </trkpt>
      <trkpt lat="47.80924" lon="0.35261">
        <ele>146.208</ele>
        <time>2016-06-02T17:07:33Z</time>
      </trkpt>
      <trkpt lat="47.80912" lon="0.35217">
        <ele>147.923</ele>
        <time>2016-06-02T17:07:13Z</time>
      </trkpt>
      <trkpt lat="47.80903" lon="0.35085">
        <ele>148.003</ele>
        <time>2016-06-02T17:06:53Z</time>
      </trkpt>
      <trkpt lat="47.80913" lon="0.35039">
        <ele>147.859</ele>
        <time>2016-06-02T17:06:33Z</time>
      </trkpt>
      <trkpt lat="47.80976" lon="0.34993">
        <ele>146.27</ele>
        <time>2016-06-02T17:06:13Z</time>
      </trkpt>
      <trkpt lat="47.80979" lon="0.34957">
        <ele>146.511</ele>
        <time>2016-06-02T17:05:53Z</time>
      </trkpt>
      <trkpt lat="47.80844" lon="0.34803">
        <ele>155.065</ele>
        <time>2016-06-02T17:05:33Z</time>
      </trkpt>
      <trkpt lat="47.80936" lon="0.34694">
        <ele>151.673</ele>
        <time>2016-06-02T17:05:13Z</time>
      </trkpt>
      <trkpt lat="47.81124" lon="0.34513">
        <ele>143.477</ele>
        <time>2016-06-02T17:04:53Z</time>
      </trkpt>
      <trkpt lat="47.81291" lon="0.34319">
        <ele>139.234</ele>
        <time>2016-06-02T17:04:33Z</time>
      </trkpt>
      <trkpt lat="47.81439" lon="0.34191">
        <ele>133.239</ele>
        <time>2016-06-02T17:04:13Z</time>
      </trkpt>
      <trkpt lat="47.81504" lon="0.34048">
        <ele>116.293</ele>
        <time>2016-06-02T17:03:53Z</time>
      </trkpt>
      <trkpt lat="47.81635" lon="0.33936">
        <ele>102.108</ele>
        <time>2016-06-02T17:03:33Z</time>
      </trkpt>
      <trkpt lat="47.8171" lon="0.33903">
        <ele>103.814</ele>
        <time>2016-06-02T17:03:13Z</time>
      </trkpt>
      <trkpt lat="47.81721" lon="0.33929">
        <ele>103.513</ele>
        <time>2016-06-02T17:02:53Z</time>
      </trkpt>
      <trkpt lat="47.81763" lon="0.33964">
        <ele>107.272</ele>
        <time>2016-06-02T17:02:33Z</time>
      </trkpt>
      <trkpt lat="47.81872" lon="0.34002">
        <ele>111.386</ele>
        <time>2016-06-02T17:02:13Z</time>
      </trkpt>
      <trkpt lat="47.81869" lon="0.33893">
        <ele>113.167</ele>
        <time>2016-06-02T17:01:53Z</time>
      </trkpt>
      <trkpt lat="47.81845" lon="0.33721">
        <ele>117.531</ele>
        <time>2016-06-02T17:01:33Z</time>
      </trkpt>
      <trkpt lat="47.81864" lon="0.33671">
        <ele>120.199</ele>
        <time>2016-06-02T17:01:13Z</time>
      </trkpt>
      <trkpt lat="47.81916" lon="0.33576">
        <ele>126.783</ele>
        <time>2016-06-02T17:00:53Z</time>
      </trkpt>
      <trkpt lat="47.81949" lon="0.33534">
        <ele>128.26</ele>
        <time>2016-06-02T17:00:33Z</time>
      </trkpt>
      <trkpt lat="47.82036" lon="0.33507">
        <ele>136.635</ele>
        <time>2016-06-02T17:00:13Z</time>
      </trkpt>
      <trkpt lat="47.8215" lon="0.3353">
        <ele>144.779</ele>
        <time>2016-06-02T16:59:53Z</time>
      </trkpt>
      <trkpt lat="47.82221" lon="0.33565">
        <ele>147.908</ele>
        <time>2016-06-02T16:59:33Z</time>
      </trkpt>
      <trkpt lat="47.82295" lon="0.33589">
        <ele>147.815</ele>
        <time>2016-06-02T16:59:13Z</time>
      </trkpt>
      <trkpt lat="47.82328" lon="0.3357">
        <ele>149.323</ele>
        <time>2016-06-02T16:58:53Z</time>
      </trkpt>
      <trkpt lat="47.82418" lon="0.33615">
        <ele>150.733</ele>
        <time>2016-06-02T16:58:33Z</time>
      </trkpt>
      <trkpt lat="47.82484" lon="0.33659">
        <ele>151.842</ele>
        <time>2016-06-02T16:58:13Z</time>
      </trkpt>
      <trkpt lat="47.82563" lon="0.33696">
        <ele>152.063</ele>
        <time>2016-06-02T16:57:53Z</time>
      </trkpt>
      <trkpt lat="47.82633" lon="0.33705">
        <ele>151.597</ele>
        <time>2016-06-02T16:57:33Z</time>
      </trkpt>
      <trkpt lat="47.8273" lon="0.33749">
        <ele>144.115</ele>
        <time>2016-06-02T16:57:13Z</time>
      </trkpt>
      <trkpt lat="47.8279" lon="0.33824">
        <ele>139.079</ele>
        <time>2016-06-02T16:56:53Z</time>
      </trkpt>
      <trkpt lat="47.82857" lon="0.33884">
        <ele>135.586</ele>
        <time>2016-06-02T16:56:33Z</time>
      </trkpt>
      <trkpt lat="47.82865" lon="0.33938">
        <ele>132.041</ele>
        <time>2016-06-02T16:56:13Z</time>
      </trkpt>
      <trkpt lat="47.82905" lon="0.33926">
        <ele>129.875</ele>
        <time>2016-06-02T16:55:53Z</time>
      </trkpt>
      <trkpt lat="47.82923" lon="0.33897">
        <ele>130.408</ele>
        <time>2016-06-02T16:55:33Z</time>
      </trkpt>
      <trkpt lat="47.82973" lon="0.3387">
        <ele>130.62</ele>
        <time>2016-06-02T16:55:13Z</time>
      </trkpt>
      <trkpt lat="47.82983" lon="0.33845">
        <ele>130.873</ele>
        <time>2016-06-02T16:54:53Z</time>
      </trkpt>
      <trkpt lat="47.82991" lon="0.33663">
        <ele>141.892</ele>
        <time>2016-06-02T16:54:33Z</time>
      </trkpt>
      <trkpt lat="47.83006" lon="0.33627">
        <ele>142.312</ele>
        <time>2016-06-02T16:54:13Z</time>
      </trkpt>
      <trkpt lat="47.83007" lon="0.33567">
        <ele>145.923</ele>
        <time>2016-06-02T16:53:53Z</time>
      </trkpt>
      <trkpt lat="47.8296" lon="0.33497">
        <ele>148.777</ele>
        <time>2016-06-02T16:53:33Z</time>
      </trkpt>
      <trkpt lat="47.82945" lon="0.33404">
        <ele>148.025</ele>
        <time>2016-06-02T16:53:13Z</time>
      </trkpt>
      <trkpt lat="47.82945" lon="0.33337">
        <ele>147.029</ele>
        <time>2016-06-02T16:52:53Z</time>
      </trkpt>
      <trkpt lat="47.82974" lon="0.33234">
        <ele>146.096</ele>
        <time>2016-06-02T16:52:33Z</time>
      </trkpt>
      <trkpt lat="47.82963" lon="0.33197">
        <ele>147.991</ele>
        <time>2016-06-02T16:52:13Z</time>
      </trkpt>
      <trkpt lat="47.82963" lon="0.33197">
        <ele>147.955</ele>
        <time>2016-06-02T16:51:53Z</time>
      </trkpt>
      <trkpt lat="47.83012" lon="0.33181">
        <ele>146.408</ele>
        <time>2016-06-02T16:51:33Z</time>
      </trkpt>
      <trkpt lat="47.83179" lon="0.3321">
        <ele>132.424</ele>
        <time>2016-06-02T16:51:13Z</time>
      </trkpt>
      <trkpt lat="47.83287" lon="0.33201">
        <ele>137.931</ele>
        <time>2016-06-02T16:50:53Z</time>
      </trkpt>
      <trkpt lat="47.83411" lon="0.33137">
        <ele>145.196</ele>
        <time>2016-06-02T16:50:33Z</time>
      </trkpt>
      <trkpt lat="47.83503" lon="0.33044">
        <ele>152.071</ele>
        <time>2016-06-02T16:50:13Z</time>
      </trkpt>
      <trkpt lat="47.83622" lon="0.3297">
        <ele>152.332</ele>
        <time>2016-06-02T16:49:53Z</time>
      </trkpt>
      <trkpt lat="47.83568" lon="0.3278">
        <ele>158.086</ele>
        <time>2016-06-02T16:49:33Z</time>
      </trkpt>
      <trkpt lat="47.83539" lon="0.32666">
        <ele>160.054</ele>
        <time>2016-06-02T16:49:13Z</time>
      </trkpt>
      <trkpt lat="47.83539" lon="0.32422">
        <ele>164.848</ele>
        <time>2016-06-02T16:48:53Z</time>
      </trkpt>
      <trkpt lat="47.83552" lon="0.32394">
        <ele>166.555</ele>
        <time>2016-06-02T16:48:33Z</time>
      </trkpt>
      <trkpt lat="47.8352" lon="0.32253">
        <ele>167.36</ele>
        <time>2016-06-02T16:48:13Z</time>
      </trkpt>
      <trkpt lat="47.83542" lon="0.32208">
        <ele>168.544</ele>
        <time>2016-06-02T16:47:53Z</time>
      </trkpt>
      <trkpt lat="47.83586" lon="0.32006">
        <ele>166.308</ele>
        <time>2016-06-02T16:47:33Z</time>
      </trkpt>
      <trkpt lat="47.83735" lon="0.32072">
        <ele>168.417</ele>
        <time>2016-06-02T16:47:13Z</time>
      </trkpt>
      <trkpt lat="47.83805" lon="0.32067">
        <ele>171.225</ele>
        <time>2016-06-02T16:46:53Z</time>
      </trkpt>
      <trkpt lat="47.83913" lon="0.3205">
        <ele>172.183</ele>
        <time>2016-06-02T16:46:33Z</time>
      </trkpt>
      <trkpt lat="47.84198" lon="0.31996">
        <ele>170.615</ele>
        <time>2016-06-02T16:46:13Z</time>
      </trkpt>
      <trkpt lat="47.84422" lon="0.3199">
        <ele>154.146</ele>
        <time>2016-06-02T16:45:53Z</time>
      </trkpt>
      <trkpt lat="47.8448" lon="0.31958">
        <ele>151.97</ele>
        <time>2016-06-02T16:45:33Z</time>
      </trkpt>
      <trkpt lat="47.84471" lon="0.3204">
        <ele>153.468</ele>
        <time>2016-06-02T16:45:13Z</time>
      </trkpt>
      <trkpt lat="47.84653" lon="0.32239">
        <ele>154.012</ele>
        <time>2016-06-02T16:44:53Z</time>
      </trkpt>
      <trkpt lat="47.84769" lon="0.32359">
        <ele>149.269</ele>
        <time>2016-06-02T16:44:33Z</time>
      </trkpt>
      <trkpt lat="47.84786" lon="0.32453">
        <ele>152.214</ele>
        <time>2016-06-02T16:44:13Z</time>
      </trkpt>
      <trkpt lat="47.84807" lon="0.32524">
        <ele>151.148</ele>
        <time>2016-06-02T16:43:53Z</time>
      </trkpt>
      <trkpt lat="47.85047" lon="0.33041">
        <ele>140.208</ele>
        <time>2016-06-02T16:43:33Z</time>
      </trkpt>
      <trkpt lat="47.85147" lon="0.32962">
        <ele>142.714</ele>
        <time>2016-06-02T16:43:13Z</time>
      </trkpt>
      <trkpt lat="47.85224" lon="0.32852">
        <ele>135.468</ele>
        <time>2016-06-02T16:42:53Z</time>
      </trkpt>
      <trkpt lat="47.85268" lon="0.32818">
        <ele>134.527</ele>
        <time>2016-06-02T16:42:33Z</time>
      </trkpt>
      <trkpt lat="47.85301" lon="0.32774">
        <ele>135.942</ele>
        <time>2016-06-02T16:42:13Z</time>
      </trkpt>
      <trkpt lat="47.85397" lon="0.3298">
        <ele>138.183</ele>
        <time>2016-06-02T16:41:53Z</time>
      </trkpt>
      <trkpt lat="47.85461" lon="0.33087">
        <ele>139.377</ele>
        <time>2016-06-02T16:41:33Z</time>
      </trkpt>
      <trkpt lat="47.85526" lon="0.3319">
        <ele>141.345</ele>
        <time>2016-06-02T16:41:13Z</time>
      </trkpt>
      <trkpt lat="47.85608" lon="0.33277">
        <ele>139.289</ele>
        <time>2016-06-02T16:40:53Z</time>
      </trkpt>
      <trkpt lat="47.85654" lon="0.33298">
        <ele>136.966</ele>
        <time>2016-06-02T16:40:33Z</time>
      </trkpt>
      <trkpt lat="47.8568" lon="0.3333">
        <ele>134.631</ele>
        <time>2016-06-02T16:40:13Z</time>
      </trkpt>
      <trkpt lat="47.85718" lon="0.33281">
        <ele>135.915</ele>
        <time>2016-06-02T16:39:53Z</time>
      </trkpt>
      <trkpt lat="47.85761" lon="0.33248">
        <ele>140.408</ele>
        <time>2016-06-02T16:39:33Z</time>
      </trkpt>
      <trkpt lat="47.85761" lon="0.33248">
        <ele>140.426</ele>
        <time>2016-06-02T16:39:13Z</time>
      </trkpt>
      <trkpt lat="47.85764" lon="0.33228">
        <ele>144.415</ele>
        <time>2016-06-02T16:38:53Z</time>
      </trkpt>
      <trkpt lat="47.85738" lon="0.33045">
        <ele>152.798</ele>
        <time>2016-06-02T16:38:33Z</time>
      </trkpt>
      <trkpt lat="47.85676" lon="0.3294">
        <ele>152.195</ele>
        <time>2016-06-02T16:38:13Z</time>
      </trkpt>
      <trkpt lat="47.85611" lon="0.32801">
        <ele>158.076</ele>
        <time>2016-06-02T16:37:53Z</time>
      </trkpt>
      <trkpt lat="47.85597" lon="0.32643">
        <ele>158.82</ele>
        <time>2016-06-02T16:37:33Z</time>
      </trkpt>
      <trkpt lat="47.85613" lon="0.32648">
        <ele>159.898</ele>
        <time>2016-06-02T16:37:13Z</time>
      </trkpt>
      <trkpt lat="47.85739" lon="0.32572">
        <ele>145.952</ele>
        <time>2016-06-02T16:36:53Z</time>
      </trkpt>
      <trkpt lat="47.85771" lon="0.32568">
        <ele>142.799</ele>
        <time>2016-06-02T16:36:33Z</time>
      </trkpt>
      <trkpt lat="47.85839" lon="0.32631">
        <ele>135.014</ele>
        <time>2016-06-02T16:36:13Z</time>
      </trkpt>
      <trkpt lat="47.85964" lon="0.32685">
        <ele>125.498</ele>
        <time>2016-06-02T16:35:53Z</time>
      </trkpt>
      <trkpt lat="47.8608" lon="0.32725">
        <ele>116.808</ele>
        <time>2016-06-02T16:35:33Z</time>
      </trkpt>
      <trkpt lat="47.86127" lon="0.32751">
        <ele>118.111</ele>
        <time>2016-06-02T16:35:13Z</time>
      </trkpt>
      <trkpt lat="47.86176" lon="0.32795">
        <ele>111.747</ele>
        <time>2016-06-02T16:34:53Z</time>
      </trkpt>
      <trkpt lat="47.86223" lon="0.32804">
        <ele>105.026</ele>
        <time>2016-06-02T16:34:33Z</time>
      </trkpt>
      <trkpt lat="47.86338" lon="0.32801">
        <ele>98.077</ele>
        <time>2016-06-02T16:34:13Z</time>
      </trkpt>
      <trkpt lat="47.8636" lon="0.32816">
        <ele>98.068</ele>
        <time>2016-06-02T16:33:53Z</time>
      </trkpt>
      <trkpt lat="47.86371" lon="0.33125">
        <ele>105.662</ele>
        <time>2016-06-02T16:33:33Z</time>
      </trkpt>
      <trkpt lat="47.86401" lon="0.33209">
        <ele>101.66</ele>
        <time>2016-06-02T16:33:13Z</time>
      </trkpt>
      <trkpt lat="47.86416" lon="0.33313">
        <ele>105.324</ele>
        <time>2016-06-02T16:32:53Z</time>
      </trkpt>
      <trkpt lat="47.86463" lon="0.33361">
        <ele>106.731</ele>
        <time>2016-06-02T16:32:33Z</time>
      </trkpt>
      <trkpt lat="47.86635" lon="0.33491">
        <ele>105.616</ele>
        <time>2016-06-02T16:32:13Z</time>
      </trkpt>
      <trkpt lat="47.86636" lon="0.33455">
        <ele>101.54</ele>
        <time>2016-06-02T16:31:53Z</time>
      </trkpt>
      <trkpt lat="47.86663" lon="0.33405">
        <ele>93.908</ele>
        <time>2016-06-02T16:31:33Z</time>
      </trkpt>
      <trkpt lat="47.86755" lon="0.33355">
        <ele>95.022</ele>
        <time>2016-06-02T16:31:13Z</time>
      </trkpt>
      <trkpt lat="47.86809" lon="0.33335">
        <ele>96.002</ele>
        <time>2016-06-02T16:30:53Z</time>
      </trkpt>
      <trkpt lat="47.86881" lon="0.33335">
        <ele>97.749</ele>
        <time>2016-06-02T16:30:33Z</time>
      </trkpt>
      <trkpt lat="47.86946" lon="0.33346">
        <ele>100.572</ele>
        <time>2016-06-02T16:30:13Z</time>
      </trkpt>
      <trkpt lat="47.87001" lon="0.33374">
        <ele>101.913</ele>
        <time>2016-06-02T16:29:53Z</time>
      </trkpt>
      <trkpt lat="47.87001" lon="0.33374">
        <ele>101.997</ele>
        <time>2016-06-02T16:29:53Z</time>
      </trkpt>
      <trkpt lat="47.87008" lon="0.33376">
        <ele>102.125</ele>
        <time>2019-10-26T18:56:16Z</time>
      </trkpt>
      <trkpt lat="47.87008" lon="0.33376">
        <ele>102.125</ele>
        <time>2019-10-26T18:56:16Z</time>
      </trkpt>
      <trkpt lat="47.87018" lon="0.33477">
        <ele>107.729</ele>
        <time>2019-10-26T18:55:56Z</time>
      </trkpt>
      <trkpt lat="47.87058" lon="0.33642">
        <ele>118.026</ele>
        <time>2019-10-26T18:55:36Z</time>
      </trkpt>
      <trkpt lat="47.87116" lon="0.33799">
        <ele>134.671</ele>
        <time>2019-10-26T18:55:16Z</time>
      </trkpt>
      <trkpt lat="47.87172" lon="0.33796">
        <ele>133.115</ele>
        <time>2019-10-26T18:54:56Z</time>
      </trkpt>
      <trkpt lat="47.87212" lon="0.33818">
        <ele>131.808</ele>
        <time>2019-10-26T18:54:36Z</time>
      </trkpt>
      <trkpt lat="47.8732" lon="0.33831">
        <ele>132.427</ele>
        <time>2019-10-26T18:54:16Z</time>
      </trkpt>
      <trkpt lat="47.87355" lon="0.33816">
        <ele>130.807</ele>
        <time>2019-10-26T18:53:56Z</time>
      </trkpt>
      <trkpt lat="47.87355" lon="0.33816">
        <ele>130.899</ele>
        <time>2019-10-26T18:53:36Z</time>
      </trkpt>
      <trkpt lat="47.87427" lon="0.33831">
        <ele>128.999</ele>
        <time>2019-10-26T18:53:16Z</time>
      </trkpt>
      <trkpt lat="47.87427" lon="0.33831">
        <ele>128.999</ele>
        <time>2019-10-26T18:53:16Z</time>
      </trkpt>
      <trkpt lat="47.87419" lon="0.3429">
        <ele>128.95</ele>
        <time>2019-10-26T18:52:56Z</time>
      </trkpt>
      <trkpt lat="47.87428" lon="0.34369">
        <ele>129.364</ele>
        <time>2019-10-26T18:52:36Z</time>
      </trkpt>
      <trkpt lat="47.87386" lon="0.34558">
        <ele>131.762</ele>
        <time>2019-10-26T18:52:16Z</time>
      </trkpt>
      <trkpt lat="47.87355" lon="0.34848">
        <ele>120.956</ele>
        <time>2016-06-02T01:38:06Z</time>
      </trkpt>
      <trkpt lat="47.87355" lon="0.34848">
        <ele>120.963</ele>
        <time>2016-06-02T01:37:46Z</time>
      </trkpt>
      <trkpt lat="47.87464" lon="0.34906">
        <ele>122.818</ele>
        <time>2016-06-02T01:37:26Z</time>
      </trkpt>
      <trkpt lat="47.87496" lon="0.34996">
        <ele>120.032</ele>
        <time>2016-06-02T01:37:06Z</time>
      </trkpt>
      <trkpt lat="47.875" lon="0.35101">
        <ele>122.008</ele>
        <time>2016-06-02T01:36:46Z</time>
      </trkpt>
      <trkpt lat="47.87483" lon="0.35148">
        <ele>121.413</ele>
        <time>2016-06-02T01:36:26Z</time>
      </trkpt>
      <trkpt lat="47.87533" lon="0.35279">
        <ele>117.821</ele>
        <time>2016-06-02T01:36:06Z</time>
      </trkpt>
      <trkpt lat="47.87706" lon="0.35116">
        <ele>123.561</ele>
        <time>2016-06-02T01:35:46Z</time>
      </trkpt>
      <trkpt lat="47.87794" lon="0.35335">
        <ele>122.979</ele>
        <time>2016-06-02T01:35:26Z</time>
      </trkpt>
      <trkpt lat="47.87965" lon="0.35178">
        <ele>124.91</ele>
        <time>2016-06-02T01:35:06Z</time>
      </trkpt>
      <trkpt lat="47.88001" lon="0.35517">
        <ele>123.414</ele>
        <time>2016-06-02T01:34:46Z</time>
      </trkpt>
      <trkpt lat="47.88001" lon="0.35517">
        <ele>123.492</ele>
        <time>2016-06-02T01:34:26Z</time>
      </trkpt>
      <trkpt lat="47.88155" lon="0.35755">
        <ele>116.176</ele>
        <time>2016-06-02T01:34:06Z</time>
      </trkpt>
      <trkpt lat="47.88372" lon="0.36045">
        <ele>118.033</ele>
        <time>2016-06-02T01:33:46Z</time>
      </trkpt>
      <trkpt lat="47.88372" lon="0.36045">
        <ele>118.048</ele>
        <time>2016-06-02T01:33:26Z</time>
      </trkpt>
      <trkpt lat="47.88424" lon="0.36131">
        <ele>115.072</ele>
        <time>2016-06-02T01:33:06Z</time>
      </trkpt>
      <trkpt lat="47.88464" lon="0.36088">
        <ele>112.808</ele>
        <time>2016-06-02T01:32:46Z</time>
      </trkpt>
      <trkpt lat="47.88753" lon="0.36577">
        <ele>119.113</ele>
        <time>2016-06-02T01:32:26Z</time>
      </trkpt>
      <trkpt lat="47.8893" lon="0.36736">
        <ele>118.721</ele>
        <time>2016-06-02T01:32:06Z</time>
      </trkpt>
      <trkpt lat="47.89046" lon="0.36878">
        <ele>113.461</ele>
        <time>2016-06-02T01:31:46Z</time>
      </trkpt>
      <trkpt lat="47.89115" lon="0.36989">
        <ele>112.069</ele>
        <time>2016-06-02T01:31:26Z</time>
      </trkpt>
      <trkpt lat="47.89041" lon="0.37075">
        <ele>109.39</ele>
        <time>2016-06-02T01:31:06Z</time>
      </trkpt>
      <trkpt lat="47.89086" lon="0.3709">
        <ele>107.944</ele>
        <time>2016-06-02T01:30:46Z</time>
      </trkpt>
      <trkpt lat="47.89187" lon="0.37215">
        <ele>108.362</ele>
        <time>2016-06-02T01:30:26Z</time>
      </trkpt>
      <trkpt lat="47.89282" lon="0.37395">
        <ele>117.176</ele>
        <time>2016-06-02T01:30:06Z</time>
      </trkpt>
      <trkpt lat="47.89282" lon="0.37395">
        <ele>117.183</ele>
        <time>2016-06-02T01:29:46Z</time>
      </trkpt>
      <trkpt lat="47.89313" lon="0.37506">
        <ele>116.658</ele>
        <time>2016-06-02T01:29:26Z</time>
      </trkpt>
      <trkpt lat="47.89387" lon="0.37674">
        <ele>111.812</ele>
        <time>2016-06-02T01:29:06Z</time>
      </trkpt>
      <trkpt lat="47.89437" lon="0.37708">
        <ele>111.308</ele>
        <time>2016-06-02T01:28:46Z</time>
      </trkpt>
      <trkpt lat="47.89466" lon="0.3777">
        <ele>110.124</ele>
        <time>2016-06-02T01:28:26Z</time>
      </trkpt>
      <trkpt lat="47.89477" lon="0.37888">
        <ele>108.504</ele>
        <time>2016-06-02T01:28:06Z</time>
      </trkpt>
      <trkpt lat="47.8951" lon="0.37946">
        <ele>112.869</ele>
        <time>2016-06-02T01:27:46Z</time>
      </trkpt>
      <trkpt lat="47.89566" lon="0.38133">
        <ele>117.214</ele>
        <time>2016-06-02T01:27:26Z</time>
      </trkpt>
      <trkpt lat="47.89674" lon="0.38058">
        <ele>123.795</ele>
        <time>2016-06-02T01:27:06Z</time>
      </trkpt>
      <trkpt lat="47.89772" lon="0.37953">
        <ele>117.299</ele>
        <time>2016-06-02T01:26:46Z</time>
      </trkpt>
      <trkpt lat="47.89838" lon="0.37963">
        <ele>113.497</ele>
        <time>2016-06-02T01:26:26Z</time>
      </trkpt>
      <trkpt lat="47.89955" lon="0.38094">
        <ele>112.761</ele>
        <time>2016-06-02T01:26:06Z</time>
      </trkpt>
      <trkpt lat="47.89974" lon="0.38223">
        <ele>114.078</ele>
        <time>2016-06-02T01:25:46Z</time>
      </trkpt>
      <trkpt lat="47.90012" lon="0.38453">
        <ele>109.153</ele>
        <time>2016-06-02T01:25:26Z</time>
      </trkpt>
      <trkpt lat="47.89969" lon="0.38466">
        <ele>108.087</ele>
        <time>2016-06-02T01:25:06Z</time>
      </trkpt>
      <trkpt lat="47.8982" lon="0.38547">
        <ele>109.408</ele>
        <time>2016-06-02T01:24:46Z</time>
      </trkpt>
      <trkpt lat="47.8963" lon="0.38609">
        <ele>110.317</ele>
        <time>2016-06-02T01:24:26Z</time>
      </trkpt>
      <trkpt lat="47.8963" lon="0.38609">
        <ele>110.398</ele>
        <time>2016-06-02T01:24:06Z</time>
      </trkpt>
      <trkpt lat="47.8963" lon="0.38697">
        <ele>110.018</ele>
        <time>2016-06-02T01:23:46Z</time>
      </trkpt>
      <trkpt lat="47.89591" lon="0.38796">
        <ele>111.278</ele>
        <time>2016-06-02T01:23:26Z</time>
      </trkpt>
      <trkpt lat="47.8966" lon="0.38895">
        <ele>109.299</ele>
        <time>2016-06-02T01:23:06Z</time>
      </trkpt>
      <trkpt lat="47.89728" lon="0.38918">
        <ele>113.453</ele>
        <time>2016-06-02T01:22:46Z</time>
      </trkpt>
      <trkpt lat="47.89761" lon="0.38981">
        <ele>117.471</ele>
        <time>2016-06-02T01:22:26Z</time>
      </trkpt>
      <trkpt lat="47.89788" lon="0.38993">
        <ele>117.995</ele>
        <time>2016-06-02T01:22:06Z</time>
      </trkpt>
      <trkpt lat="47.89784" lon="0.39075">
        <ele>121.262</ele>
        <time>2016-06-02T01:21:46Z</time>
      </trkpt>
      <trkpt lat="47.89899" lon="0.39339">
        <ele>127.867</ele>
        <time>2016-06-02T01:21:26Z</time>
      </trkpt>
      <trkpt lat="47.89899" lon="0.39339">
        <ele>127.861</ele>
        <time>2016-06-02T01:21:06Z</time>
      </trkpt>
      <trkpt lat="47.89817" lon="0.39384">
        <ele>122.108</ele>
        <time>2016-06-02T01:20:46Z</time>
      </trkpt>
      <trkpt lat="47.89765" lon="0.39448">
        <ele>121.317</ele>
        <time>2016-06-02T01:20:26Z</time>
      </trkpt>
      <trkpt lat="47.89587" lon="0.39496">
        <ele>122.052</ele>
        <time>2016-06-02T01:20:06Z</time>
      </trkpt>
      <trkpt lat="47.89587" lon="0.39496">
        <ele>122.058</ele>
        <time>2016-06-02T01:19:46Z</time>
      </trkpt>
      <trkpt lat="47.89385" lon="0.39671">
        <ele>122.174</ele>
        <time>2016-06-02T01:19:26Z</time>
      </trkpt>
      <trkpt lat="47.89294" lon="0.39742">
        <ele>121.295</ele>
        <time>2016-06-02T01:19:06Z</time>
      </trkpt>
      <trkpt lat="47.89251" lon="0.39809">
        <ele>118.149</ele>
        <time>2016-06-02T01:18:46Z</time>
      </trkpt>
      <trkpt lat="47.89228" lon="0.39907">
        <ele>119.097</ele>
        <time>2016-06-02T01:18:26Z</time>
      </trkpt>
      <trkpt lat="47.89201" lon="0.39953">
        <ele>119.521</ele>
        <time>2016-06-02T01:18:06Z</time>
      </trkpt>
      <trkpt lat="47.89107" lon="0.39985">
        <ele>123.198</ele>
        <time>2016-06-02T01:17:46Z</time>
      </trkpt>
      <trkpt lat="47.89086" lon="0.40028">
        <ele>123.963</ele>
        <time>2016-06-02T01:17:26Z</time>
      </trkpt>
      <trkpt lat="47.89044" lon="0.40045">
        <ele>125.097</ele>
        <time>2016-06-02T01:17:06Z</time>
      </trkpt>
      <trkpt lat="47.89015" lon="0.40006">
        <ele>123.808</ele>
        <time>2016-06-02T01:16:46Z</time>
      </trkpt>
      <trkpt lat="47.88949" lon="0.40036">
        <ele>128.613</ele>
        <time>2016-06-02T01:16:26Z</time>
      </trkpt>
      <trkpt lat="47.88913" lon="0.40693">
        <ele>144.176</ele>
        <time>2016-06-02T01:16:06Z</time>
      </trkpt>
      <trkpt lat="47.88815" lon="0.40753">
        <ele>145.316</ele>
        <time>2016-06-02T01:15:46Z</time>
      </trkpt>
      <trkpt lat="47.88715" lon="0.40854">
        <ele>145.027</ele>
        <time>2016-06-02T01:15:26Z</time>
      </trkpt>
      <trkpt lat="47.8862" lon="0.40948">
        <ele>143.938</ele>
        <time>2016-06-02T01:15:06Z</time>
      </trkpt>
      <trkpt lat="47.88814" lon="0.40985">
        <ele>143.292</ele>
        <time>2016-06-02T01:14:46Z</time>
      </trkpt>
      <trkpt lat="47.88814" lon="0.40985">
        <ele>143.22</ele>
        <time>2016-06-02T01:14:26Z</time>
      </trkpt>
      <trkpt lat="47.89098" lon="0.41013">
        <ele>144.614</ele>
        <time>2016-06-02T01:14:06Z</time>
      </trkpt>
      <trkpt lat="47.89768" lon="0.4112">
        <ele>146.311</ele>
        <time>2016-06-02T01:13:46Z</time>
      </trkpt>
      <trkpt lat="47.9003" lon="0.41279">
        <ele>143.066</ele>
        <time>2016-06-02T01:13:26Z</time>
      </trkpt>
      <trkpt lat="47.90113" lon="0.41307">
        <ele>140.86</ele>
        <time>2016-06-02T01:13:06Z</time>
      </trkpt>
      <trkpt lat="47.9024" lon="0.41322">
        <ele>134.908</ele>
        <time>2016-06-02T01:12:46Z</time>
      </trkpt>
      <trkpt lat="47.90367" lon="0.41384">
        <ele>133.914</ele>
        <time>2016-06-02T01:12:26Z</time>
      </trkpt>
      <trkpt lat="47.9043" lon="0.41167">
        <ele>127.122</ele>
        <time>2016-06-02T01:12:06Z</time>
      </trkpt>
      <trkpt lat="47.9043" lon="0.41167">
        <ele>127.142</ele>
        <time>2016-06-02T01:11:46Z</time>
      </trkpt>
      <trkpt lat="47.9061" lon="0.40747">
        <ele>128.951</ele>
        <time>2016-06-02T01:11:26Z</time>
      </trkpt>
      <trkpt lat="47.90771" lon="0.40697">
        <ele>133.772</ele>
        <time>2016-06-02T01:11:06Z</time>
      </trkpt>
      <trkpt lat="47.90869" lon="0.40626">
        <ele>135.966</ele>
        <time>2016-06-02T01:10:46Z</time>
      </trkpt>
      <trkpt lat="47.90905" lon="0.40624">
        <ele>134.774</ele>
        <time>2016-06-02T01:10:26Z</time>
      </trkpt>
      <trkpt lat="47.90919" lon="0.40598">
        <ele>134.738</ele>
        <time>2016-06-02T01:10:06Z</time>
      </trkpt>
      <trkpt lat="47.91002" lon="0.40598">
        <ele>124.415</ele>
        <time>2016-06-02T01:09:46Z</time>
      </trkpt>
      <trkpt lat="47.91057" lon="0.40553">
        <ele>120.87</ele>
        <time>2016-06-02T01:09:26Z</time>
      </trkpt>
      <trkpt lat="47.91204" lon="0.40611">
        <ele>114.314</ele>
        <time>2016-06-02T01:09:06Z</time>
      </trkpt>
      <trkpt lat="47.91414" lon="0.40663">
        <ele>107.108</ele>
        <time>2016-06-02T01:08:46Z</time>
      </trkpt>
      <trkpt lat="47.91408" lon="0.40719">
        <ele>108.017</ele>
        <time>2016-06-02T01:08:26Z</time>
      </trkpt>
      <trkpt lat="47.91706" lon="0.40965">
        <ele>114.861</ele>
        <time>2016-06-02T01:08:06Z</time>
      </trkpt>
      <trkpt lat="47.9174" lon="0.40899">
        <ele>111.481</ele>
        <time>2016-06-02T01:07:46Z</time>
      </trkpt>
      <trkpt lat="47.9174" lon="0.40899">
        <ele>111.497</ele>
        <time>2016-06-02T01:07:26Z</time>
      </trkpt>
      <trkpt lat="47.91698" lon="0.40764">
        <ele>113.178</ele>
        <time>2016-06-02T01:07:06Z</time>
      </trkpt>
      <trkpt lat="47.91707" lon="0.40598">
        <ele>112.172</ele>
        <time>2016-06-02T01:06:46Z</time>
      </trkpt>
      <trkpt lat="47.91756" lon="0.40414">
        <ele>105.61</ele>
        <time>2016-06-02T01:06:26Z</time>
      </trkpt>
      <trkpt lat="47.91792" lon="0.40354">
        <ele>103.614</ele>
        <time>2016-06-02T01:06:06Z</time>
      </trkpt>
      <trkpt lat="47.91854" lon="0.40214">
        <ele>102.851</ele>
        <time>2016-06-02T01:05:46Z</time>
      </trkpt>
      <trkpt lat="47.91799" lon="0.4012">
        <ele>102.076</ele>
        <time>2016-06-02T01:05:26Z</time>
      </trkpt>
      <trkpt lat="47.91809" lon="0.40058">
        <ele>101.88</ele>
        <time>2016-06-02T01:05:06Z</time>
      </trkpt>
      <trkpt lat="47.91798" lon="0.40008">
        <ele>102.108</ele>
        <time>2016-06-02T01:04:46Z</time>
      </trkpt>
      <trkpt lat="47.91959" lon="0.39856">
        <ele>102.717</ele>
        <time>2016-06-02T01:04:26Z</time>
      </trkpt>
      <trkpt lat="47.9215" lon="0.40161">
        <ele>99.061</ele>
        <time>2016-06-02T01:04:06Z</time>
      </trkpt>
      <trkpt lat="47.92423" lon="0.40699">
        <ele>95.348</ele>
        <time>2016-06-02T01:03:46Z</time>
      </trkpt>
      <trkpt lat="47.92606" lon="0.40925">
        <ele>95.239</ele>
        <time>2016-06-02T01:03:26Z</time>
      </trkpt>
      <trkpt lat="47.92796" lon="0.4118">
        <ele>91.68</ele>
        <time>2016-06-02T01:03:06Z</time>
      </trkpt>
      <trkpt lat="47.92871" lon="0.41312">
        <ele>93.254</ele>
        <time>2020-12-24T11:26:35Z</time>
      </trkpt>
      <trkpt lat="47.9292" lon="0.41428">
        <ele>93.852</ele>
        <time>2020-12-24T11:26:15Z</time>
      </trkpt>
      <trkpt lat="47.92998" lon="0.41375">
        <ele>92.166</ele>
        <time>2020-12-24T11:25:55Z</time>
      </trkpt>
      <trkpt lat="47.93007" lon="0.41297">
        <ele>90.983</ele>
        <time>2020-12-24T11:25:35Z</time>
      </trkpt>
      <trkpt lat="47.93028" lon="0.41218">
        <ele>88.488</ele>
        <time>2020-12-24T11:25:15Z</time>
      </trkpt>
      <trkpt lat="47.93073" lon="0.41255">
        <ele>87.612</ele>
        <time>2016-06-02T01:01:46Z</time>
      </trkpt>
      <trkpt lat="47.93087" lon="0.41345">
        <ele>89.808</ele>
        <time>2016-06-02T01:01:26Z</time>
      </trkpt>
      <trkpt lat="47.93087" lon="0.41345">
        <ele>89.808</ele>
        <time>2016-06-02T01:01:26Z</time>
      </trkpt>
      <trkpt lat="47.93087" lon="0.41345">
        <ele>89.808</ele>
        <time>2016-06-02T01:01:26Z</time>
      </trkpt>
      <trkpt lat="47.93087" lon="0.41345">
        <ele>89.808</ele>
        <time>2016-06-02T01:01:26Z</time>
      </trkpt>
      <trkpt lat="47.93045" lon="0.41505">
        <ele>93.426</ele>
        <time>2020-12-24T11:24:15Z</time>
      </trkpt>
      <trkpt lat="47.93129" lon="0.41564">
        <ele>92.542</ele>
        <time>2020-12-24T11:23:55Z</time>
      </trkpt>
      <trkpt lat="47.93181" lon="0.41454">
        <ele>90.668</ele>
        <time>2020-12-24T11:23:35Z</time>
      </trkpt>
      <trkpt lat="47.93355" lon="0.41624">
        <ele>88.216</ele>
        <time>2016-06-02T01:01:06Z</time>
      </trkpt>
      <trkpt lat="47.93417" lon="0.41648">
        <ele>87.347</ele>
        <time>2016-06-02T01:00:46Z</time>
      </trkpt>
      <trkpt lat="47.93424" lon="0.41594">
        <ele>86.511</ele>
        <time>2016-06-02T01:00:26Z</time>
      </trkpt>
      <trkpt lat="47.93478" lon="0.41517">
        <ele>88.039</ele>
        <time>2016-06-02T01:00:06Z</time>
      </trkpt>
      <trkpt lat="47.93546" lon="0.41502">
        <ele>91.393</ele>
        <time>2016-06-02T00:59:46Z</time>
      </trkpt>
      <trkpt lat="47.93595" lon="0.41302">
        <ele>90.08</ele>
        <time>2016-06-02T00:59:26Z</time>
      </trkpt>
      <trkpt lat="47.93595" lon="0.41302">
        <ele>90.045</ele>
        <time>2016-06-02T00:59:06Z</time>
      </trkpt>
      <trkpt lat="47.93632" lon="0.41285">
        <ele>91.369</ele>
        <time>2016-06-02T00:58:46Z</time>
      </trkpt>
      <trkpt lat="47.93815" lon="0.41358">
        <ele>92.708</ele>
        <time>2016-06-02T00:58:26Z</time>
      </trkpt>
      <trkpt lat="47.93987" lon="0.41341">
        <ele>93.318</ele>
        <time>2016-06-02T00:58:06Z</time>
      </trkpt>
      <trkpt lat="47.94092" lon="0.4136">
        <ele>94.717</ele>
        <time>2016-06-02T00:57:46Z</time>
      </trkpt>
      <trkpt lat="47.94166" lon="0.41347">
        <ele>97.036</ele>
        <time>2016-06-02T00:57:26Z</time>
      </trkpt>
      <trkpt lat="47.94242" lon="0.41356">
        <ele>94.461</ele>
        <time>2016-06-02T00:57:06Z</time>
      </trkpt>
      <trkpt lat="47.94529" lon="0.41315">
        <ele>93.052</ele>
        <time>2016-06-02T00:56:46Z</time>
      </trkpt>
      <trkpt lat="47.94692" lon="0.41251">
        <ele>95.136</ele>
        <time>2016-06-02T00:56:26Z</time>
      </trkpt>
      <trkpt lat="47.94877" lon="0.4103">
        <ele>96.594</ele>
        <time>2016-06-02T00:56:06Z</time>
      </trkpt>
      <trkpt lat="47.95081" lon="0.40731">
        <ele>92.898</ele>
        <time>2016-06-02T00:55:46Z</time>
      </trkpt>
      <trkpt lat="47.95209" lon="0.40508">
        <ele>88.895</ele>
        <time>2016-06-02T00:55:26Z</time>
      </trkpt>
      <trkpt lat="47.95261" lon="0.40566">
        <ele>89.02</ele>
        <time>2016-06-02T00:55:06Z</time>
      </trkpt>
      <trkpt lat="47.95337" lon="0.40541">
        <ele>88.954</ele>
        <time>2016-06-02T00:54:46Z</time>
      </trkpt>
      <trkpt lat="47.95488" lon="0.4039">
        <ele>95.008</ele>
        <time>2016-06-02T00:54:26Z</time>
      </trkpt>
      <trkpt lat="47.96101" lon="0.40538">
        <ele>89.517</ele>
        <time>2016-06-02T00:54:06Z</time>
      </trkpt>
      <trkpt lat="47.96146" lon="0.4039">
        <ele>87.525</ele>
        <time>2016-06-02T00:53:46Z</time>
      </trkpt>
      <trkpt lat="47.96147" lon="0.40322">
        <ele>86.483</ele>
        <time>2016-06-02T00:53:26Z</time>
      </trkpt>
      <trkpt lat="47.96134" lon="0.39929">
        <ele>85.715</ele>
        <time>2016-06-02T00:53:06Z</time>
      </trkpt>
      <trkpt lat="47.96175" lon="0.38899">
        <ele>102.356</ele>
        <time>2016-06-02T00:52:46Z</time>
      </trkpt>
      <trkpt lat="47.96169" lon="0.38545">
        <ele>93.69</ele>
        <time>2016-06-02T00:52:26Z</time>
      </trkpt>
      <trkpt lat="47.96268" lon="0.38609">
        <ele>86.318</ele>
        <time>2016-06-02T00:52:06Z</time>
      </trkpt>
      <trkpt lat="47.96419" lon="0.38684">
        <ele>86.362</ele>
        <time>2016-06-02T00:51:46Z</time>
      </trkpt>
      <trkpt lat="47.96589" lon="0.38805">
        <ele>88.099</ele>
        <time>2016-06-02T00:51:26Z</time>
      </trkpt>
      <trkpt lat="47.96626" lon="0.38815">
        <ele>86.974</ele>
        <time>2016-06-02T00:51:06Z</time>
      </trkpt>
      <trkpt lat="47.96837" lon="0.38972">
        <ele>84.078</ele>
        <time>2016-06-02T00:50:46Z</time>
      </trkpt>
      <trkpt lat="47.96897" lon="0.39066">
        <ele>84.608</ele>
        <time>2016-06-02T00:50:26Z</time>
      </trkpt>
      <trkpt lat="47.97031" lon="0.39174">
        <ele>89.214</ele>
        <time>2016-06-02T00:50:06Z</time>
      </trkpt>
      <trkpt lat="47.97116" lon="0.39133">
        <ele>87.104</ele>
        <time>2016-06-02T00:49:46Z</time>
      </trkpt>
      <trkpt lat="47.97397" lon="0.38822">
        <ele>83.924</ele>
        <time>2016-06-02T00:49:26Z</time>
      </trkpt>
      <trkpt lat="47.97726" lon="0.38672">
        <ele>88.075</ele>
        <time>2016-06-02T00:49:06Z</time>
      </trkpt>
      <trkpt lat="47.97759" lon="0.38682">
        <ele>88.396</ele>
        <time>2016-06-02T00:48:46Z</time>
      </trkpt>
      <trkpt lat="47.97695" lon="0.38275">
        <ele>88.36</ele>
        <time>2016-06-02T00:48:26Z</time>
      </trkpt>
      <trkpt lat="47.97646" lon="0.37839">
        <ele>91.068</ele>
        <time>2016-06-02T00:48:06Z</time>
      </trkpt>
      <trkpt lat="47.9765" lon="0.36204">
        <ele>88.692</ele>
        <time>2016-06-02T00:47:46Z</time>
      </trkpt>
      <trkpt lat="47.9765" lon="0.36204">
        <ele>88.669</ele>
        <time>2016-06-02T00:47:26Z</time>
      </trkpt>
      <trkpt lat="47.9765" lon="0.36204">
        <ele>88.654</ele>
        <time>2016-06-02T00:47:06Z</time>
      </trkpt>
      <trkpt lat="47.97718" lon="0.35848">
        <ele>93.178</ele>
        <time>2016-06-02T00:46:46Z</time>
      </trkpt>
      <trkpt lat="47.979" lon="0.35331">
        <ele>84.708</ele>
        <time>2016-06-02T00:46:26Z</time>
      </trkpt>
      <trkpt lat="47.98029" lon="0.34796">
        <ele>78.711</ele>
        <time>2016-06-02T00:46:06Z</time>
      </trkpt>
      <trkpt lat="47.98072" lon="0.34944">
        <ele>80.083</ele>
        <time>2016-06-02T00:45:46Z</time>
      </trkpt>
      <trkpt lat="47.98164" lon="0.35103">
        <ele>83.623</ele>
        <time>2016-06-02T00:45:26Z</time>
      </trkpt>
      <trkpt lat="47.98436" lon="0.35378">
        <ele>92.268</ele>
        <time>2016-06-02T00:45:06Z</time>
      </trkpt>
      <trkpt lat="47.98561" lon="0.35414">
        <ele>95.329</ele>
        <time>2016-06-02T00:44:46Z</time>
      </trkpt>
      <trkpt lat="47.98644" lon="0.35474">
        <ele>91.393</ele>
        <time>2016-06-02T00:44:26Z</time>
      </trkpt>
      <trkpt lat="47.98739" lon="0.35494">
        <ele>90.981</ele>
        <time>2016-06-02T00:44:06Z</time>
      </trkpt>
      <trkpt lat="47.98864" lon="0.35494">
        <ele>88.045</ele>
        <time>2016-06-02T00:43:46Z</time>
      </trkpt>
      <trkpt lat="47.98883" lon="0.35202">
        <ele>96.252</ele>
        <time>2016-06-02T00:43:26Z</time>
      </trkpt>
      <trkpt lat="47.98898" lon="0.35092">
        <ele>100.077</ele>
        <time>2016-06-02T00:43:06Z</time>
      </trkpt>
      <trkpt lat="47.98973" lon="0.35039">
        <ele>96.621</ele>
        <time>2016-06-02T00:42:46Z</time>
      </trkpt>
      <trkpt lat="47.99112" lon="0.34996">
        <ele>93.208</ele>
        <time>2016-06-02T00:42:26Z</time>
      </trkpt>
      <trkpt lat="47.99109" lon="0.34811">
        <ele>103.82</ele>
        <time>2016-06-02T00:42:06Z</time>
      </trkpt>
      <trkpt lat="47.99148" lon="0.34822">
        <ele>104.9</ele>
        <time>2016-06-02T00:41:46Z</time>
      </trkpt>
      <trkpt lat="47.99144" lon="0.34674">
        <ele>112.757</ele>
        <time>2016-06-02T00:41:26Z</time>
      </trkpt>
      <trkpt lat="47.99177" lon="0.34524">
        <ele>121.049</ele>
        <time>2016-06-02T00:41:06Z</time>
      </trkpt>
      <trkpt lat="47.99233" lon="0.34519">
        <ele>123.49</ele>
        <time>2016-06-02T00:40:46Z</time>
      </trkpt>
      <trkpt lat="47.99246" lon="0.34386">
        <ele>123.944</ele>
        <time>2016-06-02T00:40:26Z</time>
      </trkpt>
      <trkpt lat="47.99219" lon="0.3423">
        <ele>123.842</ele>
        <time>2016-06-02T00:40:06Z</time>
      </trkpt>
      <trkpt lat="47.99186" lon="0.3415">
        <ele>117.886</ele>
        <time>2016-06-02T00:39:46Z</time>
      </trkpt>
      <trkpt lat="47.9899" lon="0.33959">
        <ele>98.533</ele>
        <time>2016-06-02T00:39:26Z</time>
      </trkpt>
      <trkpt lat="47.9899" lon="0.33959">
        <ele>98.568</ele>
        <time>2016-06-02T00:39:06Z</time>
      </trkpt>
      <trkpt lat="47.9896" lon="0.33891">
        <ele>93.722</ele>
        <time>2016-06-02T00:38:46Z</time>
      </trkpt>
      <trkpt lat="47.98953" lon="0.33807">
        <ele>94.008</ele>
        <time>2016-06-02T00:38:26Z</time>
      </trkpt>
      <trkpt lat="47.98918" lon="0.33599">
        <ele>91.114</ele>
        <time>2016-06-02T00:38:06Z</time>
      </trkpt>
      <trkpt lat="47.99007" lon="0.33612">
        <ele>97.368</ele>
        <time>2016-06-02T00:37:46Z</time>
      </trkpt>
      <trkpt lat="47.99184" lon="0.33595">
        <ele>107.965</ele>
        <time>2016-06-02T00:37:26Z</time>
      </trkpt>
      <trkpt lat="47.99332" lon="0.3355">
        <ele>99.947</ele>
        <time>2016-06-02T00:37:06Z</time>
      </trkpt>
      <trkpt lat="47.99437" lon="0.33459">
        <ele>91.668</ele>
        <time>2016-06-02T00:36:46Z</time>
      </trkpt>
      <trkpt lat="47.99448" lon="0.33374">
        <ele>89.982</ele>
        <time>2016-06-02T00:36:26Z</time>
      </trkpt>
      <trkpt lat="47.99434" lon="0.33245">
        <ele>89.66</ele>
        <time>2016-06-02T00:36:06Z</time>
      </trkpt>
      <trkpt lat="47.99374" lon="0.33105">
        <ele>84.574</ele>
        <time>2016-06-02T00:35:46Z</time>
      </trkpt>
      <trkpt lat="47.99355" lon="0.33022">
        <ele>79.671</ele>
        <time>2016-06-02T00:35:26Z</time>
      </trkpt>
      <trkpt lat="47.99358" lon="0.32897">
        <ele>77.346</ele>
        <time>2016-06-02T00:35:06Z</time>
      </trkpt>
      <trkpt lat="47.99435" lon="0.32925">
        <ele>77.84</ele>
        <time>2016-06-02T00:34:46Z</time>
      </trkpt>
      <trkpt lat="47.99507" lon="0.32912">
        <ele>74.608</ele>
        <time>2016-06-02T00:34:26Z</time>
      </trkpt>
      <trkpt lat="47.99835" lon="0.3306">
        <ele>73.221</ele>
        <time>2016-06-02T00:34:06Z</time>
      </trkpt>
      <trkpt lat="48.00003" lon="0.32899">
        <ele>69.629</ele>
        <time>2016-06-02T00:33:46Z</time>
      </trkpt>
      <trkpt lat="48.00116" lon="0.32917">
        <ele>72.347</ele>
        <time>2016-06-02T00:33:26Z</time>
      </trkpt>
      <trkpt lat="48.00014" lon="0.32771">
        <ele>69.546</ele>
        <time>2016-06-02T00:33:06Z</time>
      </trkpt>
      <trkpt lat="48.00014" lon="0.32771">
        <ele>69.597</ele>
        <time>2016-06-02T00:32:46Z</time>
      </trkpt>
      <trkpt lat="48.00027" lon="0.32481">
        <ele>81.681</ele>
        <time>2016-06-02T00:32:26Z</time>
      </trkpt>
      <trkpt lat="48.0001" lon="0.32357">
        <ele>78.349</ele>
        <time>2016-06-02T00:32:06Z</time>
      </trkpt>
      <trkpt lat="48.00011" lon="0.32224">
        <ele>81.513</ele>
        <time>2016-06-02T00:31:46Z</time>
      </trkpt>
      <trkpt lat="48.00005" lon="0.32063">
        <ele>81.22</ele>
        <time>2016-06-02T00:31:26Z</time>
      </trkpt>
      <trkpt lat="48.00005" lon="0.31854">
        <ele>80.015</ele>
        <time>2016-06-02T00:31:06Z</time>
      </trkpt>
      <trkpt lat="47.99967" lon="0.31719">
        <ele>74.419</ele>
        <time>2016-06-02T00:30:46Z</time>
      </trkpt>
      <trkpt lat="47.9986" lon="0.31809">
        <ele>67.008</ele>
        <time>2016-06-02T00:30:26Z</time>
      </trkpt>
      <trkpt lat="47.99817" lon="0.31565">
        <ele>66.815</ele>
        <time>2016-06-02T00:30:06Z</time>
      </trkpt>
      <trkpt lat="47.99817" lon="0.315">
        <ele>63.423</ele>
        <time>2016-06-02T00:29:46Z</time>
      </trkpt>
      <trkpt lat="47.99922" lon="0.31558">
        <ele>72.033</ele>
        <time>2016-06-02T00:29:26Z</time>
      </trkpt>
      <trkpt lat="47.99962" lon="0.31533">
        <ele>74.858</ele>
        <time>2016-06-02T00:29:06Z</time>
      </trkpt>
      <trkpt lat="47.99982" lon="0.31121">
        <ele>77.629</ele>
        <time>2016-06-02T00:28:46Z</time>
      </trkpt>
      <trkpt lat="48" lon="0.3097">
        <ele>82.023</ele>
        <time>2016-06-02T00:28:26Z</time>
      </trkpt>
      <trkpt lat="48" lon="0.30833">
        <ele>80.051</ele>
        <time>2016-06-02T00:28:06Z</time>
      </trkpt>
      <trkpt lat="48.00017" lon="0.30681">
        <ele>68.365</ele>
        <time>2016-06-02T00:27:46Z</time>
      </trkpt>
      <trkpt lat="48.00011" lon="0.30483">
        <ele>66.692</ele>
        <time>2016-06-02T00:27:26Z</time>
      </trkpt>
      <trkpt lat="48.00046" lon="0.30325">
        <ele>72.777</ele>
        <time>2016-06-02T00:27:06Z</time>
      </trkpt>
      <trkpt lat="48.00031" lon="0.30191">
        <ele>73.011</ele>
        <time>2016-06-02T00:26:46Z</time>
      </trkpt>
      <trkpt lat="47.99896" lon="0.29715">
        <ele>70.208</ele>
        <time>2016-06-02T00:26:26Z</time>
      </trkpt>
      <trkpt lat="47.99878" lon="0.29614">
        <ele>70.611</ele>
        <time>2016-06-02T00:26:06Z</time>
      </trkpt>
      <trkpt lat="47.99836" lon="0.29496">
        <ele>76.556</ele>
        <time>2016-06-02T00:25:46Z</time>
      </trkpt>
      <trkpt lat="47.99833" lon="0.29344">
        <ele>68.454</ele>
        <time>2016-06-02T00:25:26Z</time>
      </trkpt>
      <trkpt lat="47.99816" lon="0.29071">
        <ele>71.341</ele>
        <time>2016-06-02T00:25:06Z</time>
      </trkpt>
      <trkpt lat="47.99825" lon="0.28996">
        <ele>64.762</ele>
        <time>2016-06-02T00:24:46Z</time>
      </trkpt>
      <trkpt lat="47.99784" lon="0.28971">
        <ele>67.126</ele>
        <time>2016-06-02T00:24:26Z</time>
      </trkpt>
      <trkpt lat="47.99682" lon="0.28953">
        <ele>72.644</ele>
        <time>2016-06-02T00:24:06Z</time>
      </trkpt>
      <trkpt lat="47.99642" lon="0.28915">
        <ele>69.718</ele>
        <time>2016-06-02T00:23:46Z</time>
      </trkpt>
      <trkpt lat="47.99566" lon="0.28741">
        <ele>62.725</ele>
        <time>2016-06-02T00:23:26Z</time>
      </trkpt>
      <trkpt lat="47.99468" lon="0.28659">
        <ele>58.03</ele>
        <time>2016-06-02T00:23:06Z</time>
      </trkpt>
      <trkpt lat="47.99517" lon="0.28606">
        <ele>58.434</ele>
        <time>2016-06-02T00:22:46Z</time>
      </trkpt>
      <trkpt lat="47.99466" lon="0.28565">
        <ele>60.408</ele>
        <time>2016-06-02T00:22:26Z</time>
      </trkpt>
      <trkpt lat="47.99444" lon="0.28295">
        <ele>75.226</ele>
        <time>2016-06-02T00:22:06Z</time>
      </trkpt>
      <trkpt lat="47.99421" lon="0.279">
        <ele>78.606</ele>
        <time>2016-06-02T00:21:46Z</time>
      </trkpt>
      <trkpt lat="47.99744" lon="0.27786">
        <ele>64.889</ele>
        <time>2016-06-02T00:21:26Z</time>
      </trkpt>
      <trkpt lat="48.00067" lon="0.27844">
        <ele>58.617</ele>
        <time>2016-06-02T00:21:06Z</time>
      </trkpt>
      <trkpt lat="48.00169" lon="0.27889">
        <ele>60.148</ele>
        <time>2016-06-02T00:20:46Z</time>
      </trkpt>
      <trkpt lat="48.00165" lon="0.27913">
        <ele>58.952</ele>
        <time>2016-06-02T00:20:26Z</time>
      </trkpt>
      <trkpt lat="48.00234" lon="0.28076">
        <ele>61.27</ele>
        <time>2016-06-02T00:20:06Z</time>
      </trkpt>
      <trkpt lat="48.00346" lon="0.28378">
        <ele>62.044</ele>
        <time>2016-06-02T00:19:46Z</time>
      </trkpt>
      <trkpt lat="48.00346" lon="0.28378">
        <ele>62.061</ele>
        <time>2016-06-02T00:19:26Z</time>
      </trkpt>
      <trkpt lat="48.00435" lon="0.2858">
        <ele>61.636</ele>
        <time>2016-06-02T00:19:06Z</time>
      </trkpt>
      <trkpt lat="48.00531" lon="0.28563">
        <ele>61.36</ele>
        <time>2016-06-02T00:18:46Z</time>
      </trkpt>
      <trkpt lat="48.00551" lon="0.28578">
        <ele>61.808</ele>
        <time>2016-06-02T00:18:26Z</time>
      </trkpt>
      <trkpt lat="48.00565" lon="0.28664">
        <ele>63.015</ele>
        <time>2016-06-02T00:18:06Z</time>
      </trkpt>
      <trkpt lat="48.00635" lon="0.28637">
        <ele>62.305</ele>
        <time>2020-12-24T10:39:55Z</time>
      </trkpt>
      <trkpt lat="48.00727" lon="0.28659">
        <ele>61.444</ele>
        <time>2020-12-24T10:39:35Z</time>
      </trkpt>
      <trkpt lat="48.00987" lon="0.28666">
        <ele>61.029</ele>
        <time>2020-12-24T10:39:15Z</time>
      </trkpt>
      <trkpt lat="48.01119" lon="0.28639">
        <ele>64.32</ele>
        <time>2020-12-24T10:38:55Z</time>
      </trkpt>
      <trkpt lat="48.01165" lon="0.28688">
        <ele>65.944</ele>
        <time>2020-12-24T10:38:35Z</time>
      </trkpt>
      <trkpt lat="48.01209" lon="0.28667">
        <ele>67.042</ele>
        <time>2020-12-24T10:38:15Z</time>
      </trkpt>
      <trkpt lat="48.01219" lon="0.28716">
        <ele>66.976</ele>
        <time>2020-12-24T10:37:55Z</time>
      </trkpt>
      <trkpt lat="48.01287" lon="0.28834">
        <ele>70.113</ele>
        <time>2020-12-24T10:37:35Z</time>
      </trkpt>
      <trkpt lat="48.0133" lon="0.28773">
        <ele>73.688</ele>
        <time>2016-06-02T00:14:26Z</time>
      </trkpt>
      <trkpt lat="48.01352" lon="0.28651">
        <ele>74.732</ele>
        <time>2016-06-02T00:14:06Z</time>
      </trkpt>
      <trkpt lat="48.01441" lon="0.28608">
        <ele>77.508</ele>
        <time>2016-06-02T00:13:46Z</time>
      </trkpt>
      <trkpt lat="48.01474" lon="0.2861">
        <ele>77.024</ele>
        <time>2016-06-02T00:13:26Z</time>
      </trkpt>
      <trkpt lat="48.0157" lon="0.28501">
        <ele>65.604</ele>
        <time>2016-06-02T00:13:06Z</time>
      </trkpt>
      <trkpt lat="48.01629" lon="0.28473">
        <ele>63.469</ele>
        <time>2016-06-02T00:12:46Z</time>
      </trkpt>
      <trkpt lat="48.01628" lon="0.28466">
        <ele>62.578</ele>
        <time>2016-06-02T00:12:26Z</time>
      </trkpt>
      <trkpt lat="48.01628" lon="0.28466">
        <ele>62.579</ele>
        <time>2016-06-02T00:12:06Z</time>
      </trkpt>
      <trkpt lat="48.01628" lon="0.28466">
        <ele>62.573</ele>
        <time>2016-06-02T00:11:46Z</time>
      </trkpt>
      <trkpt lat="48.01629" lon="0.28473">
        <ele>63.451</ele>
        <time>2016-06-02T00:11:26Z</time>
      </trkpt>
      <trkpt lat="48.01629" lon="0.28473">
        <ele>63.485</ele>
        <time>2016-06-02T00:11:06Z</time>
      </trkpt>
      <trkpt lat="48.01625" lon="0.28389">
        <ele>54.532</ele>
        <time>2016-06-02T00:10:46Z</time>
      </trkpt>
      <trkpt lat="48.01662" lon="0.28277">
        <ele>52.097</ele>
        <time>2016-06-02T00:10:26Z</time>
      </trkpt>
      <trkpt lat="48.01689" lon="0.27973">
        <ele>53.061</ele>
        <time>2016-06-02T00:10:06Z</time>
      </trkpt>
      <trkpt lat="48.01735" lon="0.27915">
        <ele>51.908</ele>
        <time>2016-06-02T00:09:46Z</time>
      </trkpt>
      <trkpt lat="48.01783" lon="0.27801">
        <ele>52.014</ele>
        <time>2016-06-02T00:09:26Z</time>
      </trkpt>
      <trkpt lat="48.01806" lon="0.27692">
        <ele>57.004</ele>
        <time>2016-06-02T00:09:06Z</time>
      </trkpt>
      <trkpt lat="48.0181" lon="0.27499">
        <ele>51.953</ele>
        <time>2016-06-02T00:08:46Z</time>
      </trkpt>
      <trkpt lat="48.01791" lon="0.27475">
        <ele>53.031</ele>
        <time>2016-06-02T00:08:26Z</time>
      </trkpt>
      <trkpt lat="48.01804" lon="0.27423">
        <ele>54.822</ele>
        <time>2020-12-24T10:30:55Z</time>
      </trkpt>
      <trkpt lat="48.01864" lon="0.27344">
        <ele>61.866</ele>
        <time>2020-12-24T10:30:35Z</time>
      </trkpt>
      <trkpt lat="48.01933" lon="0.27398">
        <ele>66.974</ele>
        <time>2016-06-02T00:07:06Z</time>
      </trkpt>
      <trkpt lat="48.01995" lon="0.27462">
        <ele>66.038</ele>
        <time>2016-06-02T00:06:46Z</time>
      </trkpt>
      <trkpt lat="48.02038" lon="0.27458">
        <ele>65.095</ele>
        <time>2016-06-02T00:06:26Z</time>
      </trkpt>
      <trkpt lat="48.02124" lon="0.27501">
        <ele>54.53</ele>
        <time>2016-06-02T00:06:06Z</time>
      </trkpt>
      <trkpt lat="48.02104" lon="0.27567">
        <ele>52.884</ele>
        <time>2016-06-02T00:05:46Z</time>
      </trkpt>
      <trkpt lat="48.02104" lon="0.27567">
        <ele>52.808</ele>
        <time>2016-06-02T00:05:26Z</time>
      </trkpt>
      <trkpt lat="48.02197" lon="0.27655">
        <ele>56.617</ele>
        <time>2016-06-02T00:05:06Z</time>
      </trkpt>
      <trkpt lat="48.02331" lon="0.27739">
        <ele>59.289</ele>
        <time>2016-06-02T00:04:46Z</time>
      </trkpt>
      <trkpt lat="48.02449" lon="0.2776">
        <ele>69.085</ele>
        <time>2016-06-02T00:04:26Z</time>
      </trkpt>
      <trkpt lat="48.02525" lon="0.27728">
        <ele>65.817</ele>
        <time>2016-06-02T00:04:06Z</time>
      </trkpt>
      <trkpt lat="48.02592" lon="0.2775">
        <ele>68.038</ele>
        <time>2016-06-02T00:03:46Z</time>
      </trkpt>
      <trkpt lat="48.02608" lon="0.27666">
        <ele>66.112</ele>
        <time>2016-06-02T00:03:26Z</time>
      </trkpt>
      <trkpt lat="48.02576" lon="0.27556">
        <ele>77.13</ele>
        <time>2016-06-02T00:03:06Z</time>
      </trkpt>
      <trkpt lat="48.02579" lon="0.27413">
        <ele>90.174</ele>
        <time>2016-06-02T00:02:46Z</time>
      </trkpt>
      <trkpt lat="48.02604" lon="0.27325">
        <ele>86.281</ele>
        <time>2016-06-02T00:02:26Z</time>
      </trkpt>
      <trkpt lat="48.02733" lon="0.27211">
        <ele>81.486</ele>
        <time>2016-06-02T00:02:06Z</time>
      </trkpt>
      <trkpt lat="48.02842" lon="0.27232">
        <ele>81.68</ele>
        <time>2016-06-02T00:01:46Z</time>
      </trkpt>
      <trkpt lat="48.02855" lon="0.27312">
        <ele>77.808</ele>
        <time>2016-06-02T00:01:26Z</time>
      </trkpt>
      <trkpt lat="48.02903" lon="0.2752">
        <ele>71.31</ele>
        <time>2016-06-02T00:01:06Z</time>
      </trkpt>
      <trkpt lat="48.02924" lon="0.2773">
        <ele>69.064</ele>
        <time>2016-06-02T00:00:46Z</time>
      </trkpt>
      <trkpt lat="48.02947" lon="0.27838">
        <ele>69.043</ele>
        <time>2016-06-02T00:00:26Z</time>
      </trkpt>
      <trkpt lat="48.02999" lon="0.27972">
        <ele>68.052</ele>
        <time>2016-06-02T00:00:06Z</time>
      </trkpt>
      <trkpt lat="48.02999" lon="0.27972">
        <ele>68.033</ele>
        <time>2016-06-01T23:59:46Z</time>
      </trkpt>
      <trkpt lat="48.03035" lon="0.28015">
        <ele>65.237</ele>
        <time>2016-06-01T23:59:26Z</time>
      </trkpt>
      <trkpt lat="48.03019" lon="0.28042">
        <ele>65.715</ele>
        <time>2016-06-01T23:59:06Z</time>
      </trkpt>
      <trkpt lat="48.03059" lon="0.2807">
        <ele>65.529</ele>
        <time>2016-06-01T23:58:46Z</time>
      </trkpt>
      <trkpt lat="48.0313" lon="0.28148">
        <ele>65.776</ele>
        <time>2016-06-01T23:58:26Z</time>
      </trkpt>
      <trkpt lat="48.03158" lon="0.28195">
        <ele>64.011</ele>
        <time>2016-06-01T23:58:06Z</time>
      </trkpt>
      <trkpt lat="48.03239" lon="0.28195">
        <ele>69.245</ele>
        <time>2016-06-01T23:57:46Z</time>
      </trkpt>
      <trkpt lat="48.03318" lon="0.28206">
        <ele>67.608</ele>
        <time>2016-06-01T23:57:26Z</time>
      </trkpt>
      <trkpt lat="48.03384" lon="0.28203">
        <ele>65.427</ele>
        <time>2016-06-01T23:57:06Z</time>
      </trkpt>
      <trkpt lat="48.03432" lon="0.28199">
        <ele>65.307</ele>
        <time>2016-06-01T23:56:46Z</time>
      </trkpt>
      <trkpt lat="48.03471" lon="0.2821">
        <ele>64.099</ele>
        <time>2016-06-01T23:56:26Z</time>
      </trkpt>
      <trkpt lat="48.03496" lon="0.28212">
        <ele>62.951</ele>
        <time>2016-06-01T23:56:06Z</time>
      </trkpt>
      <trkpt lat="48.0352" lon="0.28248">
        <ele>62.012</ele>
        <time>2016-06-01T23:55:46Z</time>
      </trkpt>
      <trkpt lat="48.03536" lon="0.28276">
        <ele>61.326</ele>
        <time>2016-06-01T23:55:26Z</time>
      </trkpt>
      <trkpt lat="48.03605" lon="0.28294">
        <ele>67.584</ele>
        <time>2016-06-01T23:55:06Z</time>
      </trkpt>
      <trkpt lat="48.03658" lon="0.28287">
        <ele>73.058</ele>
        <time>2016-06-01T23:54:46Z</time>
      </trkpt>
      <trkpt lat="48.03706" lon="0.28298">
        <ele>77.535</ele>
        <time>2016-06-01T23:54:26Z</time>
      </trkpt>
      <trkpt lat="48.04025" lon="0.28493">
        <ele>87.54</ele>
        <time>2016-06-01T23:54:06Z</time>
      </trkpt>
      <trkpt lat="48.04111" lon="0.28485">
        <ele>83.744</ele>
        <time>2016-06-01T23:53:46Z</time>
      </trkpt>
      <trkpt lat="48.04131" lon="0.28467">
        <ele>81.108</ele>
        <time>2016-06-01T23:53:26Z</time>
      </trkpt>
      <trkpt lat="48.04216" lon="0.28457">
        <ele>72.726</ele>
        <time>2016-06-01T23:53:06Z</time>
      </trkpt>
      <trkpt lat="48.04326" lon="0.28429">
        <ele>72.542</ele>
        <time>2016-06-01T23:52:46Z</time>
      </trkpt>
      <trkpt lat="48.04342" lon="0.28433">
        <ele>72.787</ele>
        <time>2016-06-01T23:52:26Z</time>
      </trkpt>
      <trkpt lat="48.04342" lon="0.28465">
        <ele>71.656</ele>
        <time>2016-06-01T23:52:06Z</time>
      </trkpt>
      <trkpt lat="48.04353" lon="0.28495">
        <ele>70.197</ele>
        <time>2016-06-01T23:51:46Z</time>
      </trkpt>
      <trkpt lat="48.04407" lon="0.28512">
        <ele>69.641</ele>
        <time>2016-06-01T23:51:26Z</time>
      </trkpt>
      <trkpt lat="48.04432" lon="0.28506">
        <ele>70.279</ele>
        <time>2016-06-01T23:51:06Z</time>
      </trkpt>
      <trkpt lat="48.0445" lon="0.28523">
        <ele>69.573</ele>
        <time>2016-06-01T23:50:46Z</time>
      </trkpt>
      <trkpt lat="48.04495" lon="0.28603">
        <ele>68.16</ele>
        <time>2016-06-01T23:50:26Z</time>
      </trkpt>
      <trkpt lat="48.04603" lon="0.28723">
        <ele>65.355</ele>
        <time>2016-06-01T23:50:06Z</time>
      </trkpt>
      <trkpt lat="48.04613" lon="0.28751">
        <ele>64.159</ele>
        <time>2016-06-01T23:49:46Z</time>
      </trkpt>
      <trkpt lat="48.0463" lon="0.28716">
        <ele>66.108</ele>
        <time>2016-06-01T23:49:26Z</time>
      </trkpt>
      <trkpt lat="48.04663" lon="0.2853">
        <ele>70.921</ele>
        <time>2016-06-01T23:49:06Z</time>
      </trkpt>
      <trkpt lat="48.04669" lon="0.2847">
        <ele>73.301</ele>
        <time>2016-06-01T23:48:46Z</time>
      </trkpt>
      <trkpt lat="48.04679" lon="0.28261">
        <ele>79.339</ele>
        <time>2016-06-01T23:48:26Z</time>
      </trkpt>
      <trkpt lat="48.04698" lon="0.28083">
        <ele>96.34</ele>
        <time>2016-06-01T23:48:06Z</time>
      </trkpt>
      <trkpt lat="48.04653" lon="0.28008">
        <ele>111.351</ele>
        <time>2016-06-01T23:47:46Z</time>
      </trkpt>
      <trkpt lat="48.04616" lon="0.27888">
        <ele>111.095</ele>
        <time>2016-06-01T23:47:26Z</time>
      </trkpt>
      <trkpt lat="48.0465" lon="0.27847">
        <ele>112.713</ele>
        <time>2016-06-01T23:47:06Z</time>
      </trkpt>
      <trkpt lat="48.04736" lon="0.27815">
        <ele>111.117</ele>
        <time>2016-06-01T23:46:46Z</time>
      </trkpt>
      <trkpt lat="48.04825" lon="0.27721">
        <ele>113.134</ele>
        <time>2016-06-01T23:46:26Z</time>
      </trkpt>
      <trkpt lat="48.04863" lon="0.27605">
        <ele>113.839</ele>
        <time>2016-06-01T23:46:06Z</time>
      </trkpt>
      <trkpt lat="48.04886" lon="0.2742">
        <ele>112.323</ele>
        <time>2016-06-01T23:45:46Z</time>
      </trkpt>
      <trkpt lat="48.0492" lon="0.27442">
        <ele>111.208</ele>
        <time>2016-06-01T23:45:26Z</time>
      </trkpt>
      <trkpt lat="48.05075" lon="0.276">
        <ele>103.319</ele>
        <time>2016-06-01T23:45:06Z</time>
      </trkpt>
      <trkpt lat="48.05155" lon="0.27729">
        <ele>96.99</ele>
        <time>2016-06-01T23:44:46Z</time>
      </trkpt>
      <trkpt lat="48.052" lon="0.27787">
        <ele>93.176</ele>
        <time>2016-06-01T23:44:26Z</time>
      </trkpt>
      <trkpt lat="48.05251" lon="0.27826">
        <ele>87.688</ele>
        <time>2016-06-01T23:44:06Z</time>
      </trkpt>
      <trkpt lat="48.05303" lon="0.27907">
        <ele>82.279</ele>
        <time>2016-06-01T23:43:46Z</time>
      </trkpt>
      <trkpt lat="48.05362" lon="0.27955">
        <ele>80.063</ele>
        <time>2016-06-01T23:43:26Z</time>
      </trkpt>
      <trkpt lat="48.05375" lon="0.27989">
        <ele>79.291</ele>
        <time>2016-06-01T23:43:06Z</time>
      </trkpt>
      <trkpt lat="48.05479" lon="0.28081">
        <ele>74.315</ele>
        <time>2016-06-01T23:42:46Z</time>
      </trkpt>
      <trkpt lat="48.05537" lon="0.28107">
        <ele>76.012</ele>
        <time>2016-06-01T23:42:26Z</time>
      </trkpt>
      <trkpt lat="48.05573" lon="0.28105">
        <ele>75.317</ele>
        <time>2016-06-01T23:42:06Z</time>
      </trkpt>
      <trkpt lat="48.0567" lon="0.2807">
        <ele>75.011</ele>
        <time>2016-06-01T23:41:46Z</time>
      </trkpt>
      <trkpt lat="48.05708" lon="0.28066">
        <ele>76.908</ele>
        <time>2016-06-01T23:41:26Z</time>
      </trkpt>
      <trkpt lat="48.05829" lon="0.28126">
        <ele>83.014</ele>
        <time>2016-06-01T23:41:06Z</time>
      </trkpt>
      <trkpt lat="48.059" lon="0.28152">
        <ele>82.404</ele>
        <time>2016-06-01T23:40:46Z</time>
      </trkpt>
      <trkpt lat="48.05969" lon="0.28191">
        <ele>77.453</ele>
        <time>2016-06-01T23:40:26Z</time>
      </trkpt>
      <trkpt lat="48.06099" lon="0.28242">
        <ele>70.411</ele>
        <time>2016-06-01T23:40:06Z</time>
      </trkpt>
      <trkpt lat="48.06154" lon="0.28038">
        <ele>73.862</ele>
        <time>2016-06-01T23:39:46Z</time>
      </trkpt>
      <trkpt lat="48.06174" lon="0.28002">
        <ele>74.266</ele>
        <time>2016-06-01T23:39:26Z</time>
      </trkpt>
      <trkpt lat="48.06185" lon="0.27892">
        <ele>78.254</ele>
        <time>2016-06-01T23:39:06Z</time>
      </trkpt>
      <trkpt lat="48.06201" lon="0.27847">
        <ele>80.458</ele>
        <time>2016-06-01T23:38:46Z</time>
      </trkpt>
      <trkpt lat="48.06242" lon="0.27806">
        <ele>76.835</ele>
        <time>2016-06-01T23:38:26Z</time>
      </trkpt>
      <trkpt lat="48.06285" lon="0.27776">
        <ele>72.12</ele>
        <time>2016-06-01T23:38:06Z</time>
      </trkpt>
      <trkpt lat="48.06351" lon="0.27697">
        <ele>68.614</ele>
        <time>2016-06-01T23:37:46Z</time>
      </trkpt>
      <trkpt lat="48.06362" lon="0.27667">
        <ele>69.008</ele>
        <time>2016-06-01T23:37:26Z</time>
      </trkpt>
      <trkpt lat="48.06314" lon="0.27605">
        <ele>68.717</ele>
        <time>2016-06-01T23:37:06Z</time>
      </trkpt>
      <trkpt lat="48.06222" lon="0.27399">
        <ele>72.661</ele>
        <time>2016-06-01T23:36:46Z</time>
      </trkpt>
      <trkpt lat="48.06222" lon="0.27322">
        <ele>75.481</ele>
        <time>2016-06-01T23:36:26Z</time>
      </trkpt>
      <trkpt lat="48.06232" lon="0.27238">
        <ele>78.816</ele>
        <time>2016-06-01T23:36:06Z</time>
      </trkpt>
      <trkpt lat="48.0625" lon="0.27128">
        <ele>77.047</ele>
        <time>2016-06-01T23:35:46Z</time>
      </trkpt>
      <trkpt lat="48.06268" lon="0.27092">
        <ele>77.011</ele>
        <time>2016-06-01T23:35:26Z</time>
      </trkpt>
      <trkpt lat="48.06274" lon="0.27053">
        <ele>77.079</ele>
        <time>2016-06-01T23:35:06Z</time>
      </trkpt>
      <trkpt lat="48.06209" lon="0.26643">
        <ele>86.923</ele>
        <time>2016-06-01T23:34:46Z</time>
      </trkpt>
      <trkpt lat="48.06211" lon="0.26581">
        <ele>85.43</ele>
        <time>2016-06-01T23:34:26Z</time>
      </trkpt>
      <trkpt lat="48.06194" lon="0.2651">
        <ele>87.835</ele>
        <time>2016-06-01T23:34:06Z</time>
      </trkpt>
      <trkpt lat="48.06189" lon="0.26421">
        <ele>88.489</ele>
        <time>2016-06-01T23:33:46Z</time>
      </trkpt>
      <trkpt lat="48.06207" lon="0.26412">
        <ele>86.608</ele>
        <time>2016-06-01T23:33:26Z</time>
      </trkpt>
      <trkpt lat="48.06206" lon="0.26348">
        <ele>87.221</ele>
        <time>2016-06-01T23:33:06Z</time>
      </trkpt>
      <trkpt lat="48.06189" lon="0.2629">
        <ele>94.001</ele>
        <time>2016-06-01T23:32:46Z</time>
      </trkpt>
      <trkpt lat="48.06195" lon="0.26212">
        <ele>96.639</ele>
        <time>2016-06-01T23:32:26Z</time>
      </trkpt>
      <trkpt lat="48.06215" lon="0.26109">
        <ele>95.725</ele>
        <time>2016-06-01T23:32:06Z</time>
      </trkpt>
      <trkpt lat="48.06232" lon="0.26019">
        <ele>99.816</ele>
        <time>2016-06-01T23:31:46Z</time>
      </trkpt>
      <trkpt lat="48.06254" lon="0.25577">
        <ele>108.29</ele>
        <time>2016-06-01T23:31:26Z</time>
      </trkpt>
      <trkpt lat="48.06321" lon="0.25616">
        <ele>105.368</ele>
        <time>2016-06-01T23:31:06Z</time>
      </trkpt>
      <trkpt lat="48.06377" lon="0.25656">
        <ele>101.942</ele>
        <time>2016-06-01T23:30:46Z</time>
      </trkpt>
      <trkpt lat="48.06425" lon="0.25714">
        <ele>108.299</ele>
        <time>2016-06-01T23:30:26Z</time>
      </trkpt>
      <trkpt lat="48.06458" lon="0.25716">
        <ele>110.844</ele>
        <time>2016-06-01T23:30:06Z</time>
      </trkpt>
      <trkpt lat="48.06568" lon="0.25671">
        <ele>108.788</ele>
        <time>2016-06-01T23:29:26Z</time>
      </trkpt>
      <trkpt lat="48.06698" lon="0.25738">
        <ele>110.808</ele>
        <time>2016-06-01T23:29:06Z</time>
      </trkpt>
      <trkpt lat="48.06714" lon="0.25766">
        <ele>113.014</ele>
        <time>2016-06-01T23:28:46Z</time>
      </trkpt>
      <trkpt lat="48.06762" lon="0.25783">
        <ele>114.904</ele>
        <time>2016-06-01T23:28:26Z</time>
      </trkpt>
      <trkpt lat="48.06825" lon="0.25832">
        <ele>115.224</ele>
        <time>2016-06-01T23:28:06Z</time>
      </trkpt>
      <trkpt lat="48.06911" lon="0.25839">
        <ele>118.844</ele>
        <time>2016-06-01T23:27:46Z</time>
      </trkpt>
      <trkpt lat="48.07081" lon="0.26068">
        <ele>116.255</ele>
        <time>2016-06-01T23:27:26Z</time>
      </trkpt>
      <trkpt lat="48.0719" lon="0.26056">
        <ele>111.399</ele>
        <time>2016-06-01T23:27:06Z</time>
      </trkpt>
      <trkpt lat="48.07374" lon="0.26154">
        <ele>89.487</ele>
        <time>2016-06-01T23:26:46Z</time>
      </trkpt>
      <trkpt lat="48.07487" lon="0.26118">
        <ele>86.321</ele>
        <time>2016-06-01T23:26:26Z</time>
      </trkpt>
      <trkpt lat="48.07544" lon="0.26131">
        <ele>86.528</ele>
        <time>2016-06-01T23:26:06Z</time>
      </trkpt>
      <trkpt lat="48.07576" lon="0.26101">
        <ele>87.513</ele>
        <time>2016-06-01T23:25:46Z</time>
      </trkpt>
      <trkpt lat="48.07777" lon="0.26165">
        <ele>76.067</ele>
        <time>2016-06-01T23:25:26Z</time>
      </trkpt>
      <trkpt lat="48.07808" lon="0.26161">
        <ele>76.108</ele>
        <time>2016-06-01T23:25:06Z</time>
      </trkpt>
      <trkpt lat="48.07738" lon="0.25957">
        <ele>78.211</ele>
        <time>2016-06-01T23:24:46Z</time>
      </trkpt>
      <trkpt lat="48.0786" lon="0.25843">
        <ele>89.565</ele>
        <time>2016-06-01T23:24:26Z</time>
      </trkpt>
      <trkpt lat="48.07906" lon="0.25742">
        <ele>95.915</ele>
        <time>2016-06-01T23:24:06Z</time>
      </trkpt>
      <trkpt lat="48.07921" lon="0.25676">
        <ele>98.748</ele>
        <time>2016-06-01T23:23:46Z</time>
      </trkpt>
      <trkpt lat="48.0795" lon="0.25624">
        <ele>100.239</ele>
        <time>2016-06-01T23:23:26Z</time>
      </trkpt>
      <trkpt lat="48.08033" lon="0.25528">
        <ele>108.433</ele>
        <time>2016-06-01T23:23:06Z</time>
      </trkpt>
      <trkpt lat="48.08073" lon="0.2551">
        <ele>109.871</ele>
        <time>2016-06-01T23:22:46Z</time>
      </trkpt>
      <trkpt lat="48.08114" lon="0.25474">
        <ele>110.765</ele>
        <time>2016-06-01T23:22:26Z</time>
      </trkpt>
      <trkpt lat="48.08121" lon="0.2542">
        <ele>117.792</ele>
        <time>2016-06-01T23:22:06Z</time>
      </trkpt>
      <trkpt lat="48.08104" lon="0.25395">
        <ele>117.887</ele>
        <time>2016-06-01T23:21:46Z</time>
      </trkpt>
      <trkpt lat="48.08046" lon="0.25274">
        <ele>121.161</ele>
        <time>2016-06-01T23:21:26Z</time>
      </trkpt>
      <trkpt lat="48.07794" lon="0.24963">
        <ele>129.408</ele>
        <time>2016-06-01T23:21:06Z</time>
      </trkpt>
      <trkpt lat="48.07741" lon="0.24835">
        <ele>125.708</ele>
        <time>2016-06-01T23:20:46Z</time>
      </trkpt>
      <trkpt lat="48.07639" lon="0.24573">
        <ele>117.653</ele>
        <time>2016-06-01T23:20:26Z</time>
      </trkpt>
      <trkpt lat="48.07616" lon="0.24455">
        <ele>115.052</ele>
        <time>2016-06-01T23:20:06Z</time>
      </trkpt>
      <trkpt lat="48.0761" lon="0.24369">
        <ele>113.431</ele>
        <time>2016-06-01T23:19:46Z</time>
      </trkpt>
      <trkpt lat="48.07622" lon="0.24307">
        <ele>112.472</ele>
        <time>2016-06-01T23:19:26Z</time>
      </trkpt>
      <trkpt lat="48.07643" lon="0.24234">
        <ele>115.286</ele>
        <time>2016-06-01T23:19:06Z</time>
      </trkpt>
      <trkpt lat="48.07701" lon="0.24111">
        <ele>120.834</ele>
        <time>2016-06-01T23:18:46Z</time>
      </trkpt>
      <trkpt lat="48.07709" lon="0.24086">
        <ele>121.048</ele>
        <time>2016-06-01T23:18:26Z</time>
      </trkpt>
      <trkpt lat="48.07751" lon="0.24058">
        <ele>121.045</ele>
        <time>2016-06-01T23:18:06Z</time>
      </trkpt>
      <trkpt lat="48.07787" lon="0.23985">
        <ele>116.83</ele>
        <time>2016-06-01T23:17:46Z</time>
      </trkpt>
      <trkpt lat="48.07814" lon="0.23903">
        <ele>112.124</ele>
        <time>2016-06-01T23:17:26Z</time>
      </trkpt>
      <trkpt lat="48.07824" lon="0.23796">
        <ele>110.208</ele>
        <time>2016-06-01T23:17:06Z</time>
      </trkpt>
      <trkpt lat="48.07856" lon="0.23779">
        <ele>108.326</ele>
        <time>2016-06-01T23:16:46Z</time>
      </trkpt>
      <trkpt lat="48.08042" lon="0.23766">
        <ele>99.76</ele>
        <time>2016-06-01T23:16:26Z</time>
      </trkpt>
      <trkpt lat="48.08078" lon="0.23779">
        <ele>92.286</ele>
        <time>2016-06-01T23:16:06Z</time>
      </trkpt>
      <trkpt lat="48.08131" lon="0.23719">
        <ele>90.399</ele>
        <time>2016-06-01T23:15:46Z</time>
      </trkpt>
      <trkpt lat="48.08137" lon="0.23642">
        <ele>88.45</ele>
        <time>2016-06-01T23:15:26Z</time>
      </trkpt>
      <trkpt lat="48.08231" lon="0.23599">
        <ele>90.794</ele>
        <time>2016-06-01T23:15:06Z</time>
      </trkpt>
      <trkpt lat="48.08263" lon="0.23461">
        <ele>90.742</ele>
        <time>2016-06-01T23:14:46Z</time>
      </trkpt>
      <trkpt lat="48.0836" lon="0.23386">
        <ele>88.926</ele>
        <time>2016-06-01T23:14:26Z</time>
      </trkpt>
      <trkpt lat="48.08316" lon="0.23178">
        <ele>84.793</ele>
        <time>2016-06-01T23:14:06Z</time>
      </trkpt>
      <trkpt lat="48.0831" lon="0.23109">
        <ele>82.718</ele>
        <time>2016-06-01T23:13:46Z</time>
      </trkpt>
      <trkpt lat="48.08405" lon="0.22867">
        <ele>77.062</ele>
        <time>2016-06-01T23:13:26Z</time>
      </trkpt>
      <trkpt lat="48.08428" lon="0.22594">
        <ele>77.408</ele>
        <time>2016-06-01T23:13:06Z</time>
      </trkpt>
      <trkpt lat="48.0837" lon="0.22541">
        <ele>73.216</ele>
        <time>2016-06-01T23:12:46Z</time>
      </trkpt>
      <trkpt lat="48.08284" lon="0.22464">
        <ele>74.006</ele>
        <time>2016-06-01T23:12:26Z</time>
      </trkpt>
      <trkpt lat="48.08214" lon="0.22429">
        <ele>72.664</ele>
        <time>2016-06-01T23:12:06Z</time>
      </trkpt>
      <trkpt lat="48.08111" lon="0.22461">
        <ele>70.046</ele>
        <time>2016-06-01T23:11:46Z</time>
      </trkpt>
      <trkpt lat="48.08082" lon="0.22453">
        <ele>69.027</ele>
        <time>2016-06-01T23:11:26Z</time>
      </trkpt>
      <trkpt lat="48.08008" lon="0.22416">
        <ele>70.631</ele>
        <time>2016-06-01T23:11:06Z</time>
      </trkpt>
      <trkpt lat="48.07947" lon="0.22416">
        <ele>68.139</ele>
        <time>2016-06-01T23:10:46Z</time>
      </trkpt>
      <trkpt lat="48.07907" lon="0.22399">
        <ele>67.073</ele>
        <time>2016-06-01T23:10:26Z</time>
      </trkpt>
      <trkpt lat="48.07813" lon="0.22365">
        <ele>68.17</ele>
        <time>2016-06-01T23:10:06Z</time>
      </trkpt>
      <trkpt lat="48.07808" lon="0.22313">
        <ele>68.045</ele>
        <time>2016-06-01T23:09:46Z</time>
      </trkpt>
      <trkpt lat="48.07814" lon="0.22253">
        <ele>67.189</ele>
        <time>2016-06-01T23:09:26Z</time>
      </trkpt>
      <trkpt lat="48.07851" lon="0.2221">
        <ele>67.608</ele>
        <time>2016-06-01T23:09:06Z</time>
      </trkpt>
      <trkpt lat="48.0787" lon="0.22157">
        <ele>69.91</ele>
        <time>2016-06-01T23:08:46Z</time>
      </trkpt>
      <trkpt lat="48.07983" lon="0.21955">
        <ele>82.455</ele>
        <time>2016-06-01T23:08:26Z</time>
      </trkpt>
      <trkpt lat="48.07942" lon="0.21882">
        <ele>81.034</ele>
        <time>2016-06-01T23:08:06Z</time>
      </trkpt>
      <trkpt lat="48.07886" lon="0.21751">
        <ele>80.948</ele>
        <time>2016-06-01T23:07:46Z</time>
      </trkpt>
      <trkpt lat="48.07729" lon="0.21691">
        <ele>78.329</ele>
        <time>2016-06-01T23:07:26Z</time>
      </trkpt>
      <trkpt lat="48.07751" lon="0.21607">
        <ele>75.013</ele>
        <time>2016-06-01T23:07:06Z</time>
      </trkpt>
      <trkpt lat="48.07791" lon="0.21515">
        <ele>73.091</ele>
        <time>2016-06-01T23:06:46Z</time>
      </trkpt>
      <trkpt lat="48.07823" lon="0.21498">
        <ele>72.435</ele>
        <time>2016-06-01T23:06:26Z</time>
      </trkpt>
      <trkpt lat="48.07986" lon="0.21511">
        <ele>75.122</ele>
        <time>2016-06-01T23:06:06Z</time>
      </trkpt>
      <trkpt lat="48.08068" lon="0.21586">
        <ele>82.547</ele>
        <time>2016-06-01T23:05:46Z</time>
      </trkpt>
      <trkpt lat="48.08109" lon="0.21594">
        <ele>85.351</ele>
        <time>2016-06-01T23:05:26Z</time>
      </trkpt>
      <trkpt lat="48.08115" lon="0.21571">
        <ele>84.408</ele>
        <time>2016-06-01T23:05:06Z</time>
      </trkpt>
      <trkpt lat="48.08212" lon="0.21502">
        <ele>89.717</ele>
        <time>2016-06-01T23:04:46Z</time>
      </trkpt>
      <trkpt lat="48.08181" lon="0.21255">
        <ele>76.007</ele>
        <time>2016-06-01T23:04:26Z</time>
      </trkpt>
      <trkpt lat="48.08169" lon="0.21135">
        <ele>71.555</ele>
        <time>2016-06-01T23:04:06Z</time>
      </trkpt>
      <trkpt lat="48.08294" lon="0.21079">
        <ele>68.45</ele>
        <time>2016-06-01T23:03:46Z</time>
      </trkpt>
      <trkpt lat="48.08266" lon="0.20863">
        <ele>59.191</ele>
        <time>2016-06-01T23:03:26Z</time>
      </trkpt>
      <trkpt lat="48.08309" lon="0.20852">
        <ele>59.065</ele>
        <time>2016-06-01T23:03:06Z</time>
      </trkpt>
      <trkpt lat="48.08281" lon="0.20592">
        <ele>56.093</ele>
        <time>2016-06-01T23:02:46Z</time>
      </trkpt>
      <trkpt lat="48.08247" lon="0.20547">
        <ele>57.047</ele>
        <time>2016-06-01T23:02:26Z</time>
      </trkpt>
      <trkpt lat="48.08261" lon="0.20494">
        <ele>56.624</ele>
        <time>2016-06-01T23:02:06Z</time>
      </trkpt>
      <trkpt lat="48.08291" lon="0.20507">
        <ele>56.069</ele>
        <time>2016-06-01T23:01:46Z</time>
      </trkpt>
      <trkpt lat="48.08357" lon="0.205">
        <ele>57.953</ele>
        <time>2016-06-01T23:01:26Z</time>
      </trkpt>
      <trkpt lat="48.08465" lon="0.20526">
        <ele>54.308</ele>
        <time>2016-06-01T23:01:06Z</time>
      </trkpt>
      <trkpt lat="48.08546" lon="0.20567">
        <ele>51.021</ele>
        <time>2016-06-01T23:00:46Z</time>
      </trkpt>
      <trkpt lat="48.08611" lon="0.20618">
        <ele>52.056</ele>
        <time>2016-06-01T23:00:26Z</time>
      </trkpt>
      <trkpt lat="48.08632" lon="0.20663">
        <ele>51.074</ele>
        <time>2016-06-01T23:00:06Z</time>
      </trkpt>
      <trkpt lat="48.08832" lon="0.20751">
        <ele>51.987</ele>
        <time>2016-06-01T22:59:46Z</time>
      </trkpt>
      <trkpt lat="48.08879" lon="0.20762">
        <ele>52.448</ele>
        <time>2016-06-01T22:59:26Z</time>
      </trkpt>
      <trkpt lat="48.08981" lon="0.20749">
        <ele>51.772</ele>
        <time>2016-06-01T22:59:06Z</time>
      </trkpt>
      <trkpt lat="48.09011" lon="0.20749">
        <ele>51.02</ele>
        <time>2016-06-01T22:58:46Z</time>
      </trkpt>
      <trkpt lat="48.09052" lon="0.20781">
        <ele>52.974</ele>
        <time>2016-06-01T22:58:26Z</time>
      </trkpt>
      <trkpt lat="48.0906" lon="0.20968">
        <ele>51.031</ele>
        <time>2016-06-01T22:58:06Z</time>
      </trkpt>
      <trkpt lat="48.09051" lon="0.21067">
        <ele>50.876</ele>
        <time>2016-06-01T22:57:46Z</time>
      </trkpt>
      <trkpt lat="48.09295" lon="0.21032">
        <ele>50.48</ele>
        <time>2016-06-01T22:57:26Z</time>
      </trkpt>
      <trkpt lat="48.09452" lon="0.21092">
        <ele>51.008</ele>
        <time>2016-06-01T22:57:06Z</time>
      </trkpt>
      <trkpt lat="48.09537" lon="0.21191">
        <ele>51.314</ele>
        <time>2016-06-01T22:56:46Z</time>
      </trkpt>
      <trkpt lat="48.09584" lon="0.21219">
        <ele>51.122</ele>
        <time>2016-06-01T22:56:26Z</time>
      </trkpt>
      <trkpt lat="48.09636" lon="0.21228">
        <ele>50.542</ele>
        <time>2016-06-01T22:56:06Z</time>
      </trkpt>
      <trkpt lat="48.09713" lon="0.21178">
        <ele>49.699</ele>
        <time>2016-06-01T22:55:46Z</time>
      </trkpt>
      <trkpt lat="48.09796" lon="0.2115">
        <ele>51.01</ele>
        <time>2016-06-01T22:55:26Z</time>
      </trkpt>
      <trkpt lat="48.09912" lon="0.21088">
        <ele>53.844</ele>
        <time>2016-06-01T22:55:06Z</time>
      </trkpt>
      <trkpt lat="48.09965" lon="0.21073">
        <ele>55.472</ele>
        <time>2016-06-01T22:54:46Z</time>
      </trkpt>
      <trkpt lat="48.10023" lon="0.21071">
        <ele>57.776</ele>
        <time>2016-06-01T22:54:26Z</time>
      </trkpt>
      <trkpt lat="48.1011" lon="0.21011">
        <ele>58.623</ele>
        <time>2016-06-01T22:54:06Z</time>
      </trkpt>
      <trkpt lat="48.1012" lon="0.20942">
        <ele>58.498</ele>
        <time>2016-06-01T22:53:46Z</time>
      </trkpt>
      <trkpt lat="48.10159" lon="0.20923">
        <ele>56.372</ele>
        <time>2016-06-01T22:53:26Z</time>
      </trkpt>
      <trkpt lat="48.10256" lon="0.20908">
        <ele>54.908</ele>
        <time>2016-06-01T22:53:06Z</time>
      </trkpt>
      <trkpt lat="48.10285" lon="0.20934">
        <ele>56.319</ele>
        <time>2016-06-01T22:52:46Z</time>
      </trkpt>
      <trkpt lat="48.10308" lon="0.20981">
        <ele>57.781</ele>
        <time>2016-06-01T22:52:26Z</time>
      </trkpt>
      <trkpt lat="48.10348" lon="0.20961">
        <ele>58.067</ele>
        <time>2016-06-01T22:52:06Z</time>
      </trkpt>
      <trkpt lat="48.10435" lon="0.20876">
        <ele>57.068</ele>
        <time>2016-06-01T22:51:46Z</time>
      </trkpt>
      <trkpt lat="48.10582" lon="0.20818">
        <ele>60.069</ele>
        <time>2016-06-01T22:51:26Z</time>
      </trkpt>
      <trkpt lat="48.10619" lon="0.20777">
        <ele>59.273</ele>
        <time>2016-06-01T22:51:06Z</time>
      </trkpt>
      <trkpt lat="48.10748" lon="0.20601">
        <ele>60.051</ele>
        <time>2016-06-01T22:50:46Z</time>
      </trkpt>
      <trkpt lat="48.10808" lon="0.20492">
        <ele>59.665</ele>
        <time>2016-06-01T22:50:26Z</time>
      </trkpt>
      <trkpt lat="48.10849" lon="0.20356">
        <ele>59.092</ele>
        <time>2016-06-01T22:50:06Z</time>
      </trkpt>
      <trkpt lat="48.10971" lon="0.20148">
        <ele>58.077</ele>
        <time>2016-06-01T22:49:46Z</time>
      </trkpt>
      <trkpt lat="48.1104" lon="0.20077">
        <ele>58.951</ele>
        <time>2016-06-01T22:49:26Z</time>
      </trkpt>
      <trkpt lat="48.11106" lon="0.20022">
        <ele>62.008</ele>
        <time>2016-06-01T22:49:06Z</time>
      </trkpt>
      <trkpt lat="48.11215" lon="0.19957">
        <ele>63.017</ele>
        <time>2016-06-01T22:48:46Z</time>
      </trkpt>
      <trkpt lat="48.11248" lon="0.1976">
        <ele>60.107</ele>
        <time>2016-06-01T22:48:26Z</time>
      </trkpt>
      <trkpt lat="48.11327" lon="0.19462">
        <ele>54.055</ele>
        <time>2016-06-01T22:48:06Z</time>
      </trkpt>
      <trkpt lat="48.11329" lon="0.19417">
        <ele>53.18</ele>
        <time>2016-06-01T22:47:46Z</time>
      </trkpt>
      <trkpt lat="48.11352" lon="0.1941">
        <ele>52.891</ele>
        <time>2016-06-01T22:47:26Z</time>
      </trkpt>
      <trkpt lat="48.11386" lon="0.19295">
        <ele>52.455</ele>
        <time>2020-12-24T09:10:35Z</time>
      </trkpt>
      <trkpt lat="48.11434" lon="0.19287">
        <ele>52.223</ele>
        <time>2020-12-24T09:10:15Z</time>
      </trkpt>
      <trkpt lat="48.11485" lon="0.19297">
        <ele>53.447</ele>
        <time>2020-12-24T09:09:55Z</time>
      </trkpt>
      <trkpt lat="48.11584" lon="0.193">
        <ele>53.644</ele>
        <time>2020-12-24T09:09:35Z</time>
      </trkpt>
      <trkpt lat="48.1152" lon="0.19133">
        <ele>49.729</ele>
        <time>2020-12-24T09:09:15Z</time>
      </trkpt>
      <trkpt lat="48.11457" lon="0.19103">
        <ele>50.383</ele>
        <time>2020-12-24T09:08:55Z</time>
      </trkpt>
      <trkpt lat="48.11616" lon="0.18625">
        <ele>50.408</ele>
        <time>2016-06-01T22:45:46Z</time>
      </trkpt>
      <trkpt lat="48.11636" lon="0.1859">
        <ele>50.821</ele>
        <time>2016-06-01T22:45:26Z</time>
      </trkpt>
      <trkpt lat="48.11761" lon="0.18432">
        <ele>53.356</ele>
        <time>2016-06-01T22:45:06Z</time>
      </trkpt>
      <trkpt lat="48.11788" lon="0.18417">
        <ele>53.074</ele>
        <time>2016-06-01T22:44:46Z</time>
      </trkpt>
      <trkpt lat="48.11813" lon="0.18396">
        <ele>53.25</ele>
        <time>2020-12-24T09:07:15Z</time>
      </trkpt>
      <trkpt lat="48.11822" lon="0.18422">
        <ele>52.971</ele>
        <time>2020-12-24T09:06:55Z</time>
      </trkpt>
      <trkpt lat="48.11952" lon="0.1849">
        <ele>53.685</ele>
        <time>2020-12-24T09:06:35Z</time>
      </trkpt>
      <trkpt lat="48.12015" lon="0.18491">
        <ele>53.223</ele>
        <time>2020-12-24T09:06:15Z</time>
      </trkpt>
      <trkpt lat="48.12159" lon="0.18505">
        <ele>55.747</ele>
        <time>2020-12-24T09:05:55Z</time>
      </trkpt>
      <trkpt lat="48.123" lon="0.18552">
        <ele>52.824</ele>
        <time>2020-12-24T09:05:35Z</time>
      </trkpt>
      <trkpt lat="48.12378" lon="0.18493">
        <ele>53.589</ele>
        <time>2020-12-24T09:05:15Z</time>
      </trkpt>
      <trkpt lat="48.12398" lon="0.18097">
        <ele>55.523</ele>
        <time>2016-06-01T22:41:26Z</time>
      </trkpt>
      <trkpt lat="48.12494" lon="0.18045">
        <ele>56.008</ele>
        <time>2016-06-01T22:41:06Z</time>
      </trkpt>
      <trkpt lat="48.1263" lon="0.17932">
        <ele>56.82</ele>
        <time>2016-06-01T22:40:46Z</time>
      </trkpt>
      <trkpt lat="48.1265" lon="0.17788">
        <ele>59.828</ele>
        <time>2016-06-01T22:40:26Z</time>
      </trkpt>
      <trkpt lat="48.12666" lon="0.17655">
        <ele>58.075</ele>
        <time>2016-06-01T22:40:06Z</time>
      </trkpt>
      <trkpt lat="48.12663" lon="0.17533">
        <ele>59.845</ele>
        <time>2016-06-01T22:39:46Z</time>
      </trkpt>
      <trkpt lat="48.12613" lon="0.17483">
        <ele>61.926</ele>
        <time>2016-06-01T22:39:26Z</time>
      </trkpt>
      <trkpt lat="48.12695" lon="0.17187">
        <ele>70.32</ele>
        <time>2016-06-01T22:39:06Z</time>
      </trkpt>
      <trkpt lat="48.12769" lon="0.17166">
        <ele>71.358</ele>
        <time>2016-06-01T22:38:46Z</time>
      </trkpt>
      <trkpt lat="48.12816" lon="0.17129">
        <ele>68.142</ele>
        <time>2016-06-01T22:38:26Z</time>
      </trkpt>
      <trkpt lat="48.12881" lon="0.17215">
        <ele>62.669</ele>
        <time>2016-06-01T22:38:06Z</time>
      </trkpt>
      <trkpt lat="48.12933" lon="0.173">
        <ele>62.564</ele>
        <time>2020-12-24T09:01:15Z</time>
      </trkpt>
      <trkpt lat="48.12975" lon="0.17284">
        <ele>61.358</ele>
        <time>2020-12-24T09:00:55Z</time>
      </trkpt>
      <trkpt lat="48.12998" lon="0.17232">
        <ele>61.708</ele>
        <time>2020-12-24T09:00:35Z</time>
      </trkpt>
      <trkpt lat="48.13042" lon="0.17268">
        <ele>61.214</ele>
        <time>2020-12-24T09:00:15Z</time>
      </trkpt>
      <trkpt lat="48.1309" lon="0.1721">
        <ele>61.804</ele>
        <time>2020-12-24T08:59:55Z</time>
      </trkpt>
      <trkpt lat="48.1314" lon="0.17317">
        <ele>59.024</ele>
        <time>2020-12-24T08:59:35Z</time>
      </trkpt>
      <trkpt lat="48.13243" lon="0.17118">
        <ele>58.424</ele>
        <time>2016-06-01T22:35:46Z</time>
      </trkpt>
      <trkpt lat="48.13283" lon="0.1703">
        <ele>56.985</ele>
        <time>2016-06-01T22:35:26Z</time>
      </trkpt>
      <trkpt lat="48.13285" lon="0.16955">
        <ele>57.089</ele>
        <time>2016-06-01T22:35:06Z</time>
      </trkpt>
      <trkpt lat="48.13266" lon="0.16885">
        <ele>59.667</ele>
        <time>2016-06-01T22:34:46Z</time>
      </trkpt>
      <trkpt lat="48.13269" lon="0.167">
        <ele>57.351</ele>
        <time>2016-06-01T22:34:26Z</time>
      </trkpt>
      <trkpt lat="48.13282" lon="0.16651">
        <ele>59.178</ele>
        <time>2016-06-01T22:34:06Z</time>
      </trkpt>
      <trkpt lat="48.13289" lon="0.16488">
        <ele>62.253</ele>
        <time>2016-06-01T22:33:46Z</time>
      </trkpt>
      <trkpt lat="48.13313" lon="0.16417">
        <ele>61.517</ele>
        <time>2016-06-01T22:33:26Z</time>
      </trkpt>
      <trkpt lat="48.13342" lon="0.1637">
        <ele>61.208</ele>
        <time>2016-06-01T22:33:06Z</time>
      </trkpt>
      <trkpt lat="48.13432" lon="0.16198">
        <ele>62.017</ele>
        <time>2016-06-01T22:32:46Z</time>
      </trkpt>
      <trkpt lat="48.13445" lon="0.16146">
        <ele>61.798</ele>
        <time>2020-12-24T08:55:55Z</time>
      </trkpt>
      <trkpt lat="48.1331" lon="0.15666">
        <ele>70.818</ele>
        <time>2020-12-24T08:55:35Z</time>
      </trkpt>
      <trkpt lat="48.13438" lon="0.15574">
        <ele>74.22</ele>
        <time>2020-12-24T08:55:15Z</time>
      </trkpt>
      <trkpt lat="48.13405" lon="0.15485">
        <ele>74.681</ele>
        <time>2016-06-01T22:29:06Z</time>
      </trkpt>
      <trkpt lat="48.13326" lon="0.15348">
        <ele>77.525</ele>
        <time>2016-06-01T22:28:46Z</time>
      </trkpt>
      <trkpt lat="48.13299" lon="0.15297">
        <ele>77.993</ele>
        <time>2016-06-01T22:28:26Z</time>
      </trkpt>
      <trkpt lat="48.13257" lon="0.15267">
        <ele>78.777</ele>
        <time>2016-06-01T22:28:06Z</time>
      </trkpt>
      <trkpt lat="48.13233" lon="0.15215">
        <ele>79.054</ele>
        <time>2016-06-01T22:27:46Z</time>
      </trkpt>
      <trkpt lat="48.13159" lon="0.15121">
        <ele>78.079</ele>
        <time>2016-06-01T22:27:26Z</time>
      </trkpt>
      <trkpt lat="48.1318" lon="0.15028">
        <ele>81.583</ele>
        <time>2016-06-01T22:27:06Z</time>
      </trkpt>
      <trkpt lat="48.13308" lon="0.14795">
        <ele>87.108</ele>
        <time>2016-06-01T22:26:46Z</time>
      </trkpt>
      <trkpt lat="48.1332" lon="0.14726">
        <ele>88.52</ele>
        <time>2016-06-01T22:26:26Z</time>
      </trkpt>
      <trkpt lat="48.1332" lon="0.14677">
        <ele>88.228</ele>
        <time>2016-06-01T22:26:06Z</time>
      </trkpt>
      <trkpt lat="48.13299" lon="0.14627">
        <ele>88.175</ele>
        <time>2016-06-01T22:25:46Z</time>
      </trkpt>
      <trkpt lat="48.13289" lon="0.14576">
        <ele>89.09</ele>
        <time>2016-06-01T22:25:26Z</time>
      </trkpt>
      <trkpt lat="48.13287" lon="0.14477">
        <ele>92.181</ele>
        <time>2016-06-01T22:25:06Z</time>
      </trkpt>
      <trkpt lat="48.13253" lon="0.14415">
        <ele>87.075</ele>
        <time>2016-06-01T22:24:46Z</time>
      </trkpt>
      <trkpt lat="48.1364" lon="0.14419">
        <ele>87.133</ele>
        <time>2016-06-01T22:24:26Z</time>
      </trkpt>
      <trkpt lat="48.13688" lon="0.14425">
        <ele>88.217</ele>
        <time>2016-06-01T22:24:06Z</time>
      </trkpt>
      <trkpt lat="48.13723" lon="0.14464">
        <ele>88.794</ele>
        <time>2016-06-01T22:23:46Z</time>
      </trkpt>
      <trkpt lat="48.13747" lon="0.14449">
        <ele>88.259</ele>
        <time>2016-06-01T22:23:26Z</time>
      </trkpt>
      <trkpt lat="48.1381" lon="0.14473">
        <ele>85.753</ele>
        <time>2016-06-01T22:23:06Z</time>
      </trkpt>
      <trkpt lat="48.13836" lon="0.14473">
        <ele>83.908</ele>
        <time>2016-06-01T22:22:46Z</time>
      </trkpt>
      <trkpt lat="48.13852" lon="0.14436">
        <ele>82.027</ele>
        <time>2016-06-01T22:22:26Z</time>
      </trkpt>
      <trkpt lat="48.13849" lon="0.14398">
        <ele>81.161</ele>
        <time>2016-06-01T22:22:06Z</time>
      </trkpt>
      <trkpt lat="48.13814" lon="0.14286">
        <ele>79.777</ele>
        <time>2016-06-01T22:21:46Z</time>
      </trkpt>
      <trkpt lat="48.1376" lon="0.1417">
        <ele>82.265</ele>
        <time>2016-06-01T22:21:26Z</time>
      </trkpt>
      <trkpt lat="48.1372" lon="0.13998">
        <ele>82.216</ele>
        <time>2016-06-01T22:21:06Z</time>
      </trkpt>
      <trkpt lat="48.13767" lon="0.13975">
        <ele>78.49</ele>
        <time>2016-06-01T22:20:46Z</time>
      </trkpt>
      <trkpt lat="48.1381" lon="0.13971">
        <ele>75.568</ele>
        <time>2016-06-01T22:20:26Z</time>
      </trkpt>
      <trkpt lat="48.13857" lon="0.13932">
        <ele>71.332</ele>
        <time>2016-06-01T22:20:06Z</time>
      </trkpt>
      <trkpt lat="48.13952" lon="0.13891">
        <ele>68.779</ele>
        <time>2016-06-01T22:19:46Z</time>
      </trkpt>
      <trkpt lat="48.14051" lon="0.13863">
        <ele>70.874</ele>
        <time>2016-06-01T22:19:26Z</time>
      </trkpt>
      <trkpt lat="48.14128" lon="0.13891">
        <ele>77.048</ele>
        <time>2016-06-01T22:19:06Z</time>
      </trkpt>
      <trkpt lat="48.14211" lon="0.13889">
        <ele>75.008</ele>
        <time>2016-06-01T22:18:46Z</time>
      </trkpt>
      <trkpt lat="48.14278" lon="0.13874">
        <ele>74.505</ele>
        <time>2016-06-01T22:18:26Z</time>
      </trkpt>
      <trkpt lat="48.14519" lon="0.1378">
        <ele>74.341</ele>
        <time>2016-06-01T22:18:06Z</time>
      </trkpt>
      <trkpt lat="48.14579" lon="0.13769">
        <ele>75.221</ele>
        <time>2016-06-01T22:17:46Z</time>
      </trkpt>
      <trkpt lat="48.14699" lon="0.13773">
        <ele>71.079</ele>
        <time>2016-06-01T22:17:26Z</time>
      </trkpt>
      <trkpt lat="48.14792" lon="0.13765">
        <ele>66.22</ele>
        <time>2016-06-01T22:17:06Z</time>
      </trkpt>
      <trkpt lat="48.1485" lon="0.13754">
        <ele>65.484</ele>
        <time>2016-06-01T22:16:46Z</time>
      </trkpt>
      <trkpt lat="48.14894" lon="0.13726">
        <ele>61.982</ele>
        <time>2016-06-01T22:16:26Z</time>
      </trkpt>
      <trkpt lat="48.14911" lon="0.13724">
        <ele>61.266</ele>
        <time>2016-06-01T22:16:06Z</time>
      </trkpt>
      <trkpt lat="48.14927" lon="0.13752">
        <ele>62.433</ele>
        <time>2016-06-01T22:15:46Z</time>
      </trkpt>
      <trkpt lat="48.14953" lon="0.13777">
        <ele>64.658</ele>
        <time>2016-06-01T22:15:26Z</time>
      </trkpt>
      <trkpt lat="48.14989" lon="0.13777">
        <ele>67.862</ele>
        <time>2016-06-01T22:15:06Z</time>
      </trkpt>
      <trkpt lat="48.15046" lon="0.13747">
        <ele>71.008</ele>
        <time>2016-06-01T22:14:46Z</time>
      </trkpt>
      <trkpt lat="48.15325" lon="0.13674">
        <ele>75.421</ele>
        <time>2016-06-01T22:14:26Z</time>
      </trkpt>
      <trkpt lat="48.15362" lon="0.13689">
        <ele>74.229</ele>
        <time>2016-06-01T22:14:06Z</time>
      </trkpt>
      <trkpt lat="48.15391" lon="0.13696">
        <ele>74.366</ele>
        <time>2016-06-01T22:13:46Z</time>
      </trkpt>
      <trkpt lat="48.155" lon="0.13674">
        <ele>84.725</ele>
        <time>2016-06-01T22:13:26Z</time>
      </trkpt>
      <trkpt lat="48.15557" lon="0.13649">
        <ele>86.436</ele>
        <time>2016-06-01T22:13:06Z</time>
      </trkpt>
      <trkpt lat="48.15719" lon="0.13533">
        <ele>89.75</ele>
        <time>2016-06-01T22:12:46Z</time>
      </trkpt>
      <trkpt lat="48.15792" lon="0.13471">
        <ele>89.028</ele>
        <time>2016-06-01T22:12:26Z</time>
      </trkpt>
      <trkpt lat="48.15817" lon="0.13411">
        <ele>88.762</ele>
        <time>2016-06-01T22:12:06Z</time>
      </trkpt>
      <trkpt lat="48.1584" lon="0.13357">
        <ele>88.849</ele>
        <time>2016-06-01T22:11:46Z</time>
      </trkpt>
      <trkpt lat="48.15869" lon="0.13335">
        <ele>89.274</ele>
        <time>2016-06-01T22:11:26Z</time>
      </trkpt>
      <trkpt lat="48.15893" lon="0.13301">
        <ele>90.058</ele>
        <time>2016-06-01T22:11:06Z</time>
      </trkpt>
      <trkpt lat="48.15915" lon="0.13292">
        <ele>90.508</ele>
        <time>2016-06-01T22:10:46Z</time>
      </trkpt>
      <trkpt lat="48.15952" lon="0.13284">
        <ele>91.105</ele>
        <time>2016-06-01T22:10:26Z</time>
      </trkpt>
      <trkpt lat="48.16044" lon="0.13217">
        <ele>91.441</ele>
        <time>2016-06-01T22:10:06Z</time>
      </trkpt>
      <trkpt lat="48.16082" lon="0.13177">
        <ele>90.021</ele>
        <time>2016-06-01T22:09:46Z</time>
      </trkpt>
      <trkpt lat="48.16131" lon="0.13174">
        <ele>88.394</ele>
        <time>2016-06-01T22:09:26Z</time>
      </trkpt>
      <trkpt lat="48.16207" lon="0.13155">
        <ele>86.615</ele>
        <time>2016-06-01T22:09:06Z</time>
      </trkpt>
      <trkpt lat="48.1623" lon="0.13127">
        <ele>86.029</ele>
        <time>2016-06-01T22:08:46Z</time>
      </trkpt>
      <trkpt lat="48.1636" lon="0.13086">
        <ele>84.087</ele>
        <time>2016-06-01T22:08:26Z</time>
      </trkpt>
      <trkpt lat="48.16542" lon="0.12968">
        <ele>82.641</ele>
        <time>2016-06-01T22:08:06Z</time>
      </trkpt>
      <trkpt lat="48.16746" lon="0.12833">
        <ele>81.158</ele>
        <time>2016-06-01T22:07:46Z</time>
      </trkpt>
      <trkpt lat="48.16778" lon="0.1279">
        <ele>81.573</ele>
        <time>2016-06-01T22:07:26Z</time>
      </trkpt>
      <trkpt lat="48.16849" lon="0.12745">
        <ele>82.437</ele>
        <time>2016-06-01T22:07:06Z</time>
      </trkpt>
      <trkpt lat="48.16888" lon="0.12745">
        <ele>83.908</ele>
        <time>2016-06-01T22:06:46Z</time>
      </trkpt>
      <trkpt lat="48.16938" lon="0.12756">
        <ele>83.413</ele>
        <time>2016-06-01T22:06:26Z</time>
      </trkpt>
      <trkpt lat="48.16997" lon="0.12595">
        <ele>63.076</ele>
        <time>2016-06-01T22:06:06Z</time>
      </trkpt>
      <trkpt lat="48.1705" lon="0.12589">
        <ele>56.416</ele>
        <time>2016-06-01T22:05:46Z</time>
      </trkpt>
      <trkpt lat="48.17088" lon="0.12612">
        <ele>56.061</ele>
        <time>2016-06-01T22:05:26Z</time>
      </trkpt>
      <trkpt lat="48.1713" lon="0.12612">
        <ele>56.722</ele>
        <time>2016-06-01T22:05:06Z</time>
      </trkpt>
      <trkpt lat="48.17207" lon="0.12539">
        <ele>54.456</ele>
        <time>2016-06-01T22:04:46Z</time>
      </trkpt>
      <trkpt lat="48.17292" lon="0.12475">
        <ele>56.644</ele>
        <time>2016-06-01T22:04:26Z</time>
      </trkpt>
      <trkpt lat="48.17406" lon="0.12456">
        <ele>57.638</ele>
        <time>2016-06-01T22:04:06Z</time>
      </trkpt>
      <trkpt lat="48.17409" lon="0.12432">
        <ele>58.055</ele>
        <time>2016-06-01T22:03:46Z</time>
      </trkpt>
      <trkpt lat="48.17396" lon="0.12366">
        <ele>57.41</ele>
        <time>2016-06-01T22:03:26Z</time>
      </trkpt>
      <trkpt lat="48.17319" lon="0.12215">
        <ele>57.414</ele>
        <time>2016-06-01T22:03:06Z</time>
      </trkpt>
      <trkpt lat="48.17292" lon="0.12136">
        <ele>58.608</ele>
        <time>2016-06-01T22:02:46Z</time>
      </trkpt>
      <trkpt lat="48.17254" lon="0.12052">
        <ele>58.017</ele>
        <time>2016-06-01T22:02:26Z</time>
      </trkpt>
      <trkpt lat="48.17243" lon="0.12007">
        <ele>57.443</ele>
        <time>2016-06-01T22:02:06Z</time>
      </trkpt>
      <trkpt lat="48.17645" lon="0.12087">
        <ele>58.082</ele>
        <time>2016-06-01T22:01:46Z</time>
      </trkpt>
      <trkpt lat="48.17758" lon="0.12114">
        <ele>58.435</ele>
        <time>2016-06-01T22:01:26Z</time>
      </trkpt>
      <trkpt lat="48.17802" lon="0.12168">
        <ele>60.096</ele>
        <time>2016-06-01T22:01:06Z</time>
      </trkpt>
      <trkpt lat="48.17851" lon="0.12303">
        <ele>58.53</ele>
        <time>2016-06-01T22:00:46Z</time>
      </trkpt>
      <trkpt lat="48.17891" lon="0.12406">
        <ele>57.618</ele>
        <time>2016-06-01T22:00:26Z</time>
      </trkpt>
      <trkpt lat="48.17917" lon="0.12565">
        <ele>64.712</ele>
        <time>2016-06-01T22:00:06Z</time>
      </trkpt>
      <trkpt lat="48.17955" lon="0.12679">
        <ele>67.229</ele>
        <time>2016-06-01T21:59:46Z</time>
      </trkpt>
      <trkpt lat="48.17975" lon="0.1279">
        <ele>68.114</ele>
        <time>2016-06-01T21:59:26Z</time>
      </trkpt>
      <trkpt lat="48.17963" lon="0.12835">
        <ele>67.058</ele>
        <time>2016-06-01T21:59:06Z</time>
      </trkpt>
      <trkpt lat="48.17967" lon="0.13005">
        <ele>65.008</ele>
        <time>2016-06-01T21:58:46Z</time>
      </trkpt>
      <trkpt lat="48.18024" lon="0.13029">
        <ele>67.614</ele>
        <time>2016-06-01T21:58:26Z</time>
      </trkpt>
      <trkpt lat="48.18073" lon="0.13031">
        <ele>72.868</ele>
        <time>2016-06-01T21:58:06Z</time>
      </trkpt>
      <trkpt lat="48.18096" lon="0.13048">
        <ele>74.027</ele>
        <time>2016-06-01T21:57:46Z</time>
      </trkpt>
      <trkpt lat="48.18133" lon="0.13138">
        <ele>75.72</ele>
        <time>2016-06-01T21:57:26Z</time>
      </trkpt>
      <trkpt lat="48.18134" lon="0.13189">
        <ele>75.311</ele>
        <time>2016-06-01T21:57:06Z</time>
      </trkpt>
      <trkpt lat="48.18154" lon="0.13205">
        <ele>75.495</ele>
        <time>2016-06-01T21:56:46Z</time>
      </trkpt>
      <trkpt lat="48.18202" lon="0.13222">
        <ele>76.083</ele>
        <time>2016-06-01T21:56:26Z</time>
      </trkpt>
      <trkpt lat="48.18214" lon="0.13235">
        <ele>76.047</ele>
        <time>2016-06-01T21:56:06Z</time>
      </trkpt>
      <trkpt lat="48.18272" lon="0.13305">
        <ele>75.074</ele>
        <time>2016-06-01T21:55:46Z</time>
      </trkpt>
      <trkpt lat="48.18312" lon="0.13335">
        <ele>74.959</ele>
        <time>2016-06-01T21:55:26Z</time>
      </trkpt>
      <trkpt lat="48.1833" lon="0.13402">
        <ele>73.393</ele>
        <time>2016-06-01T21:55:06Z</time>
      </trkpt>
      <trkpt lat="48.18362" lon="0.13451">
        <ele>75.808</ele>
        <time>2016-06-01T21:54:46Z</time>
      </trkpt>
      <trkpt lat="48.18408" lon="0.13488">
        <ele>77.019</ele>
        <time>2016-06-01T21:54:26Z</time>
      </trkpt>
      <trkpt lat="48.18456" lon="0.13535">
        <ele>79.49</ele>
        <time>2016-06-01T21:54:06Z</time>
      </trkpt>
      <trkpt lat="48.18486" lon="0.13593">
        <ele>79.576</ele>
        <time>2016-06-01T21:53:46Z</time>
      </trkpt>
      <trkpt lat="48.18543" lon="0.13698">
        <ele>83.658</ele>
        <time>2016-06-01T21:53:26Z</time>
      </trkpt>
      <trkpt lat="48.18552" lon="0.13745">
        <ele>82.859</ele>
        <time>2016-06-01T21:53:06Z</time>
      </trkpt>
      <trkpt lat="48.18552" lon="0.13838">
        <ele>79.793</ele>
        <time>2016-06-01T21:52:46Z</time>
      </trkpt>
      <trkpt lat="48.18566" lon="0.13943">
        <ele>78.451</ele>
        <time>2016-06-01T21:52:26Z</time>
      </trkpt>
      <trkpt lat="48.18588" lon="0.14016">
        <ele>81.385</ele>
        <time>2016-06-01T21:52:06Z</time>
      </trkpt>
      <trkpt lat="48.18664" lon="0.14166">
        <ele>94.952</ele>
        <time>2016-06-01T21:51:46Z</time>
      </trkpt>
      <trkpt lat="48.18674" lon="0.14198">
        <ele>97.657</ele>
        <time>2016-06-01T21:51:26Z</time>
      </trkpt>
      <trkpt lat="48.18671" lon="0.14277">
        <ele>98.271</ele>
        <time>2016-06-01T21:51:06Z</time>
      </trkpt>
      <trkpt lat="48.18651" lon="0.14342">
        <ele>96.708</ele>
        <time>2016-06-01T21:50:46Z</time>
      </trkpt>
      <trkpt lat="48.18635" lon="0.14483">
        <ele>89.808</ele>
        <time>2016-06-01T21:50:26Z</time>
      </trkpt>
      <trkpt lat="48.18636" lon="0.14576">
        <ele>89.653</ele>
        <time>2016-06-01T21:50:06Z</time>
      </trkpt>
      <trkpt lat="48.18651" lon="0.14597">
        <ele>90.752</ele>
        <time>2016-06-01T21:49:46Z</time>
      </trkpt>
      <trkpt lat="48.18675" lon="0.14595">
        <ele>91.386</ele>
        <time>2016-06-01T21:49:26Z</time>
      </trkpt>
      <trkpt lat="48.18709" lon="0.14599">
        <ele>93.217</ele>
        <time>2016-06-01T21:49:06Z</time>
      </trkpt>
      <trkpt lat="48.18795" lon="0.14636">
        <ele>99.611</ele>
        <time>2016-06-01T21:48:46Z</time>
      </trkpt>
      <trkpt lat="48.18841" lon="0.14621">
        <ele>100.069</ele>
        <time>2016-06-01T21:48:26Z</time>
      </trkpt>
      <trkpt lat="48.18895" lon="0.14595">
        <ele>101.583</ele>
        <time>2016-06-01T21:48:06Z</time>
      </trkpt>
      <trkpt lat="48.18997" lon="0.14563">
        <ele>103.23</ele>
        <time>2016-06-01T21:47:46Z</time>
      </trkpt>
      <trkpt lat="48.19036" lon="0.1458">
        <ele>103.935</ele>
        <time>2016-06-01T21:47:26Z</time>
      </trkpt>
      <trkpt lat="48.19187" lon="0.14458">
        <ele>106.099</ele>
        <time>2016-06-01T21:47:06Z</time>
      </trkpt>
      <trkpt lat="48.19226" lon="0.14438">
        <ele>106.108</ele>
        <time>2016-06-01T21:46:46Z</time>
      </trkpt>
      <trkpt lat="48.19277" lon="0.14419">
        <ele>109.01</ele>
        <time>2016-06-01T21:46:26Z</time>
      </trkpt>
      <trkpt lat="48.19322" lon="0.1441">
        <ele>112.255</ele>
        <time>2016-06-01T21:46:06Z</time>
      </trkpt>
      <trkpt lat="48.19322" lon="0.14393">
        <ele>112.234</ele>
        <time>2016-06-01T21:45:46Z</time>
      </trkpt>
      <trkpt lat="48.19304" lon="0.14265">
        <ele>115.559</ele>
        <time>2016-06-01T21:45:26Z</time>
      </trkpt>
      <trkpt lat="48.19303" lon="0.14174">
        <ele>115.73</ele>
        <time>2020-12-24T08:10:55Z</time>
      </trkpt>
      <trkpt lat="48.19473" lon="0.14399">
        <ele>112.934</ele>
        <time>2020-12-24T08:10:35Z</time>
      </trkpt>
      <trkpt lat="48.19667" lon="0.14456">
        <ele>110.562</ele>
        <time>2020-12-24T08:10:15Z</time>
      </trkpt>
      <trkpt lat="48.20021" lon="0.14679">
        <ele>109.296</ele>
        <time>2020-12-24T08:09:55Z</time>
      </trkpt>
      <trkpt lat="48.20153" lon="0.14707">
        <ele>102.443</ele>
        <time>2020-12-24T08:09:35Z</time>
      </trkpt>
      <trkpt lat="48.20232" lon="0.14659">
        <ele>95.788</ele>
        <time>2020-12-24T08:09:15Z</time>
      </trkpt>
      <trkpt lat="48.20271" lon="0.14656">
        <ele>94.772</ele>
        <time>2020-12-24T08:08:55Z</time>
      </trkpt>
      <trkpt lat="48.20405" lon="0.14473">
        <ele>90.208</ele>
        <time>2020-12-24T08:08:35Z</time>
      </trkpt>
      <trkpt lat="48.20776" lon="0.14088">
        <ele>78.124</ele>
        <time>2020-12-24T08:08:15Z</time>
      </trkpt>
      <trkpt lat="48.20894" lon="0.1384">
        <ele>73.304</ele>
        <time>2020-12-24T08:07:55Z</time>
      </trkpt>
      <trkpt lat="48.20927" lon="0.13571">
        <ele>73.869</ele>
        <time>2020-12-24T08:07:35Z</time>
      </trkpt>
      <trkpt lat="48.20899" lon="0.13323">
        <ele>73.264</ele>
        <time>2020-12-24T08:07:15Z</time>
      </trkpt>
      <trkpt lat="48.20844" lon="0.13026">
        <ele>74.655</ele>
        <time>2020-12-24T08:06:55Z</time>
      </trkpt>
      <trkpt lat="48.20747" lon="0.13019">
        <ele>73.749</ele>
        <time>2020-12-24T08:06:35Z</time>
      </trkpt>
      <trkpt lat="48.20726" lon="0.12964">
        <ele>74.547</ele>
        <time>2020-12-24T08:06:15Z</time>
      </trkpt>
      <trkpt lat="48.20663" lon="0.12888">
        <ele>73.671</ele>
        <time>2020-12-24T08:05:55Z</time>
      </trkpt>
      <trkpt lat="48.20635" lon="0.12803">
        <ele>72.518</ele>
        <time>2020-12-24T08:05:35Z</time>
      </trkpt>
      <trkpt lat="48.20484" lon="0.12705">
        <ele>74.343</ele>
        <time>2016-06-01T21:36:06Z</time>
      </trkpt>
      <trkpt lat="48.2039" lon="0.12263">
        <ele>69.557</ele>
        <time>2016-06-01T21:35:46Z</time>
      </trkpt>
      <trkpt lat="48.20473" lon="0.12288">
        <ele>69.408</ele>
        <time>2016-06-01T21:35:26Z</time>
      </trkpt>
      <trkpt lat="48.20523" lon="0.12295">
        <ele>70.115</ele>
        <time>2016-06-01T21:35:06Z</time>
      </trkpt>
      <trkpt lat="48.20629" lon="0.1229">
        <ele>70.587</ele>
        <time>2016-06-01T21:34:46Z</time>
      </trkpt>
      <trkpt lat="48.20718" lon="0.12299">
        <ele>69.617</ele>
        <time>2016-06-01T21:34:26Z</time>
      </trkpt>
      <trkpt lat="48.2076" lon="0.12316">
        <ele>68.579</ele>
        <time>2016-06-01T21:34:06Z</time>
      </trkpt>
      <trkpt lat="48.20821" lon="0.12376">
        <ele>72.84</ele>
        <time>2016-06-01T21:33:46Z</time>
      </trkpt>
      <trkpt lat="48.20846" lon="0.12402">
        <ele>73.024</ele>
        <time>2016-06-01T21:33:26Z</time>
      </trkpt>
      <trkpt lat="48.20971" lon="0.12417">
        <ele>72.032</ele>
        <time>2016-06-01T21:33:06Z</time>
      </trkpt>
      <trkpt lat="48.21071" lon="0.124">
        <ele>64.496</ele>
        <time>2016-06-01T21:32:46Z</time>
      </trkpt>
      <trkpt lat="48.21161" lon="0.12398">
        <ele>62.973</ele>
        <time>2016-06-01T21:32:26Z</time>
      </trkpt>
      <trkpt lat="48.21264" lon="0.12462">
        <ele>63.198</ele>
        <time>2016-06-01T21:32:06Z</time>
      </trkpt>
      <trkpt lat="48.21382" lon="0.12526">
        <ele>60.722</ele>
        <time>2016-06-01T21:31:46Z</time>
      </trkpt>
      <trkpt lat="48.2156" lon="0.1261">
        <ele>62.008</ele>
        <time>2016-06-01T21:31:26Z</time>
      </trkpt>
      <trkpt lat="48.21594" lon="0.12662">
        <ele>61.124</ele>
        <time>2016-06-01T21:31:06Z</time>
      </trkpt>
      <trkpt lat="48.21604" lon="0.127">
        <ele>60.904</ele>
        <time>2016-06-01T21:30:46Z</time>
      </trkpt>
      <trkpt lat="48.21648" lon="0.12717">
        <ele>61.569</ele>
        <time>2016-06-01T21:30:26Z</time>
      </trkpt>
      <trkpt lat="48.21711" lon="0.1273">
        <ele>60.127</ele>
        <time>2016-06-01T21:30:06Z</time>
      </trkpt>
      <trkpt lat="48.21748" lon="0.12769">
        <ele>59.788</ele>
        <time>2016-06-01T21:29:46Z</time>
      </trkpt>
      <trkpt lat="48.21954" lon="0.12876">
        <ele>60.542</ele>
        <time>2016-06-01T21:29:26Z</time>
      </trkpt>
      <trkpt lat="48.21986" lon="0.12885">
        <ele>60.87</ele>
        <time>2016-06-01T21:29:06Z</time>
      </trkpt>
      <trkpt lat="48.2199" lon="0.12934">
        <ele>60.664</ele>
        <time>2016-06-01T21:28:46Z</time>
      </trkpt>
      <trkpt lat="48.22022" lon="0.13037">
        <ele>62.311</ele>
        <time>2016-06-01T21:28:26Z</time>
      </trkpt>
      <trkpt lat="48.22062" lon="0.13056">
        <ele>63.056</ele>
        <time>2016-06-01T21:28:06Z</time>
      </trkpt>
      <trkpt lat="48.22143" lon="0.13063">
        <ele>61.35</ele>
        <time>2016-06-01T21:27:46Z</time>
      </trkpt>
      <trkpt lat="48.22157" lon="0.13089">
        <ele>62.108</ele>
        <time>2016-06-01T21:27:26Z</time>
      </trkpt>
      <trkpt lat="48.22325" lon="0.13059">
        <ele>61.016</ele>
        <time>2016-06-01T21:27:06Z</time>
      </trkpt>
      <trkpt lat="48.22429" lon="0.12996">
        <ele>66.888</ele>
        <time>2016-06-01T21:26:46Z</time>
      </trkpt>
      <trkpt lat="48.22388" lon="0.12928">
        <ele>64.546</ele>
        <time>2016-06-01T21:26:26Z</time>
      </trkpt>
      <trkpt lat="48.22378" lon="0.12881">
        <ele>63.384</ele>
        <time>2016-06-01T21:26:06Z</time>
      </trkpt>
      <trkpt lat="48.22396" lon="0.12818">
        <ele>62.495</ele>
        <time>2016-06-01T21:25:46Z</time>
      </trkpt>
      <trkpt lat="48.22409" lon="0.12752">
        <ele>68.059</ele>
        <time>2016-06-01T21:25:26Z</time>
      </trkpt>
      <trkpt lat="48.22409" lon="0.12587">
        <ele>77.947</ele>
        <time>2016-06-01T21:25:06Z</time>
      </trkpt>
      <trkpt lat="48.22365" lon="0.12524">
        <ele>78.021</ele>
        <time>2016-06-01T21:24:46Z</time>
      </trkpt>
      <trkpt lat="48.22335" lon="0.12453">
        <ele>79.768</ele>
        <time>2016-06-01T21:24:26Z</time>
      </trkpt>
      <trkpt lat="48.22292" lon="0.12413">
        <ele>81.053</ele>
        <time>2016-06-01T21:24:06Z</time>
      </trkpt>
      <trkpt lat="48.22373" lon="0.12342">
        <ele>79.017</ele>
        <time>2016-06-01T21:23:46Z</time>
      </trkpt>
      <trkpt lat="48.22355" lon="0.12108">
        <ele>82.208</ele>
        <time>2016-06-01T21:23:26Z</time>
      </trkpt>
      <trkpt lat="48.22329" lon="0.12059">
        <ele>84.015</ele>
        <time>2016-06-01T21:23:06Z</time>
      </trkpt>
      <trkpt lat="48.22313" lon="0.11992">
        <ele>86.087</ele>
        <time>2016-06-01T21:22:46Z</time>
      </trkpt>
      <trkpt lat="48.22272" lon="0.11893">
        <ele>86.017</ele>
        <time>2016-06-01T21:22:26Z</time>
      </trkpt>
      <trkpt lat="48.22167" lon="0.1176">
        <ele>86.459</ele>
        <time>2016-06-01T21:22:06Z</time>
      </trkpt>
      <trkpt lat="48.22119" lon="0.11694">
        <ele>86.05</ele>
        <time>2016-06-01T21:21:46Z</time>
      </trkpt>
      <trkpt lat="48.22036" lon="0.11518">
        <ele>85.434</ele>
        <time>2016-06-01T21:21:26Z</time>
      </trkpt>
      <trkpt lat="48.22027" lon="0.11419">
        <ele>87.972</ele>
        <time>2016-06-01T21:21:06Z</time>
      </trkpt>
      <trkpt lat="48.21982" lon="0.11288">
        <ele>86.216</ele>
        <time>2016-06-01T21:20:46Z</time>
      </trkpt>
      <trkpt lat="48.21953" lon="0.11258">
        <ele>86.543</ele>
        <time>2016-06-01T21:20:26Z</time>
      </trkpt>
      <trkpt lat="48.21921" lon="0.11239">
        <ele>87.058</ele>
        <time>2016-06-01T21:20:06Z</time>
      </trkpt>
      <trkpt lat="48.21894" lon="0.1122">
        <ele>87.052</ele>
        <time>2016-06-01T21:19:46Z</time>
      </trkpt>
      <trkpt lat="48.2175" lon="0.10966">
        <ele>91.008</ele>
        <time>2016-06-01T21:19:26Z</time>
      </trkpt>
      <trkpt lat="48.21738" lon="0.10971">
        <ele>91.424</ele>
        <time>2016-06-01T21:19:06Z</time>
      </trkpt>
      <trkpt lat="48.21716" lon="0.10962">
        <ele>91.904</ele>
        <time>2016-06-01T21:18:46Z</time>
      </trkpt>
      <trkpt lat="48.21688" lon="0.10939">
        <ele>92.269</ele>
        <time>2016-06-01T21:18:26Z</time>
      </trkpt>
      <trkpt lat="48.21633" lon="0.10945">
        <ele>91.559</ele>
        <time>2016-06-01T21:18:06Z</time>
      </trkpt>
      <trkpt lat="48.21621" lon="0.10913">
        <ele>91.02</ele>
        <time>2016-06-01T21:17:46Z</time>
      </trkpt>
      <trkpt lat="48.21603" lon="0.10765">
        <ele>92.684</ele>
        <time>2016-06-01T21:17:26Z</time>
      </trkpt>
      <trkpt lat="48.21601" lon="0.10645">
        <ele>92.332</ele>
        <time>2016-06-01T21:17:06Z</time>
      </trkpt>
      <trkpt lat="48.21583" lon="0.10612">
        <ele>90.126</ele>
        <time>2016-06-01T21:16:46Z</time>
      </trkpt>
      <trkpt lat="48.21567" lon="0.10591">
        <ele>89.113</ele>
        <time>2016-06-01T21:16:26Z</time>
      </trkpt>
      <trkpt lat="48.21567" lon="0.10518">
        <ele>85.128</ele>
        <time>2016-06-01T21:16:06Z</time>
      </trkpt>
      <trkpt lat="48.21535" lon="0.10447">
        <ele>87.532</ele>
        <time>2016-06-01T21:15:46Z</time>
      </trkpt>
      <trkpt lat="48.21523" lon="0.10381">
        <ele>90.308</ele>
        <time>2016-06-01T21:15:26Z</time>
      </trkpt>
      <trkpt lat="48.21525" lon="0.1031">
        <ele>90.321</ele>
        <time>2016-06-01T21:15:06Z</time>
      </trkpt>
      <trkpt lat="48.21513" lon="0.10267">
        <ele>90.229</ele>
        <time>2016-06-01T21:14:46Z</time>
      </trkpt>
      <trkpt lat="48.21316" lon="0.10332">
        <ele>87.066</ele>
        <time>2016-06-01T21:14:26Z</time>
      </trkpt>
      <trkpt lat="48.21275" lon="0.10242">
        <ele>87.448</ele>
        <time>2016-06-01T21:14:06Z</time>
      </trkpt>
      <trkpt lat="48.21262" lon="0.10158">
        <ele>90.769</ele>
        <time>2016-06-01T21:13:46Z</time>
      </trkpt>
      <trkpt lat="48.21268" lon="0.10085">
        <ele>92.023</ele>
        <time>2016-06-01T21:13:26Z</time>
      </trkpt>
      <trkpt lat="48.21235" lon="0.09708">
        <ele>94.161</ele>
        <time>2016-06-01T21:13:06Z</time>
      </trkpt>
      <trkpt lat="48.21211" lon="0.09534">
        <ele>96.425</ele>
        <time>2016-06-01T21:12:46Z</time>
      </trkpt>
      <trkpt lat="48.21221" lon="0.09454">
        <ele>98.392</ele>
        <time>2016-06-01T21:12:26Z</time>
      </trkpt>
      <trkpt lat="48.21455" lon="0.09708">
        <ele>100.477</ele>
        <time>2016-06-01T21:12:06Z</time>
      </trkpt>
      <trkpt lat="48.2154" lon="0.09776">
        <ele>97.231</ele>
        <time>2016-06-01T21:10:26Z</time>
      </trkpt>
      <trkpt lat="48.21596" lon="0.09737">
        <ele>96.308</ele>
        <time>2016-06-01T21:10:06Z</time>
      </trkpt>
      <trkpt lat="48.21628" lon="0.09705">
        <ele>96.611</ele>
        <time>2016-06-01T21:09:46Z</time>
      </trkpt>
      <trkpt lat="48.21651" lon="0.09658">
        <ele>97.056</ele>
        <time>2016-06-01T21:09:26Z</time>
      </trkpt>
      <trkpt lat="48.21666" lon="0.09606">
        <ele>97.254</ele>
        <time>2016-06-01T21:09:06Z</time>
      </trkpt>
      <trkpt lat="48.21684" lon="0.09563">
        <ele>98.122</ele>
        <time>2016-06-01T21:08:46Z</time>
      </trkpt>
      <trkpt lat="48.21723" lon="0.0954">
        <ele>98.093</ele>
        <time>2016-06-01T21:08:26Z</time>
      </trkpt>
      <trkpt lat="48.21644" lon="0.09301">
        <ele>98.857</ele>
        <time>2016-06-01T21:08:06Z</time>
      </trkpt>
      <trkpt lat="48.21584" lon="0.09078">
        <ele>99.015</ele>
        <time>2016-06-01T21:07:46Z</time>
      </trkpt>
      <trkpt lat="48.21924" lon="0.08831">
        <ele>103.599</ele>
        <time>2016-06-01T21:07:26Z</time>
      </trkpt>
      <trkpt lat="48.21943" lon="0.0881">
        <ele>104.056</ele>
        <time>2016-06-01T21:07:06Z</time>
      </trkpt>
      <trkpt lat="48.2194" lon="0.08739">
        <ele>102.871</ele>
        <time>2016-06-01T21:06:46Z</time>
      </trkpt>
      <trkpt lat="48.21923" lon="0.08677">
        <ele>101.635</ele>
        <time>2016-06-01T21:06:26Z</time>
      </trkpt>
      <trkpt lat="48.21927" lon="0.08617">
        <ele>100.508</ele>
        <time>2016-06-01T21:06:06Z</time>
      </trkpt>
      <trkpt lat="48.21959" lon="0.0858">
        <ele>100.419</ele>
        <time>2016-06-01T21:05:46Z</time>
      </trkpt>
      <trkpt lat="48.2198" lon="0.08544">
        <ele>100.481</ele>
        <time>2016-06-01T21:05:26Z</time>
      </trkpt>
      <trkpt lat="48.22034" lon="0.08377">
        <ele>96.991</ele>
        <time>2016-06-01T21:05:06Z</time>
      </trkpt>
      <trkpt lat="48.22099" lon="0.08188">
        <ele>88.818</ele>
        <time>2016-06-01T21:04:46Z</time>
      </trkpt>
      <trkpt lat="48.22129" lon="0.08078">
        <ele>82.429</ele>
        <time>2016-06-01T21:04:26Z</time>
      </trkpt>
      <trkpt lat="48.22129" lon="0.0807">
        <ele>81.733</ele>
        <time>2016-06-01T21:04:06Z</time>
      </trkpt>
      <trkpt lat="48.2215" lon="0.08042">
        <ele>78.941</ele>
        <time>2016-06-01T21:03:46Z</time>
      </trkpt>
      <trkpt lat="48.22169" lon="0.0799">
        <ele>77.335</ele>
        <time>2016-06-01T21:03:26Z</time>
      </trkpt>
      <trkpt lat="48.22196" lon="0.07941">
        <ele>77.192</ele>
        <time>2016-06-01T21:03:06Z</time>
      </trkpt>
      <trkpt lat="48.22242" lon="0.07881">
        <ele>74.317</ele>
        <time>2016-06-01T21:02:46Z</time>
      </trkpt>
      <trkpt lat="48.22336" lon="0.07821">
        <ele>73.081</ele>
        <time>2016-06-01T21:02:26Z</time>
      </trkpt>
      <trkpt lat="48.2237" lon="0.07776">
        <ele>74.408</ele>
        <time>2016-06-01T21:02:06Z</time>
      </trkpt>
      <trkpt lat="48.22389" lon="0.07729">
        <ele>75.223</ele>
        <time>2016-06-01T21:01:46Z</time>
      </trkpt>
      <trkpt lat="48.22426" lon="0.07662">
        <ele>77.703</ele>
        <time>2016-06-01T21:01:26Z</time>
      </trkpt>
      <trkpt lat="48.22463" lon="0.07628">
        <ele>79.459</ele>
        <time>2016-06-01T21:01:06Z</time>
      </trkpt>
      <trkpt lat="48.22312" lon="0.07553">
        <ele>73.264</ele>
        <time>2016-06-01T21:00:46Z</time>
      </trkpt>
      <trkpt lat="48.22279" lon="0.0755">
        <ele>72.065</ele>
        <time>2016-06-01T21:00:26Z</time>
      </trkpt>
      <trkpt lat="48.22243" lon="0.07568">
        <ele>72.259</ele>
        <time>2016-06-01T21:00:06Z</time>
      </trkpt>
      <trkpt lat="48.22196" lon="0.07583">
        <ele>73.097</ele>
        <time>2016-06-01T20:59:46Z</time>
      </trkpt>
      <trkpt lat="48.22069" lon="0.07548">
        <ele>80.711</ele>
        <time>2016-06-01T20:59:26Z</time>
      </trkpt>
      <trkpt lat="48.22037" lon="0.0751">
        <ele>83.388</ele>
        <time>2016-06-01T20:59:06Z</time>
      </trkpt>
      <trkpt lat="48.22024" lon="0.07454">
        <ele>84.223</ele>
        <time>2016-06-01T20:58:46Z</time>
      </trkpt>
      <trkpt lat="48.22004" lon="0.07402">
        <ele>86.257</ele>
        <time>2016-06-01T20:58:26Z</time>
      </trkpt>
      <trkpt lat="48.21963" lon="0.07374">
        <ele>88.908</ele>
        <time>2016-06-01T20:58:06Z</time>
      </trkpt>
      <trkpt lat="48.21773" lon="0.07377">
        <ele>100.615</ele>
        <time>2016-06-01T20:57:46Z</time>
      </trkpt>
      <trkpt lat="48.21681" lon="0.07398">
        <ele>103.587</ele>
        <time>2016-06-01T20:57:26Z</time>
      </trkpt>
      <trkpt lat="48.21633" lon="0.074">
        <ele>105.217</ele>
        <time>2016-06-01T20:57:06Z</time>
      </trkpt>
      <trkpt lat="48.2165" lon="0.07338">
        <ele>104.685</ele>
        <time>2016-06-01T20:56:46Z</time>
      </trkpt>
      <trkpt lat="48.21706" lon="0.07261">
        <ele>100.036</ele>
        <time>2016-06-01T20:56:26Z</time>
      </trkpt>
      <trkpt lat="48.21718" lon="0.07145">
        <ele>94.77</ele>
        <time>2016-06-01T20:56:06Z</time>
      </trkpt>
      <trkpt lat="48.21748" lon="0.0704">
        <ele>91.148</ele>
        <time>2016-06-01T20:55:46Z</time>
      </trkpt>
      <trkpt lat="48.21803" lon="0.06879">
        <ele>87.092</ele>
        <time>2016-06-01T20:55:26Z</time>
      </trkpt>
      <trkpt lat="48.21839" lon="0.06748">
        <ele>81.859</ele>
        <time>2016-06-01T20:55:06Z</time>
      </trkpt>
      <trkpt lat="48.21834" lon="0.0669">
        <ele>81.064</ele>
        <time>2016-06-01T20:54:46Z</time>
      </trkpt>
      <trkpt lat="48.21804" lon="0.0652">
        <ele>81.098</ele>
        <time>2016-06-01T20:54:26Z</time>
      </trkpt>
      <trkpt lat="48.21801" lon="0.06409">
        <ele>81.108</ele>
        <time>2016-06-01T20:54:06Z</time>
      </trkpt>
      <trkpt lat="48.21777" lon="0.06289">
        <ele>78.017</ele>
        <time>2016-06-01T20:53:46Z</time>
      </trkpt>
      <trkpt lat="48.21718" lon="0.06102">
        <ele>77.989</ele>
        <time>2016-06-01T20:53:26Z</time>
      </trkpt>
      <trkpt lat="48.21693" lon="0.06048">
        <ele>78.228</ele>
        <time>2016-06-01T20:53:06Z</time>
      </trkpt>
      <trkpt lat="48.21626" lon="0.05943">
        <ele>78.086</ele>
        <time>2016-06-01T20:52:46Z</time>
      </trkpt>
      <trkpt lat="48.21598" lon="0.05915">
        <ele>79.447</ele>
        <time>2016-06-01T20:52:26Z</time>
      </trkpt>
      <trkpt lat="48.21553" lon="0.05881">
        <ele>81.961</ele>
        <time>2016-06-01T20:52:06Z</time>
      </trkpt>
      <trkpt lat="48.21535" lon="0.05853">
        <ele>82.449</ele>
        <time>2016-06-01T20:51:46Z</time>
      </trkpt>
      <trkpt lat="48.21501" lon="0.05679">
        <ele>81.963</ele>
        <time>2016-06-01T20:51:26Z</time>
      </trkpt>
      <trkpt lat="48.2147" lon="0.05602">
        <ele>81.29</ele>
        <time>2016-06-01T20:51:06Z</time>
      </trkpt>
      <trkpt lat="48.2139" lon="0.05443">
        <ele>80.955</ele>
        <time>2016-06-01T20:50:46Z</time>
      </trkpt>
      <trkpt lat="48.21351" lon="0.05327">
        <ele>79.219</ele>
        <time>2016-06-01T20:50:26Z</time>
      </trkpt>
      <trkpt lat="48.2132" lon="0.05239">
        <ele>78.108</ele>
        <time>2016-06-01T20:50:06Z</time>
      </trkpt>
      <trkpt lat="48.21277" lon="0.05188">
        <ele>77.714</ele>
        <time>2016-06-01T20:49:46Z</time>
      </trkpt>
      <trkpt lat="48.21195" lon="0.0507">
        <ele>78.086</ele>
        <time>2016-06-01T20:49:26Z</time>
      </trkpt>
      <trkpt lat="48.21141" lon="0.05014">
        <ele>77.635</ele>
        <time>2016-06-01T20:49:06Z</time>
      </trkpt>
      <trkpt lat="48.21085" lon="0.05033">
        <ele>78.499</ele>
        <time>2016-06-01T20:48:46Z</time>
      </trkpt>
      <trkpt lat="48.21051" lon="0.05029">
        <ele>79.42</ele>
        <time>2016-06-01T20:48:26Z</time>
      </trkpt>
      <trkpt lat="48.20984" lon="0.04971">
        <ele>79.214</ele>
        <time>2016-06-01T20:48:06Z</time>
      </trkpt>
      <trkpt lat="48.20876" lon="0.04823">
        <ele>79.312</ele>
        <time>2016-06-01T20:47:46Z</time>
      </trkpt>
      <trkpt lat="48.20868" lon="0.04787">
        <ele>78.816</ele>
        <time>2016-06-01T20:47:26Z</time>
      </trkpt>
      <trkpt lat="48.20852" lon="0.04675">
        <ele>77.323</ele>
        <time>2016-06-01T20:47:06Z</time>
      </trkpt>
      <trkpt lat="48.20861" lon="0.04643">
        <ele>77.998</ele>
        <time>2016-06-01T20:46:46Z</time>
      </trkpt>
      <trkpt lat="48.20883" lon="0.046">
        <ele>79.342</ele>
        <time>2016-06-01T20:46:26Z</time>
      </trkpt>
      <trkpt lat="48.20889" lon="0.04546">
        <ele>77.708</ele>
        <time>2016-06-01T20:46:06Z</time>
      </trkpt>
      <trkpt lat="48.20913" lon="0.04548">
        <ele>77.716</ele>
        <time>2016-06-01T20:45:46Z</time>
      </trkpt>
      <trkpt lat="48.20968" lon="0.04512">
        <ele>77.206</ele>
        <time>2016-06-01T20:45:26Z</time>
      </trkpt>
      <trkpt lat="48.20991" lon="0.04512">
        <ele>76.864</ele>
        <time>2016-06-01T20:45:06Z</time>
      </trkpt>
      <trkpt lat="48.21018" lon="0.04529">
        <ele>76.684</ele>
        <time>2016-06-01T20:44:46Z</time>
      </trkpt>
      <trkpt lat="48.21052" lon="0.04533">
        <ele>77.075</ele>
        <time>2016-06-01T20:44:26Z</time>
      </trkpt>
      <trkpt lat="48.21086" lon="0.04495">
        <ele>79.199</ele>
        <time>2016-06-01T20:44:06Z</time>
      </trkpt>
      <trkpt lat="48.21138" lon="0.04407">
        <ele>81.087</ele>
        <time>2016-06-01T20:43:46Z</time>
      </trkpt>
      <trkpt lat="48.21187" lon="0.0436">
        <ele>83.491</ele>
        <time>2016-06-01T20:43:26Z</time>
      </trkpt>
      <trkpt lat="48.21267" lon="0.04338">
        <ele>83.588</ele>
        <time>2016-06-01T20:43:06Z</time>
      </trkpt>
      <trkpt lat="48.21312" lon="0.04304">
        <ele>84.513</ele>
        <time>2016-06-01T20:42:46Z</time>
      </trkpt>
      <trkpt lat="48.21395" lon="0.04201">
        <ele>86.857</ele>
        <time>2016-06-01T20:42:26Z</time>
      </trkpt>
      <trkpt lat="48.21448" lon="0.04111">
        <ele>86.008</ele>
        <time>2016-06-01T20:42:06Z</time>
      </trkpt>
      <trkpt lat="48.21468" lon="0.041">
        <ele>86.413</ele>
        <time>2016-06-01T20:41:46Z</time>
      </trkpt>
      <trkpt lat="48.21474" lon="0.04044">
        <ele>86.976</ele>
        <time>2016-06-01T20:41:26Z</time>
      </trkpt>
      <trkpt lat="48.21531" lon="0.03963">
        <ele>88.116</ele>
        <time>2016-06-01T20:41:06Z</time>
      </trkpt>
      <trkpt lat="48.21597" lon="0.03922">
        <ele>87.298</ele>
        <time>2016-06-01T20:40:46Z</time>
      </trkpt>
      <trkpt lat="48.21671" lon="0.0381">
        <ele>87.389</ele>
        <time>2016-06-01T20:40:26Z</time>
      </trkpt>
      <trkpt lat="48.21707" lon="0.03759">
        <ele>89.023</ele>
        <time>2016-06-01T20:40:06Z</time>
      </trkpt>
      <trkpt lat="48.21839" lon="0.03639">
        <ele>96.421</ele>
        <time>2016-06-01T20:39:46Z</time>
      </trkpt>
      <trkpt lat="48.21969" lon="0.03452">
        <ele>109.665</ele>
        <time>2016-06-01T20:39:26Z</time>
      </trkpt>
      <trkpt lat="48.21989" lon="0.03454">
        <ele>110.482</ele>
        <time>2016-06-01T20:39:06Z</time>
      </trkpt>
      <trkpt lat="48.22029" lon="0.03463">
        <ele>113.487</ele>
        <time>2016-06-01T20:38:46Z</time>
      </trkpt>
      <trkpt lat="48.22063" lon="0.0348">
        <ele>114.571</ele>
        <time>2016-06-01T20:38:26Z</time>
      </trkpt>
      <trkpt lat="48.22147" lon="0.03358">
        <ele>126.008</ele>
        <time>2016-06-01T20:38:06Z</time>
      </trkpt>
      <trkpt lat="48.22156" lon="0.03328">
        <ele>127.611</ele>
        <time>2016-06-01T20:37:46Z</time>
      </trkpt>
      <trkpt lat="48.2213" lon="0.03212">
        <ele>133.156</ele>
        <time>2016-06-01T20:37:26Z</time>
      </trkpt>
      <trkpt lat="48.22093" lon="0.03162">
        <ele>136.654</ele>
        <time>2016-06-01T20:37:06Z</time>
      </trkpt>
      <trkpt lat="48.22047" lon="0.03064">
        <ele>144.181</ele>
        <time>2016-06-01T20:36:46Z</time>
      </trkpt>
      <trkpt lat="48.21952" lon="0.02969">
        <ele>152.782</ele>
        <time>2016-06-01T20:36:26Z</time>
      </trkpt>
      <trkpt lat="48.21921" lon="0.02907">
        <ele>151.436</ele>
        <time>2016-06-01T20:36:06Z</time>
      </trkpt>
      <trkpt lat="48.21913" lon="0.0286">
        <ele>154.754</ele>
        <time>2016-06-01T20:35:46Z</time>
      </trkpt>
      <trkpt lat="48.21836" lon="0.02673">
        <ele>159.928</ele>
        <time>2016-06-01T20:35:26Z</time>
      </trkpt>
      <trkpt lat="48.21773" lon="0.02546">
        <ele>161.975</ele>
        <time>2016-06-01T20:35:06Z</time>
      </trkpt>
      <trkpt lat="48.21731" lon="0.02433">
        <ele>158.23</ele>
        <time>2016-06-01T20:34:46Z</time>
      </trkpt>
      <trkpt lat="48.21718" lon="0.0234">
        <ele>157.074</ele>
        <time>2016-06-01T20:34:26Z</time>
      </trkpt>
      <trkpt lat="48.21686" lon="0.02229">
        <ele>156.008</ele>
        <time>2016-06-01T20:34:06Z</time>
      </trkpt>
      <trkpt lat="48.21678" lon="0.02008">
        <ele>156.917</ele>
        <time>2016-06-01T20:33:46Z</time>
      </trkpt>
      <trkpt lat="48.21643" lon="0.018">
        <ele>158.943</ele>
        <time>2016-06-01T20:33:26Z</time>
      </trkpt>
      <trkpt lat="48.21618" lon="0.01701">
        <ele>159.282</ele>
        <time>2016-06-01T20:33:06Z</time>
      </trkpt>
      <trkpt lat="48.21616" lon="0.01617">
        <ele>160.93</ele>
        <time>2016-06-01T20:32:46Z</time>
      </trkpt>
      <trkpt lat="48.21597" lon="0.01486">
        <ele>157.221</ele>
        <time>2016-06-01T20:32:26Z</time>
      </trkpt>
      <trkpt lat="48.21594" lon="0.01356">
        <ele>159.195</ele>
        <time>2016-06-01T20:32:06Z</time>
      </trkpt>
      <trkpt lat="48.21637" lon="0.01383">
        <ele>161.123</ele>
        <time>2016-06-01T20:31:46Z</time>
      </trkpt>
      <trkpt lat="48.21683" lon="0.01388">
        <ele>162.637</ele>
        <time>2016-06-01T20:31:26Z</time>
      </trkpt>
      <trkpt lat="48.21781" lon="0.01381">
        <ele>165.024</ele>
        <time>2016-06-01T20:31:06Z</time>
      </trkpt>
      <trkpt lat="48.21819" lon="0.01403">
        <ele>165.779</ele>
        <time>2016-06-01T20:30:46Z</time>
      </trkpt>
      <trkpt lat="48.21877" lon="0.01315">
        <ele>166.133</ele>
        <time>2016-06-01T20:30:26Z</time>
      </trkpt>
      <trkpt lat="48.21927" lon="0.01259">
        <ele>168.808</ele>
        <time>2016-06-01T20:30:06Z</time>
      </trkpt>
      <trkpt lat="48.21936" lon="0.01229">
        <ele>170.121</ele>
        <time>2016-06-01T20:29:46Z</time>
      </trkpt>
      <trkpt lat="48.21992" lon="0.01135">
        <ele>167.556</ele>
        <time>2016-06-01T20:29:26Z</time>
      </trkpt>
      <trkpt lat="48.21996" lon="0.01077">
        <ele>168.474</ele>
        <time>2016-06-01T20:29:06Z</time>
      </trkpt>
      <trkpt lat="48.2202" lon="0.01038">
        <ele>168.36</ele>
        <time>2016-06-01T20:28:46Z</time>
      </trkpt>
      <trkpt lat="48.22023" lon="0.00987">
        <ele>170.521</ele>
        <time>2016-06-01T20:28:26Z</time>
      </trkpt>
      <trkpt lat="48.22034" lon="0.00918">
        <ele>171.735</ele>
        <time>2016-06-01T20:28:06Z</time>
      </trkpt>
      <trkpt lat="48.22072" lon="0.00811">
        <ele>172.473</ele>
        <time>2016-06-01T20:27:46Z</time>
      </trkpt>
      <trkpt lat="48.22082" lon="0.00703">
        <ele>173.037</ele>
        <time>2016-06-01T20:27:26Z</time>
      </trkpt>
      <trkpt lat="48.22275" lon="0.00444">
        <ele>175.034</ele>
        <time>2016-06-01T20:27:06Z</time>
      </trkpt>
      <trkpt lat="48.22182" lon="0.00128">
        <ele>176.379</ele>
        <time>2016-06-01T20:26:46Z</time>
      </trkpt>
      <trkpt lat="48.22203" lon="0.0009">
        <ele>178.723</ele>
        <time>2016-06-01T20:26:26Z</time>
      </trkpt>
      <trkpt lat="48.22265" lon="0.00042">
        <ele>175.808</ele>
        <time>2016-06-01T20:26:06Z</time>
      </trkpt>
      <trkpt lat="48.22317" lon="-0.00014">
        <ele>173.415</ele>
        <time>2016-06-01T20:25:46Z</time>
      </trkpt>
      <trkpt lat="48.22375" lon="-0.00125">
        <ele>176.241</ele>
        <time>2016-06-01T20:25:26Z</time>
      </trkpt>
      <trkpt lat="48.22439" lon="-0.00166">
        <ele>180.671</ele>
        <time>2016-06-01T20:25:06Z</time>
      </trkpt>
      <trkpt lat="48.22535" lon="-0.00301">
        <ele>184.244</ele>
        <time>2016-06-01T20:24:46Z</time>
      </trkpt>
      <trkpt lat="48.22578" lon="-0.00344">
        <ele>186.745</ele>
        <time>2016-06-01T20:24:26Z</time>
      </trkpt>
      <trkpt lat="48.22608" lon="-0.00402">
        <ele>186.859</ele>
        <time>2016-06-01T20:24:06Z</time>
      </trkpt>
      <trkpt lat="48.22631" lon="-0.00436">
        <ele>186.037</ele>
        <time>2016-06-01T20:23:46Z</time>
      </trkpt>
      <trkpt lat="48.22688" lon="-0.00516">
        <ele>186.691</ele>
        <time>2016-06-01T20:23:26Z</time>
      </trkpt>
      <trkpt lat="48.22688" lon="-0.00563">
        <ele>186.358</ele>
        <time>2016-06-01T20:23:06Z</time>
      </trkpt>
      <trkpt lat="48.22711" lon="-0.0064">
        <ele>187.063</ele>
        <time>2016-06-01T20:22:46Z</time>
      </trkpt>
      <trkpt lat="48.22728" lon="-0.00621">
        <ele>186.837</ele>
        <time>2016-06-01T20:22:26Z</time>
      </trkpt>
      <trkpt lat="48.22748" lon="-0.00623">
        <ele>186.108</ele>
        <time>2016-06-01T20:22:06Z</time>
      </trkpt>
      <trkpt lat="48.22771" lon="-0.00634">
        <ele>185.315</ele>
        <time>2016-06-01T20:21:46Z</time>
      </trkpt>
      <trkpt lat="48.22981" lon="-0.00758">
        <ele>165.487</ele>
        <time>2016-06-01T20:21:26Z</time>
      </trkpt>
      <trkpt lat="48.23005" lon="-0.00769">
        <ele>164.117</ele>
        <time>2016-06-01T20:21:06Z</time>
      </trkpt>
      <trkpt lat="48.23025" lon="-0.00857">
        <ele>163.189</ele>
        <time>2016-06-01T20:20:46Z</time>
      </trkpt>
      <trkpt lat="48.23038" lon="-0.00968">
        <ele>159.98</ele>
        <time>2016-06-01T20:20:26Z</time>
      </trkpt>
      <trkpt lat="48.23054" lon="-0.01016">
        <ele>158.714</ele>
        <time>2016-06-01T20:20:06Z</time>
      </trkpt>
      <trkpt lat="48.23067" lon="-0.01134">
        <ele>155.562</ele>
        <time>2016-06-01T20:19:46Z</time>
      </trkpt>
      <trkpt lat="48.23058" lon="-0.01269">
        <ele>152.116</ele>
        <time>2016-06-01T20:19:26Z</time>
      </trkpt>
      <trkpt lat="48.23059" lon="-0.0137">
        <ele>146.223</ele>
        <time>2016-06-01T20:19:06Z</time>
      </trkpt>
      <trkpt lat="48.23071" lon="-0.01428">
        <ele>142.848</ele>
        <time>2016-06-01T20:18:46Z</time>
      </trkpt>
      <trkpt lat="48.23068" lon="-0.01509">
        <ele>138.092</ele>
        <time>2016-06-01T20:18:26Z</time>
      </trkpt>
      <trkpt lat="48.23064" lon="-0.01543">
        <ele>139.008</ele>
        <time>2016-06-01T20:18:06Z</time>
      </trkpt>
      <trkpt lat="48.23035" lon="-0.01576">
        <ele>140.718</ele>
        <time>2016-06-01T20:17:46Z</time>
      </trkpt>
      <trkpt lat="48.22935" lon="-0.01636">
        <ele>140.844</ele>
        <time>2016-06-01T20:17:26Z</time>
      </trkpt>
      <trkpt lat="48.22871" lon="-0.01728">
        <ele>139.863</ele>
        <time>2016-06-01T20:17:06Z</time>
      </trkpt>
      <trkpt lat="48.22814" lon="-0.01812">
        <ele>139.366</ele>
        <time>2016-06-01T20:16:46Z</time>
      </trkpt>
      <trkpt lat="48.22769" lon="-0.01848">
        <ele>137.527</ele>
        <time>2016-06-01T20:16:26Z</time>
      </trkpt>
      <trkpt lat="48.22733" lon="-0.01893">
        <ele>135.271</ele>
        <time>2016-06-01T20:16:06Z</time>
      </trkpt>
      <trkpt lat="48.22698" lon="-0.01996">
        <ele>132.239</ele>
        <time>2016-06-01T20:15:46Z</time>
      </trkpt>
      <trkpt lat="48.22643" lon="-0.02033">
        <ele>133.083</ele>
        <time>2016-06-01T20:15:26Z</time>
      </trkpt>
      <trkpt lat="48.22468" lon="-0.02395">
        <ele>152.81</ele>
        <time>2016-06-01T20:15:06Z</time>
      </trkpt>
      <trkpt lat="48.2246" lon="-0.02434">
        <ele>155.625</ele>
        <time>2016-06-01T20:14:46Z</time>
      </trkpt>
      <trkpt lat="48.22446" lon="-0.02533">
        <ele>156.629</ele>
        <time>2016-06-01T20:14:26Z</time>
      </trkpt>
      <trkpt lat="48.22423" lon="-0.02543">
        <ele>155.808</ele>
        <time>2016-06-01T20:14:06Z</time>
      </trkpt>
      <trkpt lat="48.22422" lon="-0.02563">
        <ele>156.413</ele>
        <time>2016-06-01T20:13:46Z</time>
      </trkpt>
      <trkpt lat="48.224" lon="-0.02636">
        <ele>160.649</ele>
        <time>2016-06-01T20:13:26Z</time>
      </trkpt>
      <trkpt lat="48.22393" lon="-0.02685">
        <ele>161.537</ele>
        <time>2020-12-24T06:43:35Z</time>
      </trkpt>
      <trkpt lat="48.22412" lon="-0.0269">
        <ele>162.61</ele>
        <time>2020-12-24T06:43:15Z</time>
      </trkpt>
      <trkpt lat="48.22492" lon="-0.02647">
        <ele>160.941</ele>
        <time>2020-12-24T06:42:55Z</time>
      </trkpt>
      <trkpt lat="48.22524" lon="-0.02858">
        <ele>162.245</ele>
        <time>2020-12-24T06:42:35Z</time>
      </trkpt>
      <trkpt lat="48.22511" lon="-0.02961">
        <ele>164.813</ele>
        <time>2020-12-24T06:42:15Z</time>
      </trkpt>
      <trkpt lat="48.22454" lon="-0.03247">
        <ele>180.177</ele>
        <time>2020-12-24T06:41:55Z</time>
      </trkpt>
      <trkpt lat="48.22718" lon="-0.03388">
        <ele>166.594</ele>
        <time>2020-12-24T06:41:35Z</time>
      </trkpt>
      <trkpt lat="48.2271" lon="-0.03441">
        <ele>168.259</ele>
        <time>2020-12-24T06:41:15Z</time>
      </trkpt>
      <trkpt lat="48.2269" lon="-0.03512">
        <ele>170.453</ele>
        <time>2020-12-24T06:40:55Z</time>
      </trkpt>
      <trkpt lat="48.22691" lon="-0.03573">
        <ele>170.508</ele>
        <time>2020-12-24T06:40:35Z</time>
      </trkpt>
      <trkpt lat="48.22685" lon="-0.03622">
        <ele>170.625</ele>
        <time>2020-12-24T06:40:15Z</time>
      </trkpt>
      <trkpt lat="48.2266" lon="-0.03684">
        <ele>171.605</ele>
        <time>2020-12-24T06:39:55Z</time>
      </trkpt>
      <trkpt lat="48.2261" lon="-0.03742">
        <ele>175.279</ele>
        <time>2020-12-24T06:39:35Z</time>
      </trkpt>
      <trkpt lat="48.22563" lon="-0.03815">
        <ele>177.076</ele>
        <time>2020-12-24T06:39:15Z</time>
      </trkpt>
      <trkpt lat="48.22458" lon="-0.042">
        <ele>178.657</ele>
        <time>2020-12-24T06:38:55Z</time>
      </trkpt>
      <trkpt lat="48.22363" lon="-0.04162">
        <ele>184.441</ele>
        <time>2020-12-24T06:38:35Z</time>
      </trkpt>
      <trkpt lat="48.22299" lon="-0.04214">
        <ele>182.359</ele>
        <time>2020-12-24T06:38:15Z</time>
      </trkpt>
      <trkpt lat="48.2227" lon="-0.04264">
        <ele>180.013</ele>
        <time>2020-12-24T06:37:55Z</time>
      </trkpt>
      <trkpt lat="48.22252" lon="-0.04333">
        <ele>177.14</ele>
        <time>2020-12-24T06:37:35Z</time>
      </trkpt>
      <trkpt lat="48.2218" lon="-0.04455">
        <ele>166.555</ele>
        <time>2020-12-24T06:37:15Z</time>
      </trkpt>
      <trkpt lat="48.22177" lon="-0.04498">
        <ele>164.999</ele>
        <time>2020-12-24T06:36:55Z</time>
      </trkpt>
      <trkpt lat="48.2211" lon="-0.04498">
        <ele>170.108</ele>
        <time>2020-12-24T06:36:35Z</time>
      </trkpt>
      <trkpt lat="48.22084" lon="-0.04567">
        <ele>174.51</ele>
        <time>2020-12-24T06:36:15Z</time>
      </trkpt>
      <trkpt lat="48.22076" lon="-0.04734">
        <ele>179.555</ele>
        <time>2020-12-24T06:35:55Z</time>
      </trkpt>
      <trkpt lat="48.22097" lon="-0.04788">
        <ele>178.034</ele>
        <time>2020-12-24T06:35:35Z</time>
      </trkpt>
      <trkpt lat="48.22109" lon="-0.04854">
        <ele>179.375</ele>
        <time>2020-12-24T06:35:15Z</time>
      </trkpt>
      <trkpt lat="48.22097" lon="-0.0502">
        <ele>182.926</ele>
        <time>2020-12-24T06:34:55Z</time>
      </trkpt>
      <trkpt lat="48.22071" lon="-0.05153">
        <ele>183.62</ele>
        <time>2020-12-24T06:34:35Z</time>
      </trkpt>
      <trkpt lat="48.22037" lon="-0.05201">
        <ele>184.998</ele>
        <time>2020-12-24T06:34:15Z</time>
      </trkpt>
      <trkpt lat="48.22014" lon="-0.05257">
        <ele>186.422</ele>
        <time>2020-12-24T06:33:55Z</time>
      </trkpt>
      <trkpt lat="48.21987" lon="-0.05301">
        <ele>187.739</ele>
        <time>2020-12-24T06:33:35Z</time>
      </trkpt>
      <trkpt lat="48.21951" lon="-0.0541">
        <ele>191.494</ele>
        <time>2020-12-24T06:33:15Z</time>
      </trkpt>
      <trkpt lat="48.21913" lon="-0.05469">
        <ele>189.468</ele>
        <time>2020-12-24T06:32:55Z</time>
      </trkpt>
      <trkpt lat="48.21876" lon="-0.05599">
        <ele>193.608</ele>
        <time>2020-12-24T06:32:35Z</time>
      </trkpt>
      <trkpt lat="48.21823" lon="-0.05757">
        <ele>196.211</ele>
        <time>2020-12-24T06:32:15Z</time>
      </trkpt>
      <trkpt lat="48.21796" lon="-0.05972">
        <ele>199.547</ele>
        <time>2020-12-24T06:31:55Z</time>
      </trkpt>
      <trkpt lat="48.21775" lon="-0.06015">
        <ele>199.326</ele>
        <time>2020-12-24T06:31:35Z</time>
      </trkpt>
      <trkpt lat="48.21742" lon="-0.06118">
        <ele>201.26</ele>
        <time>2020-12-24T06:31:15Z</time>
      </trkpt>
      <trkpt lat="48.21722" lon="-0.06126">
        <ele>202.711</ele>
        <time>2020-12-24T06:30:55Z</time>
      </trkpt>
      <trkpt lat="48.21704" lon="-0.06161">
        <ele>204.515</ele>
        <time>2020-12-24T06:30:35Z</time>
      </trkpt>
      <trkpt lat="48.2157" lon="-0.06249">
        <ele>219.573</ele>
        <time>2020-12-24T06:30:15Z</time>
      </trkpt>
      <trkpt lat="48.21527" lon="-0.06226">
        <ele>223.987</ele>
        <time>2020-12-24T06:29:55Z</time>
      </trkpt>
      <trkpt lat="48.21515" lon="-0.06188">
        <ele>225.194</ele>
        <time>2020-12-24T06:29:35Z</time>
      </trkpt>
      <trkpt lat="48.21481" lon="-0.06191">
        <ele>229.559</ele>
        <time>2020-12-24T06:29:15Z</time>
      </trkpt>
      <trkpt lat="48.2146" lon="-0.06232">
        <ele>231.923</ele>
        <time>2020-12-24T06:28:55Z</time>
      </trkpt>
      <trkpt lat="48.21326" lon="-0.06364">
        <ele>249.308</ele>
        <time>2020-12-24T06:28:35Z</time>
      </trkpt>
      <trkpt lat="48.21024" lon="-0.06211">
        <ele>262.413</ele>
        <time>2020-12-24T06:28:15Z</time>
      </trkpt>
      <trkpt lat="48.20789" lon="-0.07238">
        <ele>267.485</ele>
        <time>2016-06-01T20:07:06Z</time>
      </trkpt>
      <trkpt lat="48.20576" lon="-0.07084">
        <ele>241.273</ele>
        <time>2016-06-01T20:06:46Z</time>
      </trkpt>
      <trkpt lat="48.20545" lon="-0.07112">
        <ele>240.61</ele>
        <time>2016-06-01T20:06:26Z</time>
      </trkpt>
      <trkpt lat="48.20504" lon="-0.07193">
        <ele>245.811</ele>
        <time>2016-06-01T20:06:06Z</time>
      </trkpt>
      <trkpt lat="48.20439" lon="-0.07492">
        <ele>240.695</ele>
        <time>2016-06-01T20:05:46Z</time>
      </trkpt>
      <trkpt lat="48.20506" lon="-0.07519">
        <ele>243.353</ele>
        <time>2016-06-01T20:05:26Z</time>
      </trkpt>
      <trkpt lat="48.20273" lon="-0.07622">
        <ele>223.857</ele>
        <time>2016-06-01T20:05:06Z</time>
      </trkpt>
      <trkpt lat="48.20206" lon="-0.07655">
        <ele>222.544</ele>
        <time>2016-06-01T20:04:46Z</time>
      </trkpt>
      <trkpt lat="48.20134" lon="-0.07629">
        <ele>214.369</ele>
        <time>2016-06-01T20:04:26Z</time>
      </trkpt>
      <trkpt lat="48.20004" lon="-0.07543">
        <ele>193.023</ele>
        <time>2016-06-01T20:04:06Z</time>
      </trkpt>
      <trkpt lat="48.19988" lon="-0.07567">
        <ele>192.508</ele>
        <time>2016-06-01T20:03:46Z</time>
      </trkpt>
      <trkpt lat="48.19937" lon="-0.07698">
        <ele>196.426</ele>
        <time>2016-06-01T20:03:26Z</time>
      </trkpt>
      <trkpt lat="48.19914" lon="-0.07788">
        <ele>197.533</ele>
        <time>2016-06-01T20:03:06Z</time>
      </trkpt>
      <trkpt lat="48.19912" lon="-0.07839">
        <ele>197.678</ele>
        <time>2016-06-01T20:02:46Z</time>
      </trkpt>
      <trkpt lat="48.19898" lon="-0.07959">
        <ele>196.542</ele>
        <time>2016-06-01T20:02:26Z</time>
      </trkpt>
      <trkpt lat="48.19858" lon="-0.0809">
        <ele>186.113</ele>
        <time>2016-06-01T20:02:06Z</time>
      </trkpt>
      <trkpt lat="48.19834" lon="-0.08105">
        <ele>183.837</ele>
        <time>2016-06-01T20:01:46Z</time>
      </trkpt>
      <trkpt lat="48.19778" lon="-0.08219">
        <ele>188.025</ele>
        <time>2016-06-01T20:01:26Z</time>
      </trkpt>
      <trkpt lat="48.19721" lon="-0.08339">
        <ele>194.339</ele>
        <time>2016-06-01T20:01:06Z</time>
      </trkpt>
      <trkpt lat="48.19685" lon="-0.08403">
        <ele>189.786</ele>
        <time>2016-06-01T20:00:46Z</time>
      </trkpt>
      <trkpt lat="48.19651" lon="-0.08436">
        <ele>187.981</ele>
        <time>2016-06-01T20:00:26Z</time>
      </trkpt>
      <trkpt lat="48.19535" lon="-0.08474">
        <ele>180.115</ele>
        <time>2016-06-01T20:00:06Z</time>
      </trkpt>
      <trkpt lat="48.19489" lon="-0.08567">
        <ele>179.208</ele>
        <time>2016-06-01T19:59:46Z</time>
      </trkpt>
      <trkpt lat="48.19455" lon="-0.08601">
        <ele>177.424</ele>
        <time>2016-06-01T19:59:26Z</time>
      </trkpt>
      <trkpt lat="48.19445" lon="-0.08633">
        <ele>177.831</ele>
        <time>2016-06-01T19:59:06Z</time>
      </trkpt>
      <trkpt lat="48.19465" lon="-0.08685">
        <ele>180.896</ele>
        <time>2016-06-01T19:58:46Z</time>
      </trkpt>
      <trkpt lat="48.19455" lon="-0.08852">
        <ele>185.068</ele>
        <time>2016-06-01T19:58:26Z</time>
      </trkpt>
      <trkpt lat="48.19417" lon="-0.08901">
        <ele>184.569</ele>
        <time>2016-06-01T19:58:06Z</time>
      </trkpt>
      <trkpt lat="48.19395" lon="-0.08972">
        <ele>184.223</ele>
        <time>2016-06-01T19:57:46Z</time>
      </trkpt>
      <trkpt lat="48.19389" lon="-0.09013">
        <ele>184.541</ele>
        <time>2016-06-01T19:57:26Z</time>
      </trkpt>
      <trkpt lat="48.19377" lon="-0.09071">
        <ele>186.945</ele>
        <time>2016-06-01T19:57:06Z</time>
      </trkpt>
      <trkpt lat="48.19332" lon="-0.09137">
        <ele>187.992</ele>
        <time>2016-06-01T19:56:46Z</time>
      </trkpt>
      <trkpt lat="48.19406" lon="-0.09208">
        <ele>196.587</ele>
        <time>2016-06-01T19:56:26Z</time>
      </trkpt>
      <trkpt lat="48.19468" lon="-0.09225">
        <ele>206.351</ele>
        <time>2016-06-01T19:56:06Z</time>
      </trkpt>
      <trkpt lat="48.1951" lon="-0.09174">
        <ele>209.008</ele>
        <time>2016-06-01T19:55:46Z</time>
      </trkpt>
      <trkpt lat="48.19582" lon="-0.09124">
        <ele>219.211</ele>
        <time>2016-06-01T19:55:26Z</time>
      </trkpt>
      <trkpt lat="48.19641" lon="-0.09112">
        <ele>228.301</ele>
        <time>2016-06-01T19:55:06Z</time>
      </trkpt>
      <trkpt lat="48.19689" lon="-0.09146">
        <ele>236.951</ele>
        <time>2016-06-01T19:54:46Z</time>
      </trkpt>
      <trkpt lat="48.19685" lon="-0.09212">
        <ele>241.174</ele>
        <time>2016-06-01T19:54:26Z</time>
      </trkpt>
    </trkseg>
  </trk>
</gpx>